GFSSGP_850_thetae_000.txt.gz
Theta_e
319 332 333 342 355 354 348 344 344 346 343 340 340 339 338 342 345 348 344 342 340 346 350 342 330 340 342 344 344 343 340 334 335 339 333 332 333 333 341 344 344 341 340 342 342 341 340 343 344
323 331 341 341 353 350 346 341 340 340 339 340 338 335 333 333 335 334 338 335 339 340 340 331 328 338 341 343 344 343 342 341 338 339 339 338 337 338 335 337 341 344 342 340 342 342 343 343 343
327 331 337 349 347 345 344 338 334 335 335 337 333 330 328 328 329 329 329 331 333 335 329 329 333 336 340 342 344 342 340 339 338 337 334 332 332 333 333 334 335 338 343 344 342 342 342 344 343
328 339 337 343 344 338 338 333 330 332 333 332 329 325 325 325 326 326 326 327 329 336 334 330 333 337 339 343 344 341 337 331 323 319 315 314 318 325 329 330 331 333 335 338 341 342 342 342 342
332 335 344 337 339 334 333 329 328 331 331 329 328 325 324 323 324 323 324 325 328 335 337 334 336 337 337 339 341 334 323 319 316 313 312 314 315 312 312 314 315 320 328 332 334 339 340 342 342
335 335 339 338 337 333 331 327 326 327 328 327 324 324 323 323 322 322 323 326 331 334 342 336 334 333 331 327 324 319 316 311 311 311 314 318 318 314 313 312 311 312 313 319 329 331 335 339 340
338 342 335 337 336 332 329 326 324 325 326 325 324 325 323 322 321 322 323 325 329 330 332 340 334 334 324 319 317 313 311 312 312 312 316 322 323 322 315 316 312 310 311 312 313 324 330 335 337
335 339 338 336 338 336 327 324 322 325 323 323 323 323 323 322 321 321 322 322 323 323 327 329 331 330 326 314 313 311 312 312 312 312 312 313 315 317 314 318 313 312 311 310 313 315 320 329 335
332 340 336 335 334 334 325 324 321 323 323 324 323 324 323 319 320 321 321 321 320 322 321 323 324 324 322 319 315 312 311 312 312 312 311 310 311 312 312 314 317 314 313 315 320 321 322 323 330
333 334 335 333 332 332 325 324 321 322 324 324 323 321 319 320 321 321 320 319 319 318 319 318 318 318 315 314 312 312 312 312 311 311 310 309 309 307 308 310 314 313 317 316 318 324 325 321 329
329 334 333 329 327 327 324 323 321 322 324 325 324 320 319 319 319 319 319 318 317 316 315 315 314 313 312 312 312 313 312 311 311 310 309 309 307 306 306 307 307 310 311 313 318 320 324 322 321
327 327 327 326 323 325 324 322 321 321 324 324 323 320 319 318 318 317 317 317 317 315 314 313 313 313 313 312 313 313 312 311 310 308 307 307 306 305 305 305 306 308 310 312 314 316 319 321 323
325 325 324 324 321 322 323 321 321 322 323 323 321 319 318 318 317 317 316 316 316 315 314 314 313 313 313 313 312 312 311 310 309 307 306 306 304 304 304 303 304 305 306 307 307 309 312 317 320
324 323 323 322 321 321 322 321 321 321 323 322 319 318 318 317 316 315 315 315 314 314 313 313 314 313 312 312 312 311 311 309 307 306 304 304 302 302 301 301 301 302 302 301 302 303 308 313 318
322 323 322 321 321 321 321 323 323 322 321 319 318 318 318 317 316 315 315 315 314 313 313 314 314 313 313 312 311 311 310 308 306 304 303 302 301 300 300 300 301 302 300 300 300 301 303 306 311
322 322 324 323 321 321 321 322 323 321 320 319 318 318 318 316 316 315 315 314 313 312 313 314 313 312 312 312 311 310 308 307 305 303 302 301 300 299 299 299 300 303 301 300 300 300 302 302 303
323 323 323 324 322 323 321 323 324 321 320 319 319 319 318 317 315 314 314 313 312 311 311 312 312 311 311 311 309 308 307 306 304 302 302 300 299 299 298 299 300 301 300 300 300 300 303 304 305
324 322 323 324 323 322 322 321 323 322 320 319 320 319 319 318 316 314 312 312 310 311 311 310 310 310 310 309 308 307 305 304 303 302 302 300 299 298 299 300 301 302 302 302 301 302 305 306 304
323 324 324 324 325 323 322 322 322 323 321 320 320 320 320 319 318 315 312 310 308 309 310 309 309 309 308 308 308 306 304 303 302 302 302 300 300 299 300 302 302 302 303 303 302 301 301 303 306
324 323 322 323 323 323 323 323 322 322 322 320 319 319 320 319 318 316 313 310 309 307 307 306 307 308 307 308 307 304 303 301 301 302 302 301 301 300 301 301 302 302 302 302 301 302 302 301 303
323 322 322 322 323 322 322 322 321 320 321 322 321 320 320 320 319 317 314 311 309 306 306 307 305 305 306 306 305 303 302 301 301 301 300 301 300 301 301 301 301 301 301 300 301 301 302 302 302
322 323 322 322 321 322 321 323 321 321 321 320 322 321 320 320 319 317 315 311 308 307 306 305 306 305 304 304 303 302 301 301 300 300 300 300 300 300 301 301 301 301 301 300 300 300 301 301 302
322 321 321 322 322 321 322 322 322 323 323 322 321 322 321 320 319 318 316 312 309 306 306 305 306 304 304 303 302 302 301 301 301 300 299 299 300 300 300 300 300 301 300 300 300 300 300 300 300
321 321 321 322 322 323 321 322 322 323 323 323 322 322 321 320 319 318 316 313 310 307 306 305 305 304 303 303 302 301 301 301 301 300 300 300 300 299 299 299 300 300 300 300 300 300 300 300 301
320 321 324 327 327 325 323 322 322 324 323 322 321 323 321 320 318 317 315 313 311 307 306 305 305 304 303 303 301 301 300 300 300 300 300 299 299 299 299 299 299 299 300 299 299 300 300 299 300
320 320 322 324 325 326 321 322 322 322 320 320 321 321 320 319 318 316 314 312 311 308 306 305 305 304 304 302 301 300 299 299 300 299 299 299 299 299 299 299 300 299 298 299 299 299 299 299 300
322 321 321 322 321 322 322 322 322 320 317 318 319 318 319 318 317 315 313 312 311 309 307 306 305 305 303 303 301 300 299 299 299 299 299 299 299 299 300 299 299 299 299 299 299 299 299 300 301
320 321 322 321 321 320 321 320 322 322 318 315 315 316 318 318 316 314 312 311 311 310 308 307 306 305 304 303 301 300 299 299 299 299 299 299 299 299 299 299 299 299 299 299 299 299 299 300 300
319 320 321 322 319 320 320 321 321 319 319 317 314 316 317 318 316 315 312 311 310 310 308 307 306 304 303 302 301 299 299 299 299 299 299 299 299 299 299 299 299 299 299 299 299 299 299 299 299
319 320 321 320 320 321 321 322 321 321 317 317 317 316 316 316 316 314 312 311 310 309 308 306 305 303 302 301 300 299 299 298 298 298 299 299 299 299 299 299 299 298 299 298 298 298 299 299 299

GFSSGP_850_thetae_003.txt.gz
Theta_e
325 332 332 343 343 339 345 341 341 343 340 337 339 340 340 343 345 343 339 347 347 347 343 326 327 337 342 343 343 341 339 336 337 337 336 335 331 332 333 338 342 344 340 340 342 342 343 343 344
328 332 341 340 343 343 340 336 336 338 339 336 336 335 334 332 340 336 336 342 341 339 329 327 327 335 341 343 342 340 339 338 336 332 330 330 330 330 329 329 333 339 344 344 341 342 342 344 343
329 333 337 338 339 341 339 333 332 335 338 334 329 330 329 328 332 332 332 335 332 332 327 323 329 336 341 343 342 339 333 327 321 315 312 312 315 320 324 327 328 329 333 337 342 342 342 342 344
331 339 338 335 336 333 332 328 332 334 333 331 329 325 326 326 328 328 328 328 326 331 324 326 334 340 342 342 335 325 320 315 313 312 313 312 311 312 312 313 314 321 328 332 334 339 341 342 342
333 335 335 332 333 330 326 329 330 330 330 327 327 324 323 325 325 324 325 327 325 333 331 333 334 336 339 337 324 315 311 311 312 314 315 316 316 314 314 312 311 312 313 321 330 333 336 339 340
335 336 332 332 332 328 326 327 326 326 325 324 324 324 323 323 322 323 322 329 332 337 334 330 330 329 323 320 315 310 311 312 312 315 316 318 318 320 316 315 312 311 310 312 314 326 332 334 337
336 335 332 331 329 328 326 326 324 325 324 323 324 321 322 323 322 322 322 331 333 335 335 332 332 323 318 316 311 312 312 312 312 312 313 313 315 318 314 315 313 312 312 311 312 313 317 328 334
333 333 333 331 329 329 324 324 322 324 322 323 323 320 320 321 321 322 322 323 329 330 330 332 329 325 316 312 312 312 312 313 313 312 311 311 311 311 313 312 312 314 312 316 316 315 314 312 324
331 329 329 331 330 328 323 322 321 323 323 323 323 322 322 320 321 322 321 321 321 325 328 329 326 322 319 315 313 312 312 313 313 312 311 310 309 308 308 309 312 312 313 315 315 316 322 316 311
330 324 328 329 326 323 323 322 321 323 323 323 322 322 321 316 320 320 320 320 321 320 321 322 325 322 317 313 312 312 313 313 312 311 310 308 307 306 306 306 306 308 309 312 312 315 318 319 319
327 329 330 325 326 324 323 322 321 321 321 324 322 320 317 320 321 320 320 319 318 319 317 317 315 313 312 311 312 313 312 312 311 310 309 306 305 305 305 305 305 306 306 308 308 310 314 316 319
325 327 326 325 324 324 322 322 320 321 322 323 324 320 319 320 320 319 319 318 317 316 316 314 313 312 311 312 313 313 313 311 310 309 308 306 305 305 305 304 304 304 304 304 304 305 307 313 317
323 324 324 323 323 322 322 321 320 321 323 324 323 321 318 318 318 318 318 317 316 315 314 313 312 312 312 313 314 314 313 311 310 308 307 305 305 304 304 303 303 303 302 302 302 302 303 304 307
323 323 323 322 321 321 321 321 321 322 323 321 320 320 319 318 317 317 317 317 316 315 314 313 313 312 313 314 314 314 314 312 309 307 306 304 303 303 302 302 301 301 301 300 301 301 301 301 302
322 321 320 320 320 320 320 320 320 321 322 322 321 320 318 318 318 317 316 316 315 314 314 313 313 313 314 314 314 314 314 311 308 306 304 302 301 300 300 299 300 300 300 299 299 299 299 299 300
320 319 319 319 319 320 319 317 319 321 322 322 321 320 318 318 317 316 315 315 315 315 314 313 313 313 314 314 314 313 313 310 308 305 303 301 300 299 299 299 299 300 300 299 299 299 299 299 299
318 316 318 321 319 320 317 317 319 321 322 320 319 317 317 317 317 316 315 315 315 314 314 313 313 313 313 313 313 313 312 309 307 304 302 301 300 299 298 299 300 300 300 301 300 300 300 301 300
318 318 318 319 319 319 318 318 320 320 320 320 319 318 318 318 318 317 315 315 314 313 313 313 312 312 312 312 312 312 310 308 305 303 302 301 299 299 298 299 300 301 301 301 301 300 300 300 300
319 320 320 318 321 319 319 319 318 320 319 318 319 318 318 318 318 317 316 314 314 313 312 311 311 311 311 312 312 311 309 306 304 302 301 300 299 298 299 300 301 301 301 301 301 300 301 301 300
319 318 319 318 321 319 318 319 318 317 319 319 318 318 318 318 318 317 316 314 313 313 312 310 309 309 310 310 310 309 307 305 303 301 300 299 299 299 299 300 300 301 300 301 300 300 300 300 300
319 319 320 319 321 319 319 318 318 318 319 320 319 320 319 319 319 318 316 315 314 313 312 310 308 308 308 308 309 308 306 304 302 300 299 299 300 299 300 300 300 300 301 300 301 300 300 300 300
319 320 321 320 319 317 317 319 317 318 317 316 319 318 319 318 319 318 317 315 315 315 312 309 307 307 307 307 308 307 305 303 301 300 299 299 299 299 300 300 299 299 300 301 301 301 300 301 300
318 320 320 320 319 319 319 318 317 316 317 317 315 319 318 319 319 319 318 317 316 315 313 308 305 306 306 306 307 306 304 303 301 299 299 299 299 299 299 298 298 299 300 300 300 300 300 300 300
319 319 319 319 317 319 317 318 318 316 318 317 317 318 320 319 320 319 319 317 316 314 312 308 306 306 305 305 305 304 303 302 300 299 299 299 299 299 298 297 298 299 299 299 300 300 299 300 300
319 317 317 321 321 319 317 318 318 316 317 317 318 321 320 320 320 319 318 317 315 314 312 309 306 305 305 304 304 303 302 301 300 299 299 299 299 298 298 297 298 299 300 299 299 299 299 299 299
317 316 316 319 323 320 320 319 320 317 320 321 322 322 322 320 321 319 318 318 316 315 313 310 306 305 305 305 304 303 302 300 299 299 299 299 299 298 298 298 299 299 299 299 299 299 299 299 299
317 318 317 317 317 317 317 317 317 318 317 316 318 320 321 321 320 319 318 317 316 315 313 310 307 306 305 305 304 303 302 300 299 299 299 299 299 299 298 299 299 299 299 299 299 299 299 299 299
317 316 318 317 320 318 317 316 317 317 318 314 313 317 320 320 319 318 318 317 316 314 312 310 308 307 306 306 304 303 301 300 299 299 298 299 299 298 299 299 299 299 299 299 299 299 299 299 299
317 319 318 317 315 315 316 314 313 317 316 313 315 316 319 319 318 317 317 316 314 312 311 310 308 307 306 305 304 303 301 300 299 298 298 298 298 298 299 299 299 299 299 299 299 299 299 299 299
317 318 319 320 317 317 319 319 316 313 314 313 313 317 318 318 318 317 316 315 313 311 311 310 309 308 306 305 303 302 301 300 299 298 298 298 298 298 298 298 298 298 298 298 299 299 299 299 299

GFSSGP_850_thetae_006.txt.gz
Theta_e
327 332 333 343 340 338 343 343 340 341 338 339 340 342 340 341 341 342 346 348 348 345 333 327 332 337 342 342 340 338 337 336 333 331 330 330 329 328 328 331 337 343 344 342 341 342 343 343 341
328 333 341 341 341 340 339 335 339 337 336 335 335 335 336 334 337 337 347 346 343 333 328 326 330 337 342 341 339 337 333 324 317 314 316 319 323 326 327 327 329 333 337 341 342 341 342 344 343
330 333 337 334 334 343 338 333 334 334 335 333 330 329 329 329 332 330 340 337 332 328 325 324 331 338 342 341 333 324 318 314 314 314 312 312 312 312 313 317 322 328 331 333 336 341 341 342 343
331 337 336 332 334 332 333 330 332 334 331 330 329 324 326 328 330 328 335 332 329 325 324 326 335 342 342 330 323 315 312 312 314 316 317 315 315 314 311 311 312 313 321 330 333 336 339 340 341
332 335 331 331 332 329 327 330 333 331 327 327 327 322 324 326 327 326 328 328 325 324 325 331 337 341 336 322 312 311 312 314 314 314 313 313 312 313 311 311 311 310 311 313 323 331 334 337 339
334 333 329 330 330 327 325 329 328 328 325 325 325 323 324 324 325 325 327 327 326 327 327 323 334 335 324 315 311 312 312 313 313 313 313 314 313 312 314 311 310 310 310 310 312 316 327 332 336
334 329 329 329 328 327 325 326 323 323 323 323 325 320 323 322 322 323 325 326 333 333 329 325 328 324 319 312 312 312 312 312 312 312 312 313 314 313 312 311 310 310 310 310 312 312 313 316 329
334 330 332 328 327 327 326 324 323 324 321 323 323 319 321 322 322 322 329 331 332 334 332 329 325 321 316 311 312 312 313 313 313 312 311 311 311 311 311 310 309 309 310 310 312 311 316 314 315
330 327 327 329 327 329 324 321 322 323 322 322 323 323 323 322 322 322 323 329 330 331 331 326 324 318 313 311 312 312 313 314 313 311 310 309 308 307 307 308 308 308 308 310 311 313 315 314 313
326 320 323 327 326 322 322 321 322 323 323 322 322 322 322 321 321 321 320 321 327 329 328 327 322 316 312 312 312 312 313 313 313 311 310 308 307 306 306 306 306 307 308 310 311 314 314 314 314
326 325 327 326 326 323 322 320 321 322 320 322 321 322 321 319 321 321 320 319 318 323 327 327 327 323 315 313 312 312 313 313 313 312 310 309 307 306 306 306 306 306 305 306 306 307 310 314 314
325 326 326 325 324 324 321 322 319 322 322 323 323 323 321 318 320 320 319 319 319 318 318 321 322 324 316 311 312 313 314 313 313 313 311 308 306 305 305 305 305 304 304 303 303 303 304 306 311
322 322 324 324 324 322 322 320 319 319 321 321 322 322 320 317 319 320 319 319 318 317 316 316 316 314 312 311 312 313 314 314 314 313 311 308 305 305 304 304 304 303 303 303 303 303 303 303 303
322 322 323 323 323 321 320 320 319 320 321 322 323 322 319 318 319 320 319 319 318 317 316 314 313 312 311 311 312 313 314 314 314 313 310 307 305 304 304 303 303 302 302 302 301 301 302 301 302
322 321 320 320 320 318 320 319 318 320 321 322 323 322 320 318 319 319 318 318 318 316 314 313 313 312 311 312 312 313 314 314 313 312 309 307 304 303 303 302 301 301 301 300 300 300 300 300 300
319 318 318 317 318 319 319 317 316 320 321 321 321 321 320 319 318 317 317 316 315 315 314 314 313 313 312 312 312 313 313 314 313 311 308 305 303 302 300 299 300 300 300 300 299 299 299 299 299
315 314 316 317 318 318 315 315 316 318 321 321 320 320 319 319 318 317 317 316 316 315 314 314 313 312 312 312 312 313 313 313 312 310 306 303 302 300 299 299 300 300 300 300 299 299 299 298 298
315 315 315 316 318 318 317 316 315 319 320 320 320 321 320 320 319 318 317 317 316 315 314 314 313 312 312 311 311 312 312 312 311 308 305 303 301 300 299 299 299 299 300 300 300 300 299 298 298
314 316 317 317 317 318 318 318 317 317 318 318 319 318 320 320 319 317 317 316 315 314 314 313 313 312 311 311 312 312 312 311 309 307 304 302 300 299 299 299 299 300 300 300 300 299 299 298 298
316 316 315 316 318 317 317 318 318 315 317 318 319 318 319 319 318 317 317 316 315 314 314 313 313 311 311 310 311 311 311 310 308 306 303 301 300 299 299 299 299 300 300 300 300 300 300 299 299
318 317 316 317 318 317 318 318 317 316 317 319 319 319 319 320 320 319 318 317 316 315 314 314 313 312 311 310 309 310 310 309 307 304 302 300 299 299 299 299 300 300 299 299 300 300 300 299 300
318 317 318 319 318 317 317 319 315 315 315 314 317 319 319 318 319 319 319 318 317 316 315 313 312 311 310 309 309 309 309 308 306 303 301 299 299 299 299 299 299 298 298 298 299 299 299 300 300
318 318 318 319 317 317 317 316 317 315 315 315 314 317 319 319 318 319 319 319 318 316 316 314 312 311 309 308 308 308 308 307 305 303 300 299 298 299 299 299 297 297 298 299 299 299 299 298 298
317 318 317 316 315 317 317 316 319 315 317 317 317 318 318 318 319 318 319 319 318 317 315 314 313 311 309 307 307 308 307 306 304 302 300 299 298 299 298 298 297 297 298 298 299 298 298 298 299
318 315 316 317 318 319 315 316 319 313 312 313 314 318 321 320 319 318 318 318 318 317 316 314 313 311 308 306 306 307 307 305 304 302 300 299 299 298 298 298 297 298 298 298 299 299 299 299 299
316 316 316 318 318 317 315 317 317 314 317 318 317 320 320 320 320 320 319 319 319 318 316 315 313 310 307 306 306 307 305 305 303 301 299 299 299 299 298 298 298 298 299 299 299 298 298 299 299
317 317 316 315 314 314 315 316 314 314 314 313 315 317 320 320 320 321 320 320 319 318 317 315 314 311 308 307 306 306 305 304 303 301 299 299 299 299 298 298 298 298 298 299 298 298 298 298 298
316 315 317 314 318 318 316 314 316 314 316 315 312 314 320 320 319 320 320 320 319 318 317 315 314 313 310 307 306 306 305 304 302 300 299 298 298 298 298 298 298 298 298 298 298 298 298 298 298
316 317 316 314 315 318 319 318 312 316 315 313 312 316 320 320 320 321 320 320 319 318 317 316 314 312 309 307 306 305 305 303 302 300 299 298 298 298 297 298 298 297 297 297 298 298 298 298 299
316 317 317 319 319 313 318 319 315 312 311 312 314 317 317 319 320 320 320 319 318 317 316 315 314 311 310 308 306 306 305 303 302 300 299 298 298 297 297 297 297 297 297 298 298 298 299 299 299

GFSSGP_850_thetae_009.txt.gz
Theta_e
327 332 333 342 340 337 342 342 339 340 337 338 340 342 340 339 341 339 347 347 346 343 330 326 332 340 342 340 337 337 333 331 330 330 330 329 329 328 330 335 341 343 343 341 340 342 343 343 339
328 332 339 341 337 339 338 335 339 336 338 340 340 338 336 335 337 341 346 348 347 335 327 324 331 340 341 339 337 332 321 315 313 313 315 318 321 323 326 327 329 332 337 340 341 341 342 343 343
330 334 337 332 334 339 338 333 334 335 335 331 328 329 331 331 333 342 345 344 333 328 325 324 333 341 340 336 329 318 315 315 312 313 313 312 312 312 313 317 324 328 331 332 336 340 341 341 342
331 336 333 331 335 333 335 331 333 333 330 330 329 324 328 330 331 337 341 335 331 326 321 321 337 342 339 325 319 315 315 316 315 315 314 313 312 311 310 311 312 315 323 330 332 335 338 340 341
332 335 329 331 332 329 327 330 333 330 327 328 328 324 326 327 329 332 334 331 328 324 320 327 341 341 326 319 314 313 314 315 314 313 312 312 311 311 311 310 310 311 313 316 326 332 334 339 340
333 330 329 330 330 327 325 329 331 329 325 325 325 324 325 326 327 328 329 328 327 321 322 330 341 336 323 313 311 312 313 313 314 314 314 314 313 312 314 312 310 310 310 310 313 320 327 333 337
332 325 328 327 328 326 325 327 323 324 323 324 325 320 323 324 325 326 327 328 325 326 324 323 336 333 319 311 311 312 312 313 313 313 313 313 313 312 312 313 311 310 310 310 311 311 312 317 329
334 327 330 326 327 327 326 324 323 324 321 323 325 320 321 324 324 325 328 329 328 330 325 323 330 325 316 310 312 312 312 313 313 312 311 311 310 310 310 310 310 310 310 311 312 310 311 313 315
329 326 326 327 325 326 324 320 321 322 323 323 323 322 322 324 323 325 327 331 329 331 328 323 323 321 315 311 312 312 313 313 313 312 310 309 308 308 307 307 307 308 309 310 312 311 313 314 314
323 320 324 325 325 325 323 320 321 322 321 322 322 323 322 323 322 322 324 325 329 327 328 325 322 317 314 311 312 312 313 313 313 312 311 309 308 307 307 307 306 306 307 308 310 311 312 313 314
324 321 320 326 325 324 322 320 321 321 320 322 323 323 322 322 322 321 321 321 319 323 324 325 323 318 314 312 312 312 313 313 313 313 313 312 310 308 306 306 306 305 305 305 305 306 306 309 312
324 324 326 326 324 322 320 321 319 321 322 323 323 323 323 322 322 321 319 319 322 320 320 323 322 321 317 315 313 312 313 314 314 314 314 313 310 307 307 306 305 305 304 304 304 304 304 303 304
322 322 324 324 324 322 322 321 319 319 321 321 322 322 322 322 321 320 318 317 318 318 317 318 320 321 324 324 314 311 312 313 314 314 314 313 309 307 306 305 304 304 303 303 303 303 303 303 302
321 322 322 323 322 322 319 319 319 321 322 320 321 322 322 322 321 319 319 319 318 318 317 316 317 319 320 320 313 311 312 313 313 314 314 312 309 306 305 304 303 302 303 303 302 302 302 302 302
320 321 319 319 321 319 319 317 316 321 320 319 321 321 322 321 321 319 318 317 318 318 318 317 316 316 316 314 311 311 312 313 313 313 313 312 309 306 304 302 302 302 302 302 301 301 301 301 301
319 317 318 316 318 319 318 316 314 320 320 320 320 321 321 321 321 319 318 318 319 319 318 317 316 315 313 312 311 311 312 312 312 312 312 311 308 305 303 302 301 301 301 300 300 300 300 300 300
313 314 314 315 316 317 315 315 314 317 319 319 320 321 321 321 320 319 318 319 319 318 318 317 315 314 313 311 311 311 312 312 312 312 311 310 307 304 302 301 300 300 300 299 299 299 299 299 298
314 314 313 313 315 316 316 315 314 317 318 319 319 320 321 321 322 321 319 318 318 318 317 316 315 314 313 312 311 311 311 311 311 311 310 309 305 302 301 300 299 299 299 299 299 298 298 298 297
313 313 313 314 314 317 316 317 317 317 317 318 319 319 319 320 320 321 319 318 317 317 316 316 315 314 313 312 311 310 311 311 311 311 309 307 303 301 300 299 299 299 299 299 299 299 299 298 298
315 315 314 313 314 316 315 317 316 316 314 317 318 318 319 320 320 319 320 319 317 317 316 316 315 314 313 312 311 310 310 310 310 310 309 305 302 300 299 299 299 299 299 299 299 299 299 299 298
316 316 314 314 315 315 316 318 315 315 316 317 318 319 318 319 320 320 320 320 319 317 316 316 315 314 313 312 310 309 309 309 309 310 308 304 302 300 299 299 299 299 298 298 298 298 299 298 298
315 316 316 317 317 318 315 318 315 315 315 314 316 317 319 319 319 319 320 320 319 317 317 316 315 314 314 312 310 310 310 310 310 309 306 304 301 299 299 299 299 298 297 298 298 298 298 299 298
317 316 317 317 316 315 316 316 317 313 314 313 313 316 318 319 319 318 319 320 320 318 317 316 315 314 313 313 311 310 309 308 308 308 305 303 300 299 299 298 298 298 297 297 298 298 298 298 298
316 317 316 315 313 317 317 316 318 316 315 315 315 317 319 319 318 318 318 318 318 318 317 316 315 314 313 312 311 309 308 308 308 308 305 303 300 299 299 298 298 297 297 297 298 298 298 298 298
316 315 316 317 317 320 314 315 318 314 313 312 314 317 319 318 317 318 317 317 318 318 317 316 315 314 313 312 310 309 307 307 307 307 304 302 300 299 298 298 298 297 297 298 298 299 298 298 298
315 316 318 319 317 317 314 316 317 313 315 317 317 318 318 317 317 320 318 318 319 318 317 316 316 315 313 312 311 308 307 306 307 306 304 302 299 299 298 298 298 297 298 298 298 298 298 298 298
315 315 316 315 317 313 316 314 313 313 312 313 314 318 319 321 320 319 320 319 319 318 318 317 317 315 314 313 311 308 306 306 306 306 303 301 299 298 298 298 298 297 298 298 298 298 297 297 297
315 314 316 312 318 319 317 313 315 313 314 313 312 314 319 320 320 319 319 319 319 319 318 318 317 316 316 314 312 309 306 306 306 305 303 301 299 298 298 298 297 297 297 297 297 297 297 297 296
317 315 314 314 315 319 319 318 314 315 315 315 311 314 316 318 318 319 318 318 318 317 318 318 317 316 315 313 311 308 306 306 305 305 302 300 299 298 298 297 297 297 297 296 297 297 297 296 298
317 316 314 319 320 315 317 319 315 312 311 311 311 317 320 321 318 318 317 318 318 317 317 318 317 316 315 314 311 308 306 305 305 304 302 300 299 298 298 297 297 297 296 297 297 297 296 296 297

GFSSGP_850_thetae_012.txt.gz
Theta_e
328 332 333 342 339 336 342 344 338 337 336 337 341 339 338 338 340 338 344 345 344 343 330 324 330 340 341 337 335 337 337 332 331 329 329 328 328 329 333 340 344 344 341 340 341 342 342 342 336
329 332 337 339 337 338 337 334 339 336 337 339 340 340 338 335 338 345 346 345 346 340 328 323 328 339 340 337 335 328 322 319 319 318 319 321 323 325 326 327 330 334 338 340 340 341 343 342 341
331 333 337 330 334 339 337 333 335 336 337 331 329 330 334 333 336 342 344 347 343 330 326 323 329 340 339 336 330 319 316 314 313 313 312 312 311 313 316 322 326 329 331 333 337 339 341 342 342
330 335 331 332 335 333 335 331 333 335 333 329 328 326 332 334 336 340 342 341 332 327 324 321 332 340 337 331 321 317 315 314 313 313 312 312 311 310 311 312 314 321 327 331 333 335 340 341 341
332 333 328 331 331 329 327 330 334 332 328 327 327 325 328 332 332 337 340 335 331 327 321 321 338 341 332 321 317 315 314 314 313 313 312 312 311 312 311 310 310 311 314 321 328 332 334 338 340
331 329 329 332 330 327 324 330 334 330 325 325 326 325 327 329 332 335 336 332 328 324 320 326 341 340 324 319 314 313 313 313 313 314 314 314 313 313 313 311 310 310 310 311 313 317 327 331 335
329 325 330 328 328 327 326 328 327 326 323 325 325 322 324 327 329 332 331 328 326 323 320 330 342 334 325 316 312 312 312 313 313 313 312 312 312 312 312 311 311 310 310 310 310 311 313 317 327
333 324 327 326 327 327 325 325 324 326 323 324 325 322 322 325 326 328 329 328 326 323 323 324 336 337 328 314 311 312 312 313 313 313 311 311 310 309 309 309 309 309 310 311 312 311 312 312 314
329 325 326 327 325 326 324 321 322 323 323 323 324 324 323 324 325 327 328 330 328 325 326 323 330 333 325 312 311 312 312 313 313 312 311 310 309 308 307 307 307 307 308 309 311 311 313 315 314
323 320 323 323 323 324 324 321 321 321 321 322 323 324 322 323 325 325 325 325 325 323 326 324 323 326 320 312 311 312 312 313 313 313 312 312 311 309 307 306 307 307 307 307 308 309 310 311 313
321 319 318 324 326 324 323 320 320 320 319 322 324 324 323 322 324 324 323 322 320 319 321 324 319 320 317 313 311 312 312 313 313 313 313 313 312 311 307 306 306 306 305 305 304 304 305 306 309
322 323 324 326 325 322 320 321 319 320 323 323 323 323 323 322 323 323 322 321 321 319 318 320 320 318 315 314 311 312 312 312 313 313 313 313 313 312 308 306 305 305 304 304 304 303 303 303 303
321 321 322 325 324 322 321 320 319 318 322 322 322 322 322 322 322 322 322 322 320 319 318 319 318 318 317 314 312 313 311 312 313 313 313 314 313 311 309 307 305 305 304 303 303 303 303 302 302
319 320 321 322 322 321 319 319 319 321 323 321 320 321 321 322 322 322 322 322 321 319 318 318 318 319 319 318 317 318 314 311 312 313 313 313 313 311 309 306 304 304 303 303 303 303 302 302 302
318 318 316 318 320 319 319 317 316 320 321 322 321 321 321 321 321 322 322 321 320 319 318 317 317 318 318 318 319 320 318 311 312 312 312 313 312 311 308 305 303 303 302 302 302 302 302 301 301
316 316 317 315 317 319 318 318 314 318 318 319 320 320 320 320 321 321 321 321 320 318 318 318 318 318 317 317 318 318 313 310 311 312 312 312 311 310 307 304 303 302 301 301 301 301 301 301 301
311 314 313 314 315 317 315 315 314 316 315 316 318 320 319 319 320 321 321 320 320 319 318 319 318 318 317 317 316 315 312 310 311 312 311 311 310 308 306 303 302 301 301 300 300 301 300 300 300
314 313 312 312 313 315 315 314 314 316 315 317 317 318 319 319 320 320 320 320 320 319 318 319 319 318 317 315 314 312 310 310 311 311 311 311 310 308 304 302 301 301 300 300 300 300 299 299 299
312 312 312 311 312 315 314 315 315 316 315 316 317 318 318 319 320 320 320 320 320 318 318 319 319 318 316 315 312 311 311 311 311 311 310 310 309 307 304 302 301 300 299 299 299 299 298 298 298
314 314 314 312 312 314 313 314 314 314 314 316 317 318 319 319 319 319 319 320 320 319 318 318 319 318 317 315 313 312 312 311 310 310 310 309 308 306 303 301 300 299 299 299 298 298 298 298 298
313 314 314 314 312 312 314 316 314 313 315 315 316 318 319 318 319 319 320 320 320 320 319 318 318 317 316 315 313 312 310 309 309 310 310 310 307 305 302 300 299 299 299 298 298 298 298 297 297
314 312 314 314 314 316 315 317 316 313 314 312 314 316 318 319 319 319 318 319 319 320 320 319 317 317 316 315 314 313 312 312 311 311 310 308 307 304 302 300 299 299 298 297 297 297 297 297 297
314 315 315 315 315 314 314 315 317 313 314 312 311 316 317 318 318 319 319 319 320 319 319 319 318 317 316 315 314 313 312 311 309 309 309 308 306 303 301 300 299 298 298 297 297 297 297 297 297
315 315 315 313 312 316 316 315 317 315 313 313 313 316 317 318 317 318 318 317 317 318 318 318 318 317 316 315 314 313 313 311 309 308 308 308 305 303 300 299 299 298 298 297 297 297 297 298 298
315 314 315 316 316 319 314 315 317 312 312 312 312 317 318 319 319 317 316 317 317 316 317 317 318 317 316 315 314 314 313 311 309 308 308 308 305 303 301 299 298 298 297 297 297 298 298 298 298
313 312 314 318 315 315 313 315 316 313 312 314 316 317 317 318 319 318 317 318 318 316 316 316 316 316 316 315 314 313 312 311 309 307 307 307 305 302 300 298 298 298 298 297 298 298 298 297 297
314 314 313 314 315 316 316 314 315 313 311 311 314 316 316 317 317 317 317 318 318 318 317 316 315 315 316 315 314 313 312 310 308 307 306 306 304 301 299 298 298 298 298 297 298 297 297 297 296
314 312 315 313 318 319 317 314 316 314 314 312 310 311 313 314 315 313 315 317 317 318 318 316 315 316 316 315 315 314 313 310 308 306 306 306 303 300 299 298 298 298 297 297 297 297 296 296 296
317 317 314 313 317 322 323 320 313 308 309 310 310 311 313 313 314 312 313 314 315 316 317 317 316 314 314 314 314 313 312 310 307 305 305 305 303 300 299 298 298 297 297 297 296 296 296 296 296
314 316 317 317 318 313 313 315 310 309 308 308 308 309 311 312 312 315 315 312 314 315 317 316 315 315 315 315 314 313 312 310 307 305 305 304 302 300 299 298 297 297 297 296 296 296 296 296 295

GFSSGP_850_thetae_018.txt.gz
Theta_e
329 333 336 342 351 348 349 348 344 345 344 342 344 344 343 342 343 346 339 346 340 334 341 332 341 341 338 336 338 344 340 332 332 328 330 331 336 336 341 344 343 344 342 340 341 342 342 338 333
331 334 337 345 349 349 347 346 346 344 341 341 344 342 342 340 342 348 346 344 344 343 344 343 334 344 341 343 339 339 334 329 327 326 325 325 324 325 326 327 330 337 340 342 343 342 342 342 338
332 334 342 343 345 347 345 343 345 341 340 341 342 339 340 337 336 344 347 343 347 346 344 334 329 346 346 340 335 331 326 318 315 313 312 312 313 315 319 323 325 328 331 334 338 343 342 342 341
331 335 336 344 346 343 342 341 343 342 338 336 338 337 334 335 338 344 343 347 349 345 343 327 325 345 343 337 332 323 318 316 313 311 311 311 310 310 310 311 315 323 327 328 331 335 339 341 342
331 336 343 345 345 341 339 338 341 343 338 336 334 336 335 332 333 341 345 348 348 343 342 334 322 341 343 337 331 321 318 314 313 312 313 313 312 311 311 310 310 310 311 316 325 329 331 334 338
332 336 342 342 342 339 335 336 340 341 338 333 332 333 334 332 333 343 346 347 343 340 339 340 323 338 342 337 329 321 314 312 313 313 313 313 312 311 311 310 310 310 309 309 310 314 322 327 333
329 333 335 339 341 341 338 334 339 340 338 335 332 335 333 329 332 343 346 343 339 338 338 338 343 338 340 335 326 318 312 312 313 313 312 311 311 310 310 309 309 308 308 309 309 309 311 315 322
333 330 331 333 335 337 335 334 336 338 338 332 330 334 331 329 330 342 345 342 340 339 337 337 340 343 340 333 324 315 312 312 313 313 312 311 311 311 311 310 308 307 308 308 308 309 309 310 311
329 330 331 331 332 331 332 333 329 331 335 329 329 330 328 326 332 342 343 340 339 339 338 337 337 338 338 333 325 314 311 312 313 313 312 312 312 312 312 310 309 307 308 308 308 308 309 310 311
327 327 326 329 330 330 330 330 330 327 330 329 329 327 327 326 336 340 340 339 338 339 338 338 336 335 335 330 327 315 311 312 313 313 313 313 313 313 313 312 310 308 307 307 307 306 306 307 309
325 322 324 323 325 328 329 328 327 327 331 329 330 330 325 327 335 337 337 337 336 336 338 336 335 333 333 332 328 317 311 312 313 313 313 313 313 313 314 313 311 308 306 306 306 306 306 305 305
324 322 323 323 324 326 325 325 326 326 327 327 327 327 327 325 332 334 335 335 335 336 337 331 335 332 330 327 331 321 311 312 312 313 313 313 313 312 313 313 311 308 306 305 305 305 305 305 304
323 322 322 322 322 323 323 324 324 324 324 325 324 324 324 325 327 331 332 333 334 335 337 336 331 330 328 322 329 323 311 311 312 312 313 313 313 312 313 314 312 310 306 305 304 304 304 304 304
321 320 320 320 321 322 323 322 322 322 322 323 323 323 324 324 325 326 330 332 333 334 336 336 332 325 325 320 324 323 314 311 312 312 312 313 313 312 312 313 312 310 307 304 304 304 303 303 303
320 321 321 320 321 322 322 323 323 322 321 321 321 321 322 323 324 324 326 329 331 333 334 335 332 323 323 319 318 320 317 312 311 312 311 312 312 312 312 313 312 311 307 304 303 303 303 302 302
320 319 320 322 321 322 321 321 322 321 320 320 320 320 320 321 322 322 323 325 328 330 333 334 331 323 321 319 319 318 316 314 312 312 312 311 311 312 312 312 312 311 307 304 303 303 302 302 302
321 317 319 319 318 320 322 321 320 319 318 318 318 318 318 319 319 320 321 322 324 326 329 332 332 324 323 320 320 319 318 316 313 313 318 317 311 311 312 312 312 310 307 303 302 302 301 301 301
316 316 317 318 318 318 318 318 319 317 318 318 318 318 318 318 318 318 319 320 321 323 325 329 332 326 324 323 321 321 320 319 318 318 319 317 311 311 311 311 311 309 306 303 302 301 301 301 301
316 316 317 318 318 318 318 318 319 318 318 318 318 318 318 318 318 318 320 320 320 321 322 324 328 326 325 324 323 322 321 320 319 319 318 316 311 310 311 311 311 309 306 303 302 301 301 301 301
317 317 317 317 317 317 318 319 320 320 320 319 319 318 319 319 319 319 318 319 319 319 321 321 323 326 325 323 321 321 320 320 319 319 317 314 311 310 310 310 310 308 306 303 301 301 300 300 300
318 318 318 318 318 319 320 322 323 322 319 319 319 319 319 319 319 320 320 320 319 319 319 320 320 321 323 321 323 323 318 317 318 318 316 314 311 310 310 310 309 308 305 303 301 300 300 303 300
319 318 317 318 320 322 320 323 322 322 321 320 320 320 319 318 317 316 316 316 317 318 318 318 319 319 320 320 321 321 321 319 319 318 317 314 311 309 310 309 308 307 305 302 301 300 299 299 302
318 318 318 318 320 321 321 322 321 322 321 320 319 317 316 316 316 315 315 315 316 315 316 317 317 317 318 317 319 320 320 319 318 317 316 313 310 309 309 309 308 306 304 302 301 300 299 298 301
316 318 319 319 320 321 321 322 321 321 319 320 318 315 313 312 312 312 313 313 314 315 316 315 316 316 316 315 315 318 319 318 315 315 315 313 310 309 309 308 308 306 304 302 300 299 298 299 300
319 321 320 321 323 322 320 320 320 320 318 316 314 312 310 309 309 310 311 311 312 313 315 314 315 316 315 315 314 314 316 317 315 315 316 314 310 309 309 309 307 306 304 301 300 299 298 298 300
319 319 319 318 317 318 318 319 319 319 319 315 314 312 308 307 308 308 309 310 311 313 314 314 313 315 314 313 313 312 313 314 314 314 316 314 312 311 310 309 307 305 303 301 299 298 298 298 299
318 318 317 320 319 318 317 318 318 317 317 310 310 310 306 306 307 307 308 310 311 312 313 313 312 313 313 313 312 311 311 312 312 312 314 314 312 311 310 309 307 305 302 300 299 298 298 298 300
311 310 309 311 309 312 313 313 314 313 309 308 307 306 306 306 307 308 309 310 310 311 313 314 312 310 311 311 311 310 310 310 311 311 311 314 312 310 309 308 306 304 301 300 299 298 299 301 301
306 308 309 310 311 311 312 311 310 306 305 305 306 306 306 307 308 309 309 309 310 311 312 314 313 310 309 309 309 309 309 309 309 310 309 312 311 310 308 307 306 303 301 300 299 299 299 299 299
306 309 306 307 306 306 307 307 305 304 304 305 306 307 307 307 307 308 308 309 309 310 311 313 313 312 309 308 308 308 308 308 308 308 308 309 310 309 308 306 305 302 300 299 299 300 299 299 298

GFSSGP_850_thetae_021.txt.gz
Theta_e
331 335 345 349 355 352 354 349 344 345 344 342 342 342 341 338 341 352 346 347 338 342 345 325 336 339 344 338 340 342 338 330 329 329 330 330 334 332 330 334 343 344 343 343 342 343 344 337 334
331 334 343 348 351 355 352 345 345 343 341 341 342 342 341 338 339 349 347 347 340 343 347 347 333 340 338 335 338 339 332 329 328 325 323 321 321 322 324 326 328 333 337 342 343 342 342 341 338
333 337 345 348 346 347 349 343 343 342 341 341 340 340 338 337 336 343 345 347 345 344 346 346 334 344 344 339 337 333 331 321 316 313 311 311 311 312 315 319 324 326 327 331 337 343 344 342 341
337 340 339 345 346 346 343 342 342 342 342 340 339 337 337 337 337 340 346 346 347 347 346 345 328 346 345 339 335 329 322 317 313 311 311 311 311 311 310 310 310 314 321 326 329 332 338 340 341
337 340 345 345 343 342 341 340 341 343 342 340 338 337 336 336 339 343 344 345 347 347 346 344 323 341 342 338 335 328 322 315 313 312 313 313 312 311 311 310 310 310 310 311 316 324 328 332 338
334 335 341 341 339 339 340 338 340 341 341 339 337 336 336 336 336 344 344 345 346 345 344 345 328 337 340 341 335 328 321 313 312 313 313 312 312 311 311 310 309 309 309 309 309 310 313 322 332
333 335 336 334 334 335 336 337 338 339 340 340 336 336 335 333 335 344 344 343 343 340 338 339 343 339 337 342 335 326 318 312 312 313 312 312 311 311 312 312 310 309 308 308 309 309 309 311 317
332 332 333 332 332 333 331 336 336 336 336 336 336 334 333 333 334 341 342 341 339 336 337 335 343 344 339 340 334 324 317 312 312 313 313 312 312 312 313 313 311 309 308 308 309 309 309 309 310
331 329 328 329 330 331 329 331 330 332 333 333 335 333 332 331 334 340 341 341 338 337 337 335 339 343 341 339 335 324 316 312 312 313 313 312 313 313 313 313 312 310 308 308 308 308 308 308 310
326 326 325 326 329 329 328 328 329 328 329 328 331 331 330 330 336 339 340 340 338 337 337 335 336 339 340 338 336 324 316 312 312 313 313 314 313 313 312 314 314 312 309 308 307 307 306 307 309
324 324 323 325 323 324 324 324 324 327 329 325 326 327 330 329 335 338 339 337 336 336 337 336 336 335 337 337 334 329 326 319 316 314 313 314 314 312 311 313 315 314 310 307 306 306 306 306 306
324 322 322 322 323 324 323 323 323 324 325 325 325 328 328 330 331 336 337 336 335 335 337 337 336 335 334 334 332 329 325 317 314 313 313 313 313 312 311 312 313 313 311 308 306 306 305 305 305
323 323 323 322 322 323 322 323 323 323 322 323 324 324 326 327 329 330 334 334 334 335 335 337 337 334 333 332 331 329 322 316 314 313 313 313 313 313 312 312 313 314 311 308 306 305 305 305 305
322 322 321 321 321 322 322 323 323 322 323 323 323 323 323 325 326 327 329 332 333 333 334 336 338 335 332 331 329 326 320 316 314 313 312 313 313 313 312 312 312 313 313 309 306 305 305 305 306
321 322 322 322 321 323 323 323 324 323 323 323 322 322 322 322 323 325 325 327 330 331 332 334 337 337 333 330 328 325 321 318 315 312 312 312 312 312 312 312 312 312 313 310 307 305 304 305 304
322 322 322 323 323 322 322 321 322 322 322 321 321 320 320 321 321 322 323 324 326 328 330 332 335 337 335 330 327 324 321 319 317 312 311 312 311 312 312 312 312 312 312 311 307 305 304 304 305
322 322 322 321 321 321 321 322 322 321 320 320 320 320 320 320 319 320 320 322 323 324 326 329 333 335 335 331 326 323 320 318 317 315 312 311 311 311 311 311 311 312 312 311 308 305 304 306 306
320 319 319 319 320 321 320 320 321 320 320 320 320 320 320 320 320 319 319 320 320 322 323 326 330 333 334 331 326 322 320 318 317 315 314 312 312 314 313 311 311 311 311 311 309 305 305 304 304
318 318 318 319 321 320 320 321 322 322 322 322 322 321 321 321 320 320 320 320 320 321 322 324 326 330 334 330 326 322 320 319 317 316 315 314 312 314 316 311 310 311 311 311 308 305 305 304 304
318 320 322 322 322 322 322 322 323 324 324 323 322 321 321 321 321 320 319 320 320 321 321 322 323 326 331 331 327 324 321 319 317 316 316 316 316 316 316 312 310 310 311 310 309 306 304 305 304
321 321 322 321 321 321 323 323 324 324 324 322 321 320 319 319 319 318 318 318 318 319 319 320 321 323 325 331 329 325 322 320 318 317 317 317 316 316 315 312 310 310 310 310 309 306 303 305 306
322 321 320 320 321 322 322 323 323 323 323 322 320 318 315 314 314 314 315 315 315 316 317 319 318 320 321 323 329 327 323 321 320 319 317 318 317 316 315 311 310 309 310 309 309 306 304 301 305
319 319 319 320 321 323 323 323 323 323 322 321 318 314 312 311 310 311 311 312 313 313 314 316 317 317 319 320 323 327 324 322 319 317 316 316 317 316 315 311 310 309 309 309 308 306 304 302 302
318 321 321 322 323 324 323 323 323 323 322 319 317 316 314 310 309 310 310 310 310 312 313 314 315 316 316 318 319 323 324 321 320 316 315 316 316 316 314 312 309 309 309 309 308 306 303 303 302
321 319 319 321 327 327 322 320 321 321 319 316 313 312 310 308 308 309 309 309 310 311 311 312 314 315 315 316 318 319 322 321 320 318 316 314 314 315 315 312 310 309 309 309 307 305 303 302 302
319 318 319 319 319 320 319 319 319 321 316 313 310 308 307 307 308 308 309 309 309 310 310 312 313 315 315 314 317 317 318 319 319 318 317 314 313 316 316 313 310 309 309 308 307 304 302 302 302
317 316 315 319 318 318 317 317 318 317 313 308 306 306 305 306 307 308 308 309 309 310 310 312 312 314 315 314 314 316 316 317 317 317 318 314 312 313 315 313 310 309 308 308 306 303 302 301 303
314 310 310 312 311 312 313 313 313 312 308 307 306 305 305 306 307 307 308 308 309 309 310 310 312 314 315 314 312 313 314 315 315 315 316 315 312 311 313 312 310 308 307 307 305 303 302 302 303
309 308 309 310 312 312 312 312 312 308 306 306 306 305 305 307 306 307 307 307 308 309 309 309 309 312 314 314 312 311 312 313 313 313 314 315 313 311 310 312 310 309 307 306 305 303 302 302 303
306 308 309 309 309 309 309 310 308 307 306 305 305 305 306 306 306 306 306 306 307 309 308 306 306 310 312 313 313 311 310 311 311 312 313 314 312 311 309 310 310 309 307 306 304 303 303 302 302

GFSSGP_850_thetae_024.txt.gz
Theta_e
333 338 345 350 358 357 352 351 344 346 344 340 341 339 338 339 340 355 343 342 339 343 332 319 330 335 339 331 331 331 329 328 328 329 330 330 332 328 326 332 341 342 342 343 341 342 341 336 343
333 338 343 350 356 355 351 345 347 344 340 340 340 338 338 337 340 346 347 343 341 344 343 325 331 336 337 333 332 334 330 328 324 321 317 315 316 318 320 324 326 329 337 342 341 342 341 340 338
333 339 344 352 353 351 351 343 344 342 341 340 339 339 336 337 336 346 347 343 341 344 347 345 326 334 337 336 334 332 330 321 316 312 311 310 310 310 310 313 318 323 327 330 334 338 340 341 340
338 342 340 348 349 346 344 342 342 342 342 340 339 337 337 336 336 341 345 344 342 345 346 345 332 330 341 340 335 331 325 321 314 312 311 311 311 311 311 310 310 310 312 319 325 329 332 335 339
337 341 349 348 347 342 341 339 339 341 342 341 339 338 337 336 338 344 344 345 346 347 347 346 333 330 332 340 337 331 323 319 314 312 312 312 312 311 311 310 310 310 310 310 310 314 321 328 335
335 335 342 340 337 335 334 337 337 339 339 340 338 337 337 336 331 341 344 345 345 347 347 346 337 322 330 339 337 332 325 318 312 312 313 312 312 312 312 312 310 309 309 309 309 309 310 316 328
337 340 339 337 336 334 333 334 337 336 335 337 338 337 336 335 336 341 343 343 345 345 345 344 340 327 337 339 340 333 326 318 312 312 313 312 312 313 312 313 312 310 309 309 309 309 309 310 313
332 338 335 334 334 335 332 330 333 331 332 332 336 337 333 334 334 342 342 342 343 341 340 338 341 338 329 335 341 334 326 317 312 312 313 312 313 313 312 313 314 312 310 309 309 309 309 309 309
330 333 330 329 331 333 329 328 327 329 332 331 329 334 333 334 335 341 341 340 340 338 336 335 340 341 336 329 339 335 325 317 312 312 313 313 313 314 311 312 314 314 312 309 309 309 308 309 309
328 333 329 327 327 327 325 325 326 325 327 327 326 327 332 331 334 338 340 340 339 337 336 336 336 342 341 341 336 336 326 320 312 312 313 312 314 314 311 311 313 314 314 311 308 308 308 308 309
325 329 327 324 323 323 324 324 323 323 325 327 327 325 328 331 333 337 339 340 339 337 337 336 335 338 340 341 339 337 331 320 312 312 313 314 314 313 312 310 312 314 314 314 310 308 307 307 306
325 324 323 323 323 323 324 323 323 322 323 324 323 323 325 329 331 335 338 338 338 336 336 336 335 336 337 339 339 335 333 329 317 315 313 314 314 313 313 311 311 312 314 313 311 309 307 307 307
323 323 324 324 323 322 322 323 323 323 323 323 323 323 324 326 326 330 332 336 337 336 335 336 335 336 335 336 337 335 329 327 322 316 313 313 313 313 313 312 311 311 313 314 312 309 307 307 306
322 323 322 321 321 321 322 323 323 323 323 323 323 323 323 323 324 324 328 329 333 334 335 335 336 334 335 334 334 334 331 327 323 316 313 313 313 313 313 312 312 311 312 313 313 310 307 306 306
323 322 322 322 322 323 322 322 322 322 323 324 323 322 322 322 322 323 324 325 327 330 333 334 335 336 333 334 333 333 331 328 320 316 315 312 312 313 313 313 312 311 311 312 313 311 307 306 305
321 321 323 324 323 323 321 322 323 322 321 321 321 320 320 320 320 320 321 323 324 325 328 331 333 334 337 333 333 331 330 326 321 316 315 313 312 312 312 312 312 312 311 312 313 312 308 306 306
323 321 323 323 322 322 322 321 321 321 320 320 320 320 320 320 320 320 321 320 321 323 324 326 329 333 335 336 334 331 329 328 323 318 316 315 311 311 312 312 311 311 311 311 312 312 310 307 306
320 319 318 318 319 320 321 320 320 321 321 322 322 321 321 321 320 320 320 320 320 321 321 323 324 329 334 335 335 332 329 327 324 320 317 317 313 311 311 311 311 311 311 311 311 312 311 307 306
317 317 318 320 322 322 322 322 321 321 322 323 324 321 319 318 317 316 316 318 319 320 321 321 322 324 328 335 336 335 328 324 322 320 318 316 315 313 311 311 311 312 311 311 311 311 311 309 305
320 321 321 322 323 320 320 320 321 322 323 320 319 316 315 314 313 313 313 314 314 315 317 320 320 321 322 327 334 335 332 325 322 320 318 316 315 314 312 311 312 313 312 310 311 311 311 308 306
321 321 322 321 321 320 321 322 323 321 320 317 314 312 311 310 310 311 311 311 311 312 313 314 317 319 319 321 328 334 331 326 323 320 319 318 315 315 314 313 313 314 312 310 310 311 311 308 306
320 320 320 320 320 321 320 321 321 321 319 316 314 313 311 309 309 310 310 310 310 310 311 311 312 312 314 317 319 326 332 328 325 322 321 319 316 315 315 314 315 314 312 310 310 310 310 307 305
319 320 320 321 321 321 322 323 322 321 319 317 316 312 308 308 309 309 309 309 309 309 310 310 310 312 311 308 313 318 319 330 328 324 321 319 317 315 315 315 315 314 312 311 310 310 310 309 304
319 321 319 318 319 323 322 323 322 321 318 312 310 308 307 307 308 308 308 308 308 309 310 310 311 312 312 312 312 312 317 319 328 325 323 320 318 316 315 315 315 314 313 311 310 310 310 309 306
320 318 319 322 326 327 320 319 321 316 311 308 307 307 306 305 307 307 307 307 308 308 309 310 310 311 312 314 315 314 314 316 320 327 325 321 318 316 314 315 314 314 312 311 309 309 309 308 306
315 317 319 320 320 321 318 318 320 312 308 307 306 306 306 305 307 307 307 307 307 307 308 309 310 310 310 312 315 315 313 314 316 321 324 323 319 316 315 315 315 314 311 310 309 309 309 307 305
316 315 311 315 316 316 316 317 315 309 307 306 306 306 305 305 307 307 306 306 307 306 307 308 309 308 307 309 312 315 314 312 313 316 322 322 320 317 315 314 314 313 311 309 309 308 308 307 305
313 312 310 311 311 312 312 311 311 307 306 306 306 305 305 305 306 306 305 306 305 306 307 308 308 307 306 306 310 312 313 312 311 313 316 320 320 319 315 313 313 312 310 309 308 308 308 307 304
309 308 309 309 308 309 312 311 309 306 306 306 306 305 304 305 306 306 306 305 305 304 306 306 305 305 306 306 308 310 311 312 310 311 312 317 318 317 315 312 312 312 310 309 308 308 308 306 303
307 306 307 311 310 309 307 308 307 306 306 306 306 304 305 305 305 305 306 305 304 306 304 304 305 305 306 306 307 307 310 311 311 309 310 312 315 314 315 312 311 312 310 308 308 308 308 306 304

GFSSGP_850_thetae_027.txt.gz
Theta_e
333 337 341 349 348 348 349 349 344 340 340 339 339 338 336 337 344 349 341 342 340 333 324 320 327 332 332 327 326 326 327 327 327 327 325 322 320 320 323 330 335 338 338 340 340 341 338 340 338
333 336 343 347 348 350 347 345 344 339 339 339 339 336 335 340 339 341 342 340 339 331 329 321 325 332 334 330 330 330 328 326 321 316 312 311 312 314 318 321 325 329 332 334 338 340 340 338 340
335 337 343 343 346 349 345 343 341 339 340 339 338 338 335 337 341 339 342 341 339 339 342 324 325 332 333 331 331 331 328 320 316 312 311 310 310 310 310 311 316 322 326 325 327 332 336 339 339
337 342 340 340 343 342 342 340 339 340 341 340 338 336 336 336 334 336 342 342 342 344 344 344 340 326 333 334 333 331 326 320 315 312 311 311 311 311 311 310 310 310 312 317 322 325 328 334 339
334 338 341 343 342 339 339 340 338 339 339 340 338 337 337 338 336 335 344 337 341 343 345 345 343 328 332 336 335 331 324 321 315 312 312 312 312 312 312 311 310 310 309 309 310 314 320 329 336
333 336 334 334 332 330 328 335 335 333 334 337 337 337 336 341 339 338 338 335 344 345 346 345 344 342 322 336 337 332 325 321 315 312 312 312 312 313 313 313 312 310 309 309 309 309 311 323 330
333 331 332 332 331 328 329 330 333 331 331 332 336 335 336 336 338 333 334 342 345 347 346 345 343 340 330 328 338 334 327 323 314 312 312 312 313 312 312 313 314 312 310 309 309 309 309 311 315
332 331 332 328 328 328 328 326 328 329 330 331 329 334 333 335 330 338 339 343 344 346 345 344 340 337 331 319 337 337 329 323 315 312 312 312 313 313 311 312 313 314 312 310 310 309 309 309 311
330 322 324 324 325 326 324 323 324 324 326 328 329 328 333 332 332 340 342 342 344 344 342 340 336 335 335 337 325 339 332 324 317 312 312 312 313 313 312 311 312 314 314 312 310 309 309 309 309
326 323 323 324 322 322 322 323 323 322 322 323 324 325 330 333 332 337 341 340 342 341 339 336 336 335 335 338 335 328 337 327 320 313 312 312 313 314 313 311 311 313 315 313 310 309 309 309 310
323 321 323 323 322 323 322 322 323 321 319 322 323 326 326 332 333 334 339 340 339 339 338 336 336 335 336 339 337 330 336 332 322 314 312 312 313 313 313 311 310 311 314 315 313 309 308 308 308
323 323 323 323 322 323 322 322 322 322 321 321 322 322 322 329 331 333 336 339 339 339 338 337 336 335 335 340 337 335 333 335 328 319 312 312 312 313 313 312 311 311 312 314 314 311 309 308 308
321 320 322 322 322 321 321 321 321 322 321 321 322 322 322 322 327 330 330 334 336 339 338 337 336 335 334 337 336 339 338 334 333 327 314 314 313 313 313 313 312 311 311 312 314 313 310 308 308
321 322 322 321 319 320 320 320 321 322 321 321 322 322 323 322 322 322 323 326 332 332 334 336 336 335 333 335 336 336 337 336 333 327 326 318 313 313 313 313 313 312 311 311 312 314 313 309 308
320 320 318 319 320 319 321 319 319 320 321 321 322 320 320 320 318 319 321 322 324 326 329 334 335 335 335 332 334 335 334 334 333 327 326 323 314 313 313 313 313 312 311 311 311 312 313 311 308
318 318 318 318 321 321 320 317 319 320 320 320 320 320 319 316 318 318 319 320 321 323 325 329 330 333 334 334 332 333 334 333 332 331 328 325 318 313 313 313 312 312 312 311 311 311 312 312 308
317 316 317 315 317 321 320 317 317 320 320 320 320 319 317 315 315 315 316 317 318 320 321 323 325 336 335 334 334 333 333 333 332 331 329 325 318 315 313 312 312 312 312 311 311 311 311 312 310
315 313 314 313 315 317 318 317 317 319 319 317 317 315 312 311 311 311 312 313 314 316 319 320 321 325 333 337 335 334 334 332 332 330 329 328 323 317 314 312 312 312 311 311 311 311 311 311 310
316 316 315 316 318 317 317 316 317 318 315 311 310 309 310 310 309 309 310 311 312 313 314 314 315 317 320 325 334 335 333 334 332 331 330 328 327 322 317 314 312 312 311 311 311 310 310 311 310
317 317 316 317 319 318 316 317 316 313 311 310 309 308 309 309 309 309 309 310 310 310 311 311 312 311 311 312 315 322 331 329 332 333 330 327 326 324 320 316 312 311 311 310 311 311 310 310 310
318 318 317 318 317 317 317 316 317 313 312 310 308 308 308 308 307 307 307 307 308 308 309 310 310 310 310 310 310 312 323 327 325 326 326 325 324 324 323 320 315 312 311 310 311 311 310 310 310
316 318 318 318 317 316 316 317 316 313 312 310 306 307 308 307 307 307 306 306 307 306 307 309 310 309 309 309 309 311 312 312 316 322 322 325 325 323 322 321 318 315 312 311 312 311 310 310 310
316 317 317 318 317 318 318 318 316 314 309 305 304 305 305 307 307 307 306 306 305 307 307 308 309 310 310 310 310 313 315 315 312 315 320 323 322 322 321 321 319 316 315 313 312 311 310 310 310
317 317 313 313 314 317 317 319 317 312 306 304 304 305 305 304 307 307 306 305 305 306 306 306 306 308 309 309 310 312 314 315 315 313 314 319 324 321 320 319 319 317 316 315 313 311 310 309 309
312 311 313 315 318 319 316 315 311 305 304 304 304 305 305 304 307 306 306 305 305 306 304 306 306 308 309 308 307 307 310 313 314 314 313 313 320 323 321 319 318 318 318 317 314 312 310 309 309
312 313 314 318 317 317 314 312 310 304 305 305 305 305 304 304 306 306 305 305 305 305 304 304 306 308 306 306 306 305 306 308 310 312 313 311 312 321 322 321 319 319 319 317 315 313 310 309 309
312 310 308 310 312 312 313 310 307 304 304 304 305 305 304 304 305 305 305 305 305 305 304 305 305 305 305 306 305 305 306 306 306 308 310 312 310 313 320 323 321 319 318 317 315 313 311 309 308
310 310 309 305 307 307 307 308 310 304 303 304 304 304 304 304 305 305 305 304 304 304 304 305 304 304 303 304 305 306 307 306 306 306 307 309 310 310 317 320 320 318 317 317 315 312 310 308 308
305 305 305 305 304 305 306 306 302 303 304 304 304 304 304 305 305 304 304 303 303 304 304 303 303 302 304 304 306 306 307 307 307 308 309 311 309 309 313 318 319 317 316 316 315 311 310 308 308
306 305 304 302 306 304 301 305 303 304 305 304 304 304 304 305 304 304 303 303 304 304 304 304 303 303 304 305 305 305 304 306 307 308 308 307 309 308 309 312 317 316 315 315 314 311 309 308 307

GFSSGP_850_thetae_030.txt.gz
Theta_e
332 337 340 350 344 346 348 347 344 340 338 338 338 337 336 337 339 334 333 336 337 331 328 329 331 332 329 326 326 326 326 326 326 326 321 317 317 318 323 329 328 330 336 338 339 338 339 335 334
335 339 345 347 344 348 343 343 343 338 338 339 338 336 335 338 336 334 333 332 337 335 325 321 325 331 330 327 327 327 327 326 322 316 312 311 312 316 319 323 325 323 326 332 337 338 338 337 336
336 338 341 341 344 345 344 341 340 338 339 339 338 338 335 336 336 335 333 330 333 336 331 329 322 332 331 329 329 328 326 320 316 312 310 310 310 310 311 316 319 320 321 323 328 334 337 338 337
335 342 339 338 343 340 341 338 339 339 340 339 337 335 335 335 334 334 332 333 333 335 339 328 325 330 333 331 331 329 326 321 315 312 311 311 311 311 311 310 310 311 315 317 321 326 333 337 337
334 338 337 339 337 335 332 337 338 335 335 338 337 335 336 335 335 332 331 334 333 333 338 341 343 340 328 334 333 331 326 322 316 313 311 312 312 313 312 311 310 310 310 310 312 318 326 335 337
332 333 332 333 331 329 326 326 332 331 331 335 337 335 336 337 337 331 338 335 334 335 340 343 343 343 337 332 336 333 326 322 317 313 312 312 312 312 312 313 312 310 310 309 309 310 319 332 336
331 328 330 331 330 326 328 327 328 326 327 330 333 333 336 338 336 330 337 335 337 341 344 345 345 341 339 333 329 336 329 323 317 313 312 312 312 312 312 312 313 312 310 310 309 309 310 313 323
332 328 330 326 325 323 325 323 324 323 326 329 329 331 334 334 337 337 337 340 343 343 345 346 345 343 333 330 325 334 333 325 319 313 312 312 312 312 311 311 313 313 312 310 310 309 309 311 314
330 318 322 322 322 322 322 321 322 321 321 321 325 325 325 330 336 341 341 345 344 344 345 346 344 341 333 333 334 326 336 329 322 314 312 312 312 312 311 311 312 313 313 311 310 309 309 309 311
325 319 318 320 321 320 321 322 321 321 321 320 321 322 325 329 334 337 341 342 343 343 344 343 341 337 335 333 336 336 326 335 326 318 313 312 312 313 312 311 311 313 314 313 311 309 309 309 310
323 319 319 322 322 323 322 321 322 321 318 320 320 320 321 329 332 335 339 339 338 338 342 341 338 336 335 333 333 337 335 327 334 324 314 312 312 312 313 311 310 311 313 314 313 310 309 309 310
321 322 322 322 322 322 321 322 321 321 320 320 321 321 321 322 330 334 337 337 340 340 340 339 338 337 335 335 333 335 336 333 331 332 320 313 312 312 313 313 311 310 311 313 313 312 310 308 308
319 319 321 321 321 320 319 319 319 320 321 321 320 321 319 319 323 330 332 336 339 339 339 339 339 338 336 335 334 334 334 334 332 331 331 321 314 312 313 313 312 310 311 311 313 313 312 309 307
319 320 320 320 319 319 318 318 320 320 320 320 321 316 317 317 318 319 321 324 329 333 337 336 337 338 337 336 334 333 332 332 334 332 330 328 326 316 313 313 312 311 311 311 311 312 312 310 308
319 317 315 318 320 319 320 318 319 320 319 320 315 316 316 314 316 314 314 316 318 321 326 330 331 335 337 336 335 334 333 333 334 332 331 330 327 324 322 313 313 312 311 311 311 311 312 312 309
316 315 316 316 316 321 319 317 317 319 318 316 315 313 311 310 311 312 312 313 315 319 321 323 326 334 334 336 337 339 338 334 334 334 333 332 330 328 325 321 314 312 312 311 311 311 311 311 311
312 315 315 313 314 317 319 316 316 317 317 312 311 310 309 309 310 310 311 312 312 313 316 319 323 327 332 333 333 335 337 338 337 335 333 332 331 329 328 324 318 313 312 312 311 311 310 310 311
315 313 313 313 314 316 316 315 310 312 311 309 309 309 309 308 308 308 309 309 310 311 311 312 314 317 321 326 328 332 333 333 335 334 333 332 331 330 328 327 324 317 313 312 311 311 310 310 310
315 315 315 314 316 316 316 312 310 308 308 307 308 308 307 307 306 306 306 306 306 307 308 309 310 311 312 312 314 318 323 329 330 330 329 328 330 330 328 325 325 320 316 313 312 311 310 310 309
317 317 315 315 317 317 315 311 310 308 308 307 307 307 307 306 306 306 306 305 305 304 305 306 307 308 309 309 310 310 311 318 321 326 327 323 324 326 325 327 325 322 319 316 312 311 311 310 309
316 317 317 316 316 315 315 314 311 310 306 305 307 307 307 306 306 306 306 305 305 304 304 304 306 307 308 308 308 309 311 312 313 316 319 322 323 319 323 324 323 323 320 318 315 312 311 310 309
316 317 317 317 316 315 315 314 313 309 304 303 304 305 306 306 306 306 305 305 305 305 303 304 304 306 308 309 308 309 310 311 312 313 313 313 319 320 318 319 322 321 321 319 318 314 311 310 310
316 316 316 317 316 317 316 316 314 306 304 303 303 304 304 306 306 306 305 304 305 304 304 304 303 306 308 308 308 307 307 306 307 311 312 313 312 314 320 319 318 319 320 321 319 316 313 311 311
314 313 310 312 313 314 314 316 314 305 304 303 304 304 304 304 306 305 305 304 304 304 304 302 303 306 307 306 306 305 305 305 305 305 307 309 310 312 313 317 319 317 318 319 320 319 315 312 311
310 310 311 313 314 314 314 312 309 302 303 304 304 305 304 304 306 305 305 305 304 304 303 303 302 304 306 306 306 305 305 305 305 305 305 305 305 306 310 311 315 318 317 318 318 318 317 315 312
311 311 310 310 312 314 312 310 305 303 304 304 304 304 304 304 305 305 305 304 304 303 304 304 303 304 305 304 303 302 304 305 306 307 306 306 305 307 307 310 310 314 317 316 318 320 319 316 314
310 309 309 309 308 309 310 305 303 302 303 303 304 304 303 304 305 305 304 304 303 303 304 304 304 304 304 303 303 302 305 306 305 306 306 306 305 308 307 310 309 311 315 317 317 318 319 318 315
309 309 310 305 307 307 305 306 306 302 303 302 303 303 303 303 304 304 304 304 303 303 303 303 304 304 303 303 302 301 302 304 304 304 305 306 307 306 305 308 309 310 314 315 316 317 318 317 316
304 304 304 304 303 304 303 304 302 302 303 302 303 303 303 303 304 304 304 304 303 304 304 304 304 304 303 303 303 303 301 301 304 303 304 307 307 305 306 306 308 309 311 313 314 316 316 317 316
304 304 301 301 303 303 299 303 302 301 303 303 303 303 302 304 304 304 303 303 303 303 303 304 303 302 302 303 302 300 300 302 303 302 304 304 304 305 305 307 306 309 310 311 312 313 315 316 315

GFSSGP_850_thetae_033.txt.gz
Theta_e
334 338 338 346 342 341 345 345 342 340 337 338 336 336 336 336 334 331 331 334 331 327 331 328 331 332 330 326 326 325 325 326 326 325 322 317 316 319 326 325 328 333 337 337 337 337 334 334 333
335 336 344 345 343 344 340 341 342 338 337 337 336 336 335 335 333 332 331 331 332 330 326 327 329 332 330 325 325 324 325 325 324 320 314 312 314 317 320 322 323 326 331 335 336 337 336 334 336
335 340 340 339 342 342 342 338 338 338 338 337 337 335 335 335 335 334 327 328 329 332 325 322 322 331 331 327 327 327 326 323 319 313 311 310 311 312 316 318 318 320 324 329 334 336 336 334 335
334 341 339 337 340 338 340 336 338 338 339 338 336 335 334 336 335 332 329 330 329 332 331 335 321 331 333 330 330 329 326 320 316 312 310 310 310 310 310 311 313 314 318 321 326 333 335 336 335
333 336 332 332 333 331 326 326 334 333 333 335 337 334 335 335 335 333 329 331 330 330 333 335 330 334 329 333 331 331 328 320 316 313 311 311 311 311 311 310 310 310 311 314 321 328 334 335 336
332 331 327 328 329 327 325 324 330 326 329 333 336 335 336 336 335 335 331 331 331 331 333 337 338 339 340 330 332 333 330 321 317 314 312 311 312 312 312 311 310 309 309 309 312 321 331 334 335
330 325 328 330 328 323 326 323 324 322 322 328 331 332 334 335 337 337 334 333 332 335 338 337 340 342 339 337 331 332 332 324 319 314 312 311 312 311 311 312 311 310 309 309 309 311 342 337 337
331 325 329 326 323 320 323 321 323 321 320 321 326 327 330 327 337 340 340 336 336 338 339 342 344 344 342 334 329 328 332 331 324 317 312 311 311 311 311 311 312 312 310 309 309 309 312 319 332
328 317 320 322 321 320 321 319 321 321 320 319 320 320 324 324 337 342 340 340 340 341 342 343 344 345 342 336 330 331 325 332 329 322 314 312 311 311 311 311 312 312 311 310 309 309 309 311 315
322 313 314 317 320 320 320 320 321 321 319 318 319 320 320 322 333 338 338 338 340 341 341 341 344 344 342 336 330 328 332 330 331 328 319 313 311 311 312 311 311 312 312 311 310 309 309 309 311
322 318 318 321 322 322 321 320 321 320 317 319 319 319 320 320 335 343 343 341 342 344 342 339 340 341 341 336 333 331 329 331 330 329 327 317 313 311 312 312 310 311 312 312 311 309 308 309 310
321 321 321 321 321 320 320 320 320 320 319 318 318 318 319 320 329 337 339 339 340 340 342 345 345 343 341 338 335 334 332 332 331 328 329 332 324 315 312 313 311 310 311 311 311 310 309 308 309
318 318 320 320 320 319 319 318 318 319 315 315 316 317 316 316 316 320 324 327 332 336 337 338 343 345 343 340 336 335 333 333 333 331 330 326 324 330 321 313 313 312 310 311 311 312 311 309 308
318 318 318 318 318 318 317 318 319 317 315 315 315 313 313 314 314 316 317 317 320 321 325 329 335 337 338 341 339 337 337 337 337 335 333 331 329 327 326 318 313 313 312 310 310 311 311 310 308
318 315 314 317 315 318 318 317 317 314 315 312 310 310 311 311 312 312 312 312 314 317 319 324 327 329 332 335 338 339 339 338 338 337 336 334 332 330 326 324 323 316 312 312 311 310 310 310 309
315 313 314 315 315 317 318 316 311 314 313 309 309 309 309 308 309 310 311 311 312 313 314 316 321 328 331 333 338 339 340 340 340 339 338 336 334 332 329 328 327 322 316 312 312 311 310 310 310
311 314 314 312 314 316 316 314 308 310 309 308 307 307 307 307 306 306 306 307 308 309 310 311 312 314 323 326 326 332 334 336 337 338 338 338 335 331 330 330 329 323 319 316 312 312 311 310 310
315 313 313 312 313 315 311 309 307 307 308 307 306 306 306 306 306 305 305 305 305 305 306 307 307 309 310 311 315 318 326 328 331 333 334 337 336 332 328 327 329 323 320 319 316 313 312 311 310
314 314 314 313 315 314 309 308 307 306 306 306 306 306 306 306 305 305 305 305 305 304 304 304 305 305 306 307 309 310 311 319 322 325 328 330 330 330 328 325 322 326 321 320 319 315 312 311 310
316 315 314 314 315 315 309 308 307 307 306 306 306 306 306 306 305 305 304 304 304 303 303 303 303 304 305 306 307 307 308 310 312 314 318 321 322 323 321 319 317 317 319 321 319 317 316 312 311
315 315 315 315 315 312 309 310 307 305 304 305 306 306 306 306 305 305 304 304 304 304 303 303 302 302 305 306 306 306 306 306 306 308 310 312 314 316 320 320 318 314 314 322 321 319 318 316 312
315 315 316 316 315 314 314 314 308 305 303 302 303 304 306 306 306 305 304 304 304 304 303 303 303 303 302 305 306 306 306 305 305 305 304 305 309 311 313 314 318 315 313 313 315 319 320 318 314
315 315 315 316 315 315 314 314 311 302 304 303 303 304 303 305 306 305 304 304 304 304 303 303 303 303 302 302 304 306 305 303 304 305 304 304 304 305 308 310 312 315 318 315 313 314 318 319 316
311 311 309 311 311 313 311 315 311 306 302 303 303 304 304 303 304 305 305 304 304 304 303 303 303 303 302 302 303 304 302 302 303 304 307 306 305 304 304 304 305 309 311 315 318 315 314 317 317
309 307 307 309 313 312 312 312 308 302 301 303 303 304 304 304 304 305 305 304 304 304 303 303 303 303 303 303 303 303 303 302 305 306 306 305 306 306 305 304 305 307 309 310 312 318 316 314 316
310 309 307 309 308 310 310 309 305 302 303 304 304 303 303 303 304 305 305 304 304 303 303 303 303 303 303 303 303 303 303 302 301 303 304 304 303 304 305 306 305 305 308 309 310 312 316 315 314
308 308 308 308 306 306 307 307 302 301 302 303 303 303 303 303 304 305 304 304 304 303 303 303 303 303 303 303 302 302 303 302 302 300 299 303 302 304 306 306 305 305 306 309 309 311 313 316 315
308 306 309 303 306 306 303 303 306 301 301 301 300 302 302 303 303 304 304 304 303 303 303 303 303 303 303 303 303 302 303 303 301 300 300 303 302 304 305 304 305 303 306 307 309 311 313 314 315
303 304 303 303 302 304 303 303 301 300 301 301 301 302 303 303 304 304 304 304 303 302 301 302 302 303 303 303 302 301 301 300 299 299 298 299 301 303 302 303 304 304 305 305 308 309 311 312 312
303 303 301 302 303 301 298 302 302 300 302 302 302 302 303 303 303 303 302 302 302 301 301 302 303 303 302 302 301 300 298 298 299 300 299 301 302 303 303 302 302 303 305 306 304 308 310 310 310

GFSSGP_850_thetae_036.txt.gz
Theta_e
335 336 339 345 340 337 341 343 341 340 337 336 335 334 334 334 332 328 331 332 331 328 327 327 330 329 327 328 330 327 325 325 325 326 323 320 318 324 326 326 333 340 338 336 337 334 333 332 332
334 336 341 343 340 340 340 337 341 338 336 336 335 335 335 334 333 332 329 328 329 326 326 326 330 331 330 327 327 324 324 324 325 323 317 314 315 318 323 326 327 332 335 336 336 337 334 334 336
334 341 338 336 338 337 338 336 336 337 337 337 336 335 334 334 335 333 328 328 328 328 323 324 326 331 331 326 324 324 325 325 322 317 312 311 312 316 319 322 322 325 336 337 335 337 335 339 337
333 339 337 333 336 335 337 329 334 336 338 337 335 334 334 335 335 333 328 327 328 330 326 323 321 328 331 327 326 326 326 322 319 313 310 310 310 310 314 317 318 322 324 330 333 335 339 339 339
333 333 325 328 329 328 326 324 327 328 330 332 335 333 335 335 335 334 330 328 328 329 331 335 322 327 328 330 329 329 327 321 318 313 311 311 311 310 310 310 311 312 316 321 325 333 340 337 337
331 328 322 324 326 325 323 321 327 321 323 327 330 333 334 335 336 335 333 331 330 331 332 334 336 339 339 338 329 331 330 326 320 315 312 311 311 312 311 311 310 309 309 311 321 327 337 335 336
329 322 325 328 326 322 324 321 322 320 318 325 324 329 331 326 332 336 334 334 332 333 336 336 337 340 340 337 333 331 331 331 323 318 313 311 311 311 311 311 311 310 309 309 310 323 336 338 335
330 323 327 325 322 319 321 320 321 320 318 319 319 324 323 320 326 339 337 336 335 336 337 339 341 343 343 339 329 327 326 331 329 322 316 312 311 311 311 311 311 311 310 309 309 310 340 339 338
326 315 318 321 321 319 319 319 320 320 320 318 318 317 318 322 331 341 340 339 338 338 339 340 341 343 344 341 334 328 327 325 324 330 324 316 312 311 312 311 311 311 311 310 309 309 310 316 316
319 312 314 316 318 319 320 319 320 320 318 317 317 319 319 320 339 342 341 341 340 339 340 341 343 344 344 343 337 330 329 329 328 324 330 326 317 312 311 312 311 311 311 311 310 309 309 309 312
320 317 317 320 321 320 319 319 320 318 315 312 313 316 318 321 337 342 340 340 340 341 342 342 343 344 344 344 342 336 332 331 331 328 323 330 329 321 315 312 312 311 311 311 311 310 309 309 310
321 320 320 321 320 319 318 319 313 313 311 312 314 315 317 319 325 327 333 334 336 337 339 340 343 344 344 344 344 340 336 334 334 334 329 328 328 329 322 314 312 312 311 310 311 311 310 309 309
317 317 319 319 317 317 317 315 312 311 311 312 313 314 313 314 314 315 316 318 322 324 329 334 338 339 339 344 345 343 339 336 336 336 333 331 330 327 322 320 315 313 312 311 310 311 311 310 309
317 317 316 316 316 318 317 315 315 311 310 312 312 311 311 312 311 312 314 314 316 318 321 324 327 331 335 338 342 344 343 339 337 337 336 334 333 329 326 323 318 315 313 312 311 310 310 311 310
317 314 313 314 314 317 316 312 309 310 309 309 308 308 309 309 310 309 309 310 311 312 315 319 324 328 329 336 342 344 343 343 340 339 338 338 336 334 331 327 322 320 317 313 312 311 310 310 310
314 311 313 313 316 316 316 313 307 308 309 307 307 306 306 305 305 306 306 307 307 308 310 311 315 322 326 326 329 335 337 338 341 341 340 340 339 337 335 332 329 324 322 318 315 312 311 311 310
309 313 313 312 314 315 313 311 306 307 306 306 306 306 305 305 305 305 305 305 305 305 305 306 307 309 311 314 316 322 325 329 332 335 337 339 338 338 336 333 330 326 324 323 319 315 312 311 311
313 313 313 312 313 309 307 306 306 306 305 305 306 306 305 305 305 305 304 304 304 304 303 303 303 304 305 307 309 312 316 318 320 324 328 332 334 335 336 335 330 325 322 320 320 320 316 313 312
313 313 313 312 313 308 307 306 306 305 305 305 305 305 305 305 304 304 304 304 304 304 304 303 303 303 303 303 303 305 306 309 312 314 316 319 324 327 331 334 331 327 324 321 318 317 316 317 314
315 315 313 313 314 308 307 307 306 306 305 305 305 305 305 305 304 304 304 304 304 304 304 303 303 303 303 303 303 302 303 304 305 306 307 310 313 316 320 322 326 327 322 322 319 317 315 317 316
314 314 314 315 313 308 306 308 305 304 304 305 305 305 305 305 305 304 304 304 304 304 303 303 303 303 302 302 302 302 302 302 303 304 304 304 304 306 310 313 317 323 320 317 317 315 314 314 316
315 313 315 315 315 312 310 311 306 303 302 302 303 303 304 305 306 305 304 304 304 304 303 303 303 303 302 302 302 303 304 303 302 301 302 304 304 303 304 305 308 312 315 317 318 313 314 313 313
314 312 313 314 314 313 312 314 310 301 302 302 303 303 303 303 303 305 305 304 304 304 303 303 303 303 303 302 302 302 303 303 302 302 302 305 306 305 304 304 304 304 306 311 314 315 313 312 312
310 311 308 309 309 311 310 312 310 302 301 302 303 303 303 304 304 304 305 304 304 304 303 303 303 303 302 302 302 302 302 302 302 302 301 304 305 305 304 303 304 304 304 305 307 311 313 316 314
308 304 306 307 310 312 310 312 308 303 300 302 303 303 304 303 303 304 304 304 304 304 303 303 303 303 303 303 302 302 303 302 302 302 302 300 300 301 302 301 303 304 304 304 305 307 309 311 314
309 308 306 308 306 306 307 309 307 300 303 303 303 303 303 303 303 304 304 304 304 304 303 303 303 303 303 303 303 303 303 302 302 303 302 301 300 300 302 301 303 306 304 303 303 305 308 309 310
307 306 307 306 305 304 304 305 303 301 300 302 302 302 302 303 303 303 303 303 304 303 303 302 302 301 301 302 302 303 303 302 302 302 302 301 299 299 301 302 307 305 304 303 303 305 307 308 309
307 305 306 302 306 305 302 302 305 300 299 299 301 302 302 303 303 303 302 302 301 301 300 300 300 300 301 302 302 302 302 302 301 301 299 298 300 299 300 302 302 302 303 303 302 305 305 308 309
302 304 303 302 302 305 303 303 300 301 300 299 301 302 302 302 303 302 301 301 300 300 300 300 300 301 300 301 300 300 301 301 301 301 298 299 299 299 298 301 302 302 302 301 301 303 305 305 308
303 303 301 303 303 299 298 302 300 299 300 302 301 302 302 302 302 301 300 300 300 300 300 300 300 300 301 299 301 300 300 300 301 300 299 299 299 299 300 301 301 301 302 301 304 305 305 303 303

GFSSGP_850_thetae_039.txt.gz
Theta_e
335 336 339 345 346 345 345 346 343 343 339 335 335 334 335 333 330 332 329 329 329 327 325 327 327 326 325 328 334 328 325 325 325 325 321 319 325 340 330 333 342 340 339 342 342 334 333 331 331
334 339 341 340 342 348 345 339 342 340 336 335 335 334 334 335 333 332 328 327 328 328 327 327 329 328 327 327 327 325 323 324 326 325 318 315 316 320 324 340 340 340 340 339 341 338 334 335 336
333 340 338 341 339 337 337 334 334 337 336 336 336 334 333 334 336 333 328 327 327 327 328 326 328 329 328 325 324 323 323 324 324 320 314 311 313 315 320 329 336 336 340 337 340 341 338 340 339
332 337 334 337 335 336 336 332 326 332 334 334 334 335 334 335 337 333 329 327 328 328 327 325 323 328 328 325 323 323 325 324 321 316 311 310 310 311 316 320 323 339 334 339 337 339 338 339 338
332 331 330 332 330 330 328 323 324 326 325 326 334 335 333 335 337 335 331 328 328 327 328 330 323 327 329 330 328 327 327 324 320 316 312 310 310 310 310 311 312 313 318 325 326 336 339 337 338
330 325 329 328 327 326 324 320 323 319 318 322 324 331 332 321 332 338 334 330 330 330 329 331 334 337 336 334 333 329 330 329 322 318 314 311 311 311 311 311 310 310 310 312 321 331 337 335 336
330 329 329 328 327 322 324 320 321 319 318 320 321 328 327 321 323 338 337 335 333 334 335 336 337 337 335 334 327 327 329 329 330 323 318 313 311 311 311 311 311 310 309 309 313 327 334 337 334
328 327 328 326 325 321 320 320 320 320 320 318 319 318 323 320 327 339 340 338 336 336 338 339 340 342 342 340 333 328 325 325 328 330 324 319 313 311 312 311 311 311 311 310 309 314 319 337 337
323 325 323 322 322 320 319 320 320 319 318 316 315 316 319 324 337 341 341 340 340 338 339 340 341 342 343 341 340 332 330 329 328 330 328 323 318 313 311 311 311 311 311 311 310 309 310 330 330
318 321 317 317 318 320 319 319 318 319 315 315 314 316 324 335 340 341 341 341 341 340 340 341 341 342 343 343 343 340 332 330 330 330 329 328 321 314 312 311 311 311 311 311 312 311 309 309 311
320 321 317 319 320 319 318 315 315 315 315 311 310 312 319 329 336 338 338 339 340 340 340 340 341 341 342 343 343 343 341 334 332 333 332 328 328 321 316 312 311 312 311 311 311 311 311 310 309
321 319 319 319 319 316 317 314 312 311 310 310 310 311 313 317 321 323 326 328 330 334 337 339 340 340 341 343 343 344 344 341 336 334 334 332 328 327 324 318 313 312 312 311 310 311 311 311 310
318 317 318 317 316 315 315 312 311 309 309 309 311 312 312 312 313 314 315 316 318 320 322 325 329 333 336 340 344 347 345 344 342 338 336 335 333 330 328 325 320 315 313 312 310 310 310 311 311
317 317 315 315 316 315 313 310 312 309 308 309 311 310 310 310 310 311 312 312 313 314 317 320 322 325 327 332 344 343 344 346 343 342 339 337 337 334 332 329 327 324 317 314 313 311 310 310 310
317 316 314 313 315 315 313 313 310 308 307 308 308 307 307 307 307 306 306 307 307 308 310 314 317 322 325 327 329 337 337 338 340 340 340 341 339 338 336 334 329 325 323 321 317 313 311 310 310
314 313 317 313 315 315 315 315 308 307 306 306 305 305 305 305 305 304 304 304 304 304 305 306 308 309 312 316 321 326 328 332 335 337 337 337 340 339 337 336 334 330 321 320 321 318 315 313 311
313 316 314 314 312 314 314 312 307 306 305 305 305 305 305 305 304 304 304 304 304 304 304 304 304 304 304 306 309 313 317 320 323 326 329 332 335 337 337 336 336 334 328 319 320 320 318 315 314
314 315 313 314 314 312 311 308 306 305 305 305 305 305 305 304 304 304 304 304 304 304 304 304 304 304 304 304 303 303 304 307 311 315 318 321 324 327 330 332 333 334 333 326 320 320 319 318 315
313 314 314 313 313 311 309 308 307 305 304 305 305 305 305 304 304 304 304 304 304 304 303 303 303 303 303 303 303 303 303 303 302 304 306 308 312 316 318 321 324 328 333 331 324 320 319 317 316
315 315 315 313 313 312 308 308 307 306 305 305 305 305 305 305 304 304 304 304 304 304 303 303 303 303 303 303 302 302 301 302 302 302 302 303 304 305 307 311 314 318 321 327 327 323 320 318 317
314 314 314 315 313 308 308 310 307 306 305 305 305 305 305 305 305 305 304 304 304 304 303 303 303 303 303 302 302 302 302 302 301 301 301 301 301 303 304 304 305 307 311 317 320 320 321 319 316
316 313 315 315 316 317 310 314 308 304 304 303 303 303 303 304 304 304 305 304 304 304 303 303 303 303 303 303 302 302 302 302 302 301 301 301 302 302 303 304 304 304 304 306 310 315 317 314 314
316 311 312 314 315 314 313 316 314 304 304 303 303 303 303 303 304 304 303 304 304 304 304 303 303 303 303 303 303 302 303 302 302 302 302 302 301 301 301 302 303 303 304 304 304 307 311 313 313
310 310 309 311 312 314 311 316 316 305 305 303 303 303 303 304 304 303 304 304 304 304 304 303 303 303 302 302 303 303 303 302 302 302 302 302 302 301 300 299 299 301 302 304 304 304 305 308 310
309 307 311 312 312 315 311 314 316 306 303 304 303 303 303 303 303 303 303 304 304 304 303 303 302 301 300 301 301 301 302 302 302 302 302 302 302 302 301 300 299 299 300 304 305 304 303 304 307
310 308 311 311 310 309 307 313 313 304 302 303 303 303 303 303 303 303 303 303 303 303 302 300 299 300 300 299 300 300 301 302 302 302 302 302 302 302 300 299 299 299 299 302 305 303 303 303 304
308 309 308 307 305 307 308 307 306 302 301 301 302 302 303 303 303 302 302 302 301 300 299 298 298 298 299 299 299 300 300 301 300 301 301 301 301 301 298 299 300 299 300 305 305 302 302 302 304
306 305 307 306 309 308 307 305 309 303 303 302 302 302 302 302 302 302 302 301 300 299 298 297 298 297 297 296 297 299 300 300 299 301 301 299 300 301 299 299 299 299 302 304 303 302 302 301 303
305 306 304 305 306 309 308 309 303 305 304 303 302 302 302 302 302 302 301 300 299 298 297 297 297 297 297 297 296 298 298 299 299 300 299 300 300 300 299 298 299 299 300 302 302 302 301 301 303
302 303 304 309 306 302 303 308 303 302 301 301 302 302 302 302 302 301 300 300 299 297 297 297 297 296 296 296 297 298 298 299 299 298 299 300 299 299 299 298 299 298 301 301 301 301 301 303 305

GFSSGP_850_thetae_042.txt.gz
Theta_e
334 338 341 348 349 346 349 348 345 342 339 338 337 337 336 335 335 337 328 329 329 329 331 327 325 324 327 335 343 336 329 328 327 325 320 320 339 339 333 338 342 339 341 342 341 333 333 332 332
334 339 340 344 347 348 347 343 344 342 339 338 337 337 336 338 338 337 336 329 328 330 340 344 327 326 325 330 333 327 324 325 328 324 316 315 318 323 334 339 340 341 339 341 342 336 342 341 335
333 339 342 338 339 344 344 340 342 340 337 337 335 336 336 339 341 339 329 327 331 335 340 334 329 328 328 325 324 324 324 325 326 320 313 311 313 316 321 333 337 339 339 336 341 337 341 339 339
332 341 337 336 337 339 337 333 331 336 332 335 335 335 337 337 343 342 330 328 339 342 338 324 326 328 328 326 323 323 324 325 323 318 312 310 310 311 314 318 321 334 332 338 337 339 338 339 338
331 334 333 335 334 332 328 327 324 325 324 326 331 333 336 326 338 342 337 342 342 343 343 331 322 329 329 329 329 327 326 326 322 318 314 311 311 311 311 311 312 311 317 321 326 338 338 338 339
336 332 330 330 329 329 325 324 323 322 322 321 325 330 331 324 329 345 343 344 343 342 342 342 334 335 335 334 334 330 331 330 328 321 317 313 311 311 311 311 311 310 310 311 318 330 338 335 337
334 334 334 332 329 327 323 322 322 322 321 320 321 326 329 321 331 347 346 345 345 344 344 344 345 339 336 337 331 331 332 333 333 327 319 315 312 311 311 311 311 311 310 309 311 322 328 336 333
332 332 333 331 327 325 322 322 322 322 320 319 318 322 325 319 335 346 346 345 345 345 345 346 347 348 345 348 339 331 331 328 329 332 326 320 315 312 311 311 311 311 311 310 309 311 318 329 335
320 331 330 326 324 324 322 322 321 320 319 317 316 317 317 325 332 341 345 344 344 345 346 346 346 347 349 349 347 340 331 330 330 329 328 328 325 320 312 312 311 310 311 311 310 309 309 313 324
326 328 323 322 324 324 322 321 321 321 320 318 317 316 319 324 327 329 330 331 333 336 338 341 347 347 348 348 347 348 349 344 339 341 339 337 335 326 316 312 311 311 310 310 311 311 310 310 328
326 326 323 323 323 321 321 319 317 321 321 315 315 314 317 320 322 323 323 325 329 332 337 339 340 341 345 347 345 349 347 348 345 342 341 339 331 328 326 321 316 312 311 311 310 311 311 310 311
326 323 322 322 319 320 320 318 316 316 314 312 312 313 314 315 315 316 316 317 319 322 326 328 331 334 337 341 350 348 346 345 346 343 340 340 338 334 331 328 323 319 314 312 311 310 310 310 310
323 321 320 318 318 318 317 317 315 313 311 311 311 312 313 313 313 313 313 313 314 315 317 320 322 324 332 338 344 345 344 345 345 344 343 339 337 338 336 331 328 323 319 316 314 312 310 310 310
320 319 318 318 318 317 318 316 316 312 310 311 311 311 311 311 310 310 310 310 311 311 312 313 316 320 324 328 330 339 340 342 342 343 343 342 340 338 338 336 333 329 323 319 316 314 313 311 310
319 319 319 318 319 317 317 318 316 311 311 311 311 310 309 308 308 307 307 307 308 308 308 308 309 310 314 317 322 327 331 334 337 338 338 339 339 340 340 337 336 333 328 322 318 316 315 312 311
319 319 321 318 319 317 318 321 313 310 311 311 310 309 308 307 306 306 306 306 307 307 307 306 306 306 307 307 309 311 314 317 322 326 329 331 334 336 336 338 336 336 334 331 323 317 317 316 313
320 319 320 319 317 318 319 321 314 310 310 310 310 309 308 307 306 306 305 305 305 306 307 307 306 306 306 306 307 307 307 307 308 310 313 317 322 325 328 332 335 334 335 334 330 322 318 316 315
319 319 319 320 319 318 319 317 313 310 310 310 309 309 308 308 307 306 305 305 305 305 306 306 306 306 306 306 306 306 306 306 306 307 305 305 308 310 314 318 321 324 328 331 331 327 321 318 316
319 320 321 319 317 318 317 317 314 310 309 310 309 309 308 307 306 306 306 305 305 305 305 305 305 305 305 305 306 305 305 305 305 304 302 303 304 305 304 307 311 314 316 319 326 328 324 320 317
319 320 320 318 317 317 319 318 314 311 310 310 309 309 308 307 307 306 306 306 306 305 305 305 305 305 305 305 304 304 304 305 305 305 305 304 305 305 306 307 308 309 311 313 314 320 323 323 319
320 319 319 319 318 315 316 319 314 311 309 308 308 308 307 307 307 307 307 306 306 306 305 304 304 304 304 304 304 304 304 304 304 304 304 304 304 305 306 307 307 308 309 310 312 314 316 319 319
320 317 318 318 319 321 315 317 317 314 311 309 308 307 307 306 306 306 306 306 306 306 305 305 304 304 304 304 304 303 303 304 304 304 304 304 304 305 306 306 306 306 307 308 309 310 312 313 316
320 315 316 317 318 317 318 318 320 313 311 311 309 307 306 306 305 305 305 305 304 305 305 304 305 304 304 303 303 303 303 303 303 304 304 304 304 304 304 304 303 304 304 305 307 308 308 311 311
313 314 315 316 317 319 317 318 320 315 314 312 309 307 306 305 305 305 305 305 305 305 305 305 304 303 303 302 302 302 302 302 302 303 303 303 303 304 304 304 303 303 303 304 305 307 308 308 309
314 315 317 319 321 321 317 318 319 316 311 311 308 307 306 305 305 305 305 304 304 304 304 303 302 302 301 301 301 301 301 301 302 302 302 303 303 303 303 304 303 303 302 304 304 306 307 307 307
314 315 316 317 317 317 314 317 318 310 309 308 307 307 306 305 305 305 304 304 304 303 303 302 301 301 300 300 300 300 300 300 301 301 301 302 302 302 303 303 303 302 302 302 303 304 307 307 306
313 314 313 313 311 313 315 314 313 308 308 307 307 306 306 305 305 304 304 304 303 303 302 301 301 300 300 300 300 299 299 299 300 300 300 301 301 301 301 301 302 302 302 302 302 303 306 307 306
311 311 314 313 315 315 315 313 315 310 309 308 307 306 306 305 304 304 304 304 303 302 301 301 300 299 299 299 299 298 299 299 299 299 300 300 301 301 301 301 301 301 302 301 301 302 305 306 305
311 312 310 311 312 315 315 316 313 311 311 310 308 307 307 305 304 303 303 303 302 301 301 300 299 299 298 298 298 298 299 299 299 299 300 300 300 299 300 300 301 301 301 301 301 301 303 304 304
307 309 311 312 314 311 312 314 309 309 308 308 308 307 306 304 304 303 303 302 301 301 299 298 298 297 298 298 298 298 298 298 298 299 299 299 299 299 300 299 300 300 300 301 301 301 302 302 303

GFSSGP_850_thetae_045.txt.gz
Theta_e
335 341 345 353 357 353 347 345 341 340 338 336 336 336 337 337 336 341 342 342 342 341 344 326 325 325 328 332 346 333 326 329 327 324 317 317 335 332 334 338 341 339 341 341 337 338 342 332 337
333 341 347 349 355 351 346 342 342 340 337 336 334 336 338 342 338 342 342 342 342 341 344 348 326 325 325 345 339 324 323 325 330 321 313 312 315 321 331 336 337 341 338 339 340 340 342 339 341
333 340 345 341 343 346 345 341 339 338 334 333 335 334 339 342 342 341 341 342 341 341 343 337 327 326 324 323 322 322 322 324 325 319 313 310 311 313 319 318 320 335 337 336 340 337 340 338 341
338 345 340 340 341 338 337 335 333 337 331 331 333 338 336 336 345 342 341 341 341 342 343 326 327 329 329 328 326 324 325 326 324 320 314 310 310 310 311 313 314 315 320 333 335 338 339 340 339
338 337 336 338 336 332 332 331 327 328 328 326 329 335 331 333 344 344 343 341 341 342 342 328 324 330 331 332 332 329 328 328 324 320 315 312 311 311 311 311 311 311 312 318 324 334 337 340 340
339 335 332 334 332 329 327 326 326 325 324 323 324 330 328 329 346 347 344 343 341 342 342 343 333 334 334 335 335 333 336 332 331 326 319 315 312 311 311 311 310 310 310 310 314 325 332 335 337
338 339 335 331 330 329 325 324 324 323 323 323 323 327 329 324 338 348 345 344 344 343 343 343 344 336 339 337 331 328 329 335 332 332 326 319 315 312 311 311 310 310 311 310 309 316 324 330 332
335 336 335 333 330 328 324 323 323 322 322 321 321 325 327 323 334 347 346 345 344 345 344 342 342 344 347 347 339 338 331 328 324 325 330 328 321 317 312 311 311 311 311 311 310 310 316 324 333
327 337 336 329 327 327 323 323 323 321 322 320 320 321 322 327 333 343 344 345 344 344 345 343 342 341 344 346 349 344 342 337 331 331 329 327 331 334 328 321 312 311 311 311 311 310 310 315 323
330 335 328 325 326 326 324 323 322 323 323 322 320 320 323 327 329 332 334 334 332 331 331 332 336 344 346 346 346 347 346 346 345 343 342 340 337 337 333 323 317 313 312 311 311 311 311 310 317
328 331 326 325 325 323 322 322 321 323 323 318 318 318 320 322 324 325 325 326 326 325 326 326 329 332 336 345 346 345 346 344 344 344 343 342 340 338 335 332 329 326 322 314 314 312 311 315 321
330 325 325 324 321 321 323 322 319 321 318 316 316 317 318 318 318 319 319 319 320 320 320 321 324 328 336 337 343 344 343 344 343 342 343 342 342 341 338 335 332 329 327 324 322 320 316 311 311
326 324 321 321 321 322 321 321 319 316 315 315 315 316 316 316 316 315 315 315 315 315 315 316 318 322 327 334 338 339 342 342 342 342 342 341 341 340 341 339 336 332 328 326 323 320 319 316 312
323 321 320 321 321 320 321 319 319 316 315 315 315 315 314 313 313 312 312 313 312 312 311 311 311 313 317 320 323 326 329 334 338 340 340 340 339 339 339 339 338 338 333 328 325 321 318 317 316
320 321 321 320 321 321 321 321 321 316 315 315 315 314 312 311 311 310 310 310 311 310 309 309 309 309 310 310 312 314 315 319 321 322 325 330 335 337 338 338 339 337 337 334 328 324 320 317 316
321 321 323 322 321 320 320 322 319 315 315 316 315 313 312 310 310 309 309 309 310 310 309 309 309 309 309 309 309 310 310 310 311 312 314 315 317 321 325 330 334 336 335 336 331 326 322 319 317
322 320 323 323 320 322 321 323 319 315 315 315 314 313 312 310 309 309 308 308 308 309 309 309 309 308 308 309 309 308 308 309 308 309 309 308 310 311 312 316 321 324 327 331 332 331 329 322 319
322 322 321 321 322 320 322 322 320 315 315 315 314 313 312 311 310 309 308 308 308 308 308 308 308 308 308 308 308 308 308 307 307 307 307 307 308 309 310 310 312 315 318 321 324 328 330 328 322
320 321 321 323 321 320 320 321 320 316 315 315 314 313 312 311 310 309 308 308 308 308 308 307 307 307 307 307 307 306 306 306 307 307 307 307 306 307 307 309 309 310 311 314 318 320 323 329 327
322 322 323 322 320 319 322 323 321 318 315 315 314 313 312 311 310 309 309 308 308 308 308 307 307 306 306 306 306 306 306 305 305 305 306 306 306 306 306 307 308 309 309 310 311 314 318 318 325
323 323 322 321 321 321 321 322 321 319 315 314 313 313 312 311 311 310 310 309 309 308 308 307 307 306 306 306 306 305 305 305 305 305 305 306 306 305 305 306 307 307 307 308 309 310 312 315 315
322 320 319 320 322 322 320 319 323 319 316 314 312 312 311 311 310 309 309 308 308 308 308 307 306 306 306 305 305 305 304 304 304 304 304 305 305 305 305 306 306 305 305 305 306 307 309 310 313
322 319 320 320 321 320 320 320 323 320 317 315 313 312 311 310 309 308 308 307 307 306 307 307 307 306 305 304 304 303 303 303 303 303 303 304 304 305 305 305 305 305 305 304 305 305 306 308 309
318 318 319 319 319 320 321 321 323 320 318 317 314 312 311 309 309 308 307 307 307 307 307 307 306 304 304 303 303 302 302 302 302 303 303 303 303 304 304 304 304 305 305 304 304 304 305 306 308
318 319 320 324 325 325 320 320 320 321 316 317 315 313 310 309 308 308 307 307 307 306 306 305 304 304 303 302 302 302 302 302 302 302 302 302 303 303 303 303 304 304 304 304 304 303 304 305 306
318 318 319 320 321 321 318 319 320 315 314 313 313 311 310 309 308 308 307 307 306 306 305 305 304 303 303 302 301 301 301 301 301 301 301 301 301 302 302 302 302 303 303 304 304 303 303 304 305
317 315 317 316 317 317 319 319 316 313 312 312 311 310 310 309 308 308 307 307 306 306 305 304 303 303 302 301 301 300 300 300 300 300 300 301 301 301 301 301 302 302 302 302 302 303 303 303 303
313 314 317 317 318 319 319 319 318 314 313 312 311 310 310 309 308 307 307 306 306 305 304 303 303 301 301 300 300 300 300 300 300 300 300 300 301 301 301 301 301 301 301 301 302 302 302 302 302
313 314 313 314 316 317 318 319 315 315 314 313 311 311 310 309 308 307 306 306 305 304 304 303 301 300 299 299 299 299 299 299 299 299 299 299 300 300 300 300 300 300 300 301 301 302 302 302 302
311 313 314 316 317 316 316 317 315 313 312 311 311 310 310 309 308 307 306 305 304 304 303 301 300 299 299 299 299 299 299 299 299 299 298 298 298 298 299 299 300 300 301 300 300 302 301 302 302

GFSSGP_850_thetae_048.txt.gz
Theta_e
333 340 345 353 361 350 347 346 341 340 337 335 337 339 340 335 337 345 345 341 342 344 328 324 323 324 327 334 345 329 322 322 323 319 312 314 320 325 326 331 339 337 338 340 335 342 335 341 340
333 340 348 353 349 351 346 342 343 338 335 334 334 341 342 343 342 344 342 342 341 344 340 328 325 325 329 342 341 325 322 324 322 316 311 311 313 318 325 322 331 338 335 337 337 341 341 341 341
333 339 347 356 345 349 345 339 339 334 331 332 334 337 337 340 342 341 341 341 340 342 347 344 328 327 326 328 324 323 323 325 324 319 313 310 310 312 316 318 319 328 327 333 338 337 339 338 341
334 345 346 344 341 338 336 332 330 331 327 327 336 334 334 341 344 341 341 341 342 342 343 328 327 329 329 329 327 325 325 326 324 320 315 311 310 311 311 312 314 315 316 332 332 337 338 337 337
336 340 344 341 337 333 332 329 328 328 326 324 329 332 332 346 345 343 342 341 342 342 342 326 328 331 330 331 331 330 328 328 327 322 318 315 311 311 311 311 310 310 311 315 321 332 337 336 338
340 337 341 339 333 329 327 325 325 324 323 322 325 328 327 335 349 345 343 342 341 341 343 332 326 327 327 327 330 332 329 330 330 331 324 319 315 311 311 311 310 310 310 310 311 318 329 335 335
343 344 339 335 333 329 326 324 323 324 323 322 321 328 325 326 344 347 344 343 343 342 342 342 343 340 335 328 327 329 328 324 324 328 330 327 321 317 312 311 311 310 310 311 310 310 318 326 332
334 340 337 334 333 330 324 324 323 322 321 322 321 323 324 326 339 346 344 343 344 342 340 342 343 343 345 336 337 343 343 335 328 324 322 324 328 326 325 315 312 311 311 310 311 310 311 315 322
330 342 338 331 330 328 323 324 322 322 322 320 321 323 326 329 336 343 342 343 342 342 341 341 340 340 345 348 342 345 344 344 344 342 340 335 329 330 335 330 324 315 312 311 310 311 311 311 313
331 342 330 327 327 328 324 324 323 323 323 321 320 322 325 328 330 333 334 332 331 330 331 336 339 342 339 343 345 345 344 344 344 344 343 342 340 337 337 334 331 327 320 313 311 311 310 310 310
330 334 328 326 325 323 323 322 321 324 322 319 319 320 321 323 324 324 325 326 324 323 323 324 328 333 337 337 341 343 342 344 343 344 343 343 342 340 339 337 334 332 327 326 322 318 314 311 311
330 325 326 326 322 321 323 322 320 320 318 317 317 318 319 319 318 318 318 318 318 317 317 318 322 326 335 340 338 341 342 342 342 342 342 341 341 341 341 339 336 335 333 329 325 323 321 319 315
328 325 322 321 322 322 322 322 320 317 316 316 317 317 317 317 315 315 315 315 314 313 312 312 315 317 321 324 325 326 331 336 338 339 340 340 340 339 339 339 339 337 335 333 329 325 321 320 318
324 323 321 321 321 321 322 320 319 317 316 316 316 316 315 314 314 313 313 312 311 310 310 309 310 310 311 312 313 313 318 319 321 324 327 334 337 338 338 337 337 337 337 335 333 328 325 320 318
321 322 321 322 321 322 321 322 320 317 316 316 316 315 313 312 312 311 311 311 311 310 309 309 309 309 309 309 309 310 309 310 310 312 314 315 314 318 325 330 335 336 336 336 336 332 327 324 319
320 320 323 323 322 321 320 322 321 316 316 316 316 314 312 311 311 310 309 310 310 310 310 309 309 309 309 309 309 309 309 309 308 308 309 309 308 308 308 310 317 321 325 327 332 335 332 326 323
322 320 322 324 322 322 320 323 320 316 316 317 316 314 312 311 310 309 309 309 309 309 309 309 308 308 308 308 308 308 308 307 307 307 307 307 307 307 307 307 307 309 315 316 318 321 330 331 329
322 322 322 323 322 321 322 320 319 317 316 317 316 315 313 311 310 309 308 308 308 308 308 308 308 307 307 307 307 306 305 305 306 305 305 306 306 306 306 306 306 306 308 310 313 316 316 325 330
321 320 321 321 322 321 322 321 321 318 316 316 316 315 313 312 311 309 309 308 308 308 308 308 307 307 306 306 306 305 304 305 304 303 304 304 305 305 305 304 305 306 308 308 309 310 312 313 312
322 322 322 323 321 320 320 320 321 318 316 316 316 315 314 313 311 309 309 309 309 309 309 308 307 307 306 306 306 305 305 305 304 303 304 305 305 305 305 305 305 306 307 307 308 308 309 311 313
322 323 323 321 322 321 321 322 322 320 317 315 316 315 314 312 311 310 310 309 309 309 309 308 308 307 306 306 305 305 304 303 303 303 303 303 303 304 305 305 305 305 305 306 306 306 307 308 309
323 321 321 321 322 323 321 321 322 319 316 315 315 314 314 312 312 311 310 310 309 308 308 308 307 307 307 306 305 304 303 302 302 303 302 303 303 303 304 305 305 305 305 305 305 305 305 306 307
322 320 320 321 321 319 319 319 322 319 317 314 314 314 313 312 311 311 310 309 308 307 307 307 307 307 306 305 304 303 302 302 302 302 302 302 302 302 303 303 303 304 304 305 305 305 304 304 304
318 319 320 320 319 319 318 320 322 319 318 316 314 313 313 312 311 310 309 308 308 307 307 307 307 305 304 304 303 303 302 302 302 302 301 301 301 302 302 303 303 303 304 304 304 305 305 304 304
318 320 322 323 324 324 321 321 319 317 315 316 315 314 313 312 310 309 308 308 308 307 307 306 306 305 304 303 303 302 301 301 301 301 301 301 301 301 301 301 302 302 303 303 304 305 305 304 304
321 319 319 320 320 319 319 319 318 314 315 314 315 314 313 311 309 309 308 308 308 307 307 306 305 304 304 303 302 301 300 300 300 300 300 300 300 300 301 301 301 301 301 301 302 302 303 303 303
318 316 316 315 315 316 317 319 315 313 312 313 313 312 311 310 309 309 308 308 307 307 307 306 305 304 303 302 300 300 299 299 300 300 300 300 300 300 300 301 301 301 301 301 302 302 302 302 302
313 314 316 315 318 319 318 318 316 313 312 312 311 311 311 310 309 309 308 308 307 306 306 305 304 303 302 300 300 299 299 299 299 299 299 299 299 299 299 299 299 300 300 301 301 301 301 301 301
313 313 313 313 314 315 315 316 314 314 313 311 311 311 311 310 310 309 308 307 307 306 305 304 304 302 300 299 299 299 299 299 299 299 299 298 298 298 298 298 298 298 299 299 301 301 301 302 301
311 313 314 315 317 317 315 316 311 310 311 311 311 310 310 310 310 309 308 307 306 305 304 304 302 300 299 299 298 298 298 299 299 298 298 299 299 299 298 298 297 297 297 297 298 299 301 301 301

GFSSGP_850_thetae_051.txt.gz
Theta_e
331 340 345 354 344 339 340 340 334 334 334 339 340 339 339 339 340 339 342 341 338 335 325 324 325 328 329 342 344 325 322 323 320 313 312 315 320 322 323 331 339 337 337 336 341 335 340 336 338
333 341 349 351 346 348 343 337 334 331 330 341 342 342 341 343 343 342 341 341 341 342 328 326 325 327 340 340 334 325 322 323 320 315 310 311 313 317 320 319 332 335 335 339 337 341 339 341 339
335 339 347 341 344 348 336 334 332 328 327 335 335 336 338 340 341 340 341 340 342 343 343 343 327 326 329 327 322 322 322 324 322 318 312 310 310 311 315 315 318 322 322 333 337 338 338 338 339
334 343 345 337 335 332 328 326 326 326 324 330 333 333 342 346 341 341 341 341 341 341 343 329 324 327 327 325 324 324 323 324 323 320 316 312 310 311 311 312 312 313 313 327 330 335 337 337 336
335 339 335 331 330 329 327 325 323 320 321 330 331 330 335 346 342 341 341 341 342 342 329 326 327 326 328 329 328 328 327 325 327 325 321 317 313 310 311 310 310 310 310 312 318 326 332 334 336
338 339 335 330 325 324 321 322 322 321 321 321 324 325 327 346 344 343 341 341 341 338 339 341 337 339 331 324 322 325 324 324 328 329 330 324 320 315 311 311 310 310 310 310 310 312 322 330 332
340 333 335 327 325 323 322 323 320 320 320 321 324 323 324 345 346 344 343 342 341 340 342 342 342 342 339 331 334 339 339 334 327 323 325 327 327 324 320 313 311 311 310 310 310 310 312 320 326
330 332 334 327 327 324 322 323 322 321 319 321 323 321 323 341 345 345 344 343 342 337 339 337 339 344 343 343 345 343 339 341 341 336 340 338 331 329 331 329 321 316 312 311 310 310 310 312 316
330 331 326 326 327 323 323 322 322 321 320 321 323 325 328 330 335 344 341 343 344 342 339 332 331 333 337 344 343 342 342 344 343 342 342 341 339 337 336 334 327 328 327 317 312 310 310 310 311
328 326 326 325 324 324 323 323 322 321 320 319 321 324 327 330 334 333 332 333 334 336 339 339 330 334 337 342 343 343 342 342 341 342 342 343 342 338 337 338 336 334 330 327 322 314 312 311 310
327 325 325 326 324 321 322 321 321 321 319 319 319 320 322 326 327 326 326 327 329 329 329 326 329 331 338 339 341 343 344 343 344 343 343 342 342 341 340 338 336 334 333 334 331 324 322 318 314
325 324 327 324 322 321 322 321 319 320 319 318 318 319 319 319 320 320 320 319 319 318 318 319 321 325 332 336 336 333 335 340 341 339 339 341 341 340 340 340 339 337 334 331 331 331 325 323 321
324 323 323 322 321 322 322 320 318 316 317 317 317 317 317 316 316 315 315 315 314 313 311 312 314 315 316 317 316 318 321 324 328 332 335 337 337 337 338 338 337 338 338 335 332 332 328 326 322
323 322 321 321 321 321 320 318 319 316 316 316 317 316 315 314 314 313 313 311 311 310 309 309 310 310 310 310 310 310 310 310 311 312 313 314 317 323 331 333 335 336 336 337 337 335 333 330 325
320 319 319 320 320 320 320 319 318 318 316 316 316 315 314 313 312 312 311 310 310 310 309 309 309 309 309 309 309 309 309 309 309 308 308 308 308 308 308 308 310 317 325 330 332 335 336 332 327
319 317 318 318 320 320 319 316 318 317 316 316 315 314 312 311 311 310 310 310 310 309 309 309 309 308 308 309 309 308 308 308 307 307 307 306 306 306 305 305 306 306 307 308 310 313 319 329 333
317 315 316 321 320 319 317 318 316 316 316 316 315 313 312 311 310 309 309 309 309 309 309 308 308 308 308 307 307 306 305 304 304 304 303 303 304 305 304 304 304 303 303 305 307 308 309 308 312
318 318 317 320 320 318 318 317 315 316 316 316 315 313 312 310 310 309 308 308 308 308 308 308 308 308 307 306 305 305 304 303 303 303 302 302 303 304 303 303 304 304 304 304 305 306 308 309 309
318 318 317 318 320 318 317 317 316 315 315 315 315 313 312 311 310 309 309 308 308 308 308 308 308 308 306 305 305 305 304 303 303 302 301 301 302 303 302 303 304 304 304 305 305 307 307 307 309
319 319 318 319 319 318 317 317 316 315 315 315 316 314 312 312 310 310 310 309 308 308 308 309 308 308 306 305 306 306 305 303 303 302 302 302 302 302 303 303 304 305 305 305 305 305 306 306 306
320 320 319 319 319 318 318 318 318 316 314 315 315 315 313 312 310 310 310 309 309 309 309 309 309 308 306 306 306 305 304 303 302 302 302 301 301 302 302 302 302 303 305 305 305 305 305 305 304
319 319 319 320 318 318 318 316 314 315 313 313 315 315 314 312 311 311 310 309 309 309 308 308 307 307 307 306 305 304 303 303 302 302 301 301 301 301 301 301 302 302 302 303 303 304 304 305 305
320 318 318 319 318 316 315 316 313 313 314 311 312 315 314 313 311 311 310 310 309 308 308 307 307 307 306 305 304 304 303 303 302 301 301 301 301 300 300 301 301 301 303 303 303 304 304 305 305
317 317 316 317 315 315 314 315 314 316 315 312 312 314 314 313 312 311 311 310 308 308 308 307 307 306 305 305 304 304 303 302 301 301 300 300 300 300 300 300 300 300 301 302 303 302 303 304 305
317 315 316 318 318 317 316 315 314 316 313 313 311 314 314 313 312 311 310 308 308 308 307 307 307 306 305 305 304 303 302 301 300 300 299 299 299 299 299 300 300 300 301 301 301 301 301 301 302
317 315 315 317 318 314 316 315 314 311 312 313 315 315 313 313 312 310 309 308 308 308 307 307 306 306 305 304 303 302 301 300 299 299 299 299 299 299 299 299 299 299 300 300 300 301 301 301 302
315 312 312 312 311 310 311 314 312 310 310 311 311 312 312 311 310 309 309 308 308 308 307 307 306 305 304 303 302 301 300 299 299 298 298 298 298 298 298 298 298 298 298 298 298 299 301 302 302
312 312 312 310 313 315 312 314 313 311 310 309 308 310 310 310 310 309 309 309 308 307 307 306 305 304 304 303 302 300 299 298 298 298 298 298 298 298 298 299 298 298 298 298 297 297 298 299 300
310 309 310 309 309 310 310 310 310 311 309 308 308 310 311 310 310 310 309 309 308 307 306 305 304 304 303 303 301 299 298 298 298 298 298 298 298 298 298 298 298 298 297 297 297 297 297 297 298
310 311 309 310 311 309 308 310 308 306 308 309 309 309 310 310 310 310 309 308 307 306 305 305 304 304 303 301 299 298 297 297 297 298 297 297 297 297 296 295 295 295 295 296 297 296 296 296 297

GFSSGP_850_thetae_054.txt.gz
Theta_e
334 343 348 352 340 334 338 336 332 329 338 340 339 338 336 339 334 333 341 341 338 327 325 326 332 328 339 336 339 324 322 321 315 311 312 316 320 321 326 334 336 335 335 338 336 338 334 335 333
335 340 349 343 341 339 338 334 329 335 340 341 340 341 340 341 341 341 341 340 342 329 328 326 324 325 341 333 328 322 322 322 318 313 310 311 314 317 317 321 331 329 332 336 339 337 340 338 333
337 342 345 337 340 342 331 328 326 330 339 334 334 338 340 341 340 340 340 340 341 340 338 330 326 325 325 321 320 320 321 323 321 317 312 310 311 312 313 314 318 317 324 333 334 337 336 339 337
335 344 343 333 332 330 326 323 324 322 329 333 338 333 344 341 341 341 340 340 340 340 325 324 325 325 326 326 325 324 323 323 322 321 317 313 310 311 311 311 311 311 312 325 329 333 336 335 337
336 339 330 328 329 325 319 320 322 319 325 329 331 333 341 341 341 341 340 341 341 336 335 330 328 327 327 329 330 328 327 327 328 328 324 319 315 311 310 310 310 310 310 311 317 323 329 332 335
339 334 329 326 325 322 319 321 321 319 320 321 333 329 337 342 343 341 341 341 341 337 340 331 331 332 326 326 337 335 328 323 323 326 328 328 323 318 314 311 310 310 310 310 310 310 316 323 329
336 330 332 323 322 322 321 321 320 319 319 321 323 322 334 345 345 342 343 342 341 341 342 340 342 343 340 337 342 342 339 337 331 328 333 328 325 327 330 325 315 314 311 310 310 310 310 314 321
328 330 329 325 325 323 321 321 321 320 319 321 323 321 327 343 345 341 340 341 341 339 340 343 341 336 343 343 343 343 344 342 341 338 340 338 336 332 331 334 330 328 327 319 311 310 310 310 312
330 323 324 325 324 322 322 321 321 320 320 322 323 326 328 333 337 341 337 337 337 332 334 336 335 336 339 345 344 342 343 344 343 341 341 342 341 338 336 337 335 333 332 331 324 316 311 310 310
327 324 324 324 323 321 322 321 321 320 319 321 324 326 326 330 336 338 338 338 327 328 330 329 332 336 339 342 343 343 342 341 341 342 342 342 341 339 338 338 336 335 333 333 333 329 322 316 312
325 325 323 325 322 322 321 320 321 319 318 319 321 324 324 327 329 330 327 328 327 321 321 324 329 340 341 342 341 340 342 342 341 341 340 339 340 338 339 340 338 337 334 333 332 332 329 324 322
324 324 325 324 323 320 320 320 319 320 320 319 320 321 322 322 321 322 322 320 320 320 318 317 319 322 325 326 327 326 328 330 335 337 335 337 336 338 340 340 340 340 338 335 334 333 332 330 326
324 322 324 322 321 321 321 319 318 317 318 318 318 318 318 318 317 316 317 317 316 315 313 313 314 314 313 313 312 313 313 314 315 317 319 320 321 326 331 332 332 332 334 336 336 333 332 333 331
323 321 321 320 320 321 320 318 318 316 317 317 317 316 316 315 314 314 313 313 312 311 310 310 310 310 310 310 310 309 309 309 309 309 308 308 308 308 308 308 310 314 321 327 330 334 336 335 331
321 320 318 319 319 320 320 318 317 317 316 316 316 315 314 314 312 312 311 310 310 310 309 309 309 309 309 309 309 309 308 308 307 306 305 304 304 304 304 304 304 305 305 307 309 313 320 327 331
318 316 317 316 318 319 319 318 316 317 316 316 316 315 314 312 312 310 310 310 310 310 309 309 309 309 308 308 307 306 305 304 304 303 303 302 302 303 304 303 303 303 303 303 304 305 305 306 307
315 314 315 316 318 318 316 317 318 317 315 315 315 314 313 311 311 310 310 309 309 309 309 309 308 308 307 306 305 305 304 303 303 303 303 302 302 302 303 302 302 303 303 304 303 303 304 304 304
315 316 316 318 318 317 317 315 315 315 315 315 314 313 312 311 310 310 309 309 309 308 308 308 308 308 307 306 305 305 304 304 303 303 302 302 301 301 301 301 301 302 304 304 304 304 304 306 306
317 317 316 315 318 318 317 316 315 316 314 313 314 312 311 310 310 310 310 309 308 308 308 308 308 308 308 306 305 305 304 304 303 303 302 301 301 301 301 301 301 301 302 303 304 305 304 304 305
318 318 317 318 319 318 317 317 316 314 314 314 314 312 312 310 309 309 310 309 309 308 308 308 308 308 308 307 305 305 304 304 303 303 302 301 301 301 301 300 300 300 301 301 303 305 305 304 304
319 319 318 318 317 316 317 316 316 315 314 314 313 314 313 311 310 310 310 310 309 309 308 309 308 308 308 307 306 305 305 304 303 303 302 301 300 300 300 300 300 300 301 301 301 303 303 304 304
319 318 319 319 317 316 315 315 314 313 313 311 314 314 313 311 311 311 310 310 309 309 309 309 308 307 307 307 306 305 305 304 303 302 302 300 300 299 299 299 299 299 299 299 301 302 303 302 303
318 318 317 317 316 315 314 314 312 313 314 311 312 314 314 312 311 310 311 310 309 309 309 308 307 307 307 307 306 305 304 304 303 302 301 300 299 299 299 298 298 299 299 300 300 301 301 302 302
317 316 314 313 312 314 313 312 311 315 315 312 311 314 314 313 311 310 310 309 309 309 308 308 308 307 307 306 305 304 304 303 302 301 300 299 299 298 298 298 298 298 299 299 300 300 301 301 301
314 311 312 315 317 317 314 313 310 311 310 312 311 314 314 314 311 310 310 310 309 308 308 308 308 307 307 306 305 304 303 302 301 300 299 298 298 298 297 297 298 298 298 298 298 299 300 300 301
315 313 313 317 318 316 311 315 313 310 310 310 313 315 314 314 312 312 311 311 309 309 308 308 307 307 306 305 304 303 303 302 301 299 298 298 297 297 297 298 298 298 298 298 298 298 298 298 298
314 313 311 311 309 309 309 313 310 310 308 309 311 313 313 313 313 312 311 310 309 308 308 307 307 306 305 304 304 303 302 301 299 298 298 297 297 297 298 298 298 298 298 298 298 298 298 298 298
312 310 311 308 310 314 310 311 311 310 309 308 308 311 312 312 312 311 310 309 309 308 308 307 306 305 304 304 303 302 301 299 298 297 296 297 297 297 297 297 297 297 296 296 296 296 296 296 296
309 308 309 307 308 310 309 308 308 309 308 308 308 310 311 311 310 309 309 308 308 307 307 306 305 304 304 303 302 300 299 297 296 296 296 296 296 296 296 295 295 294 294 295 295 295 295 296 296
309 308 306 308 310 306 305 310 307 306 307 309 309 308 309 309 309 309 309 309 308 307 306 305 304 304 303 302 301 298 296 296 296 296 296 295 295 294 294 294 294 294 295 295 295 295 295 296 296

GFSSGP_850_thetae_057.txt.gz
Theta_e
333 340 347 348 336 332 335 333 330 333 339 340 338 336 336 339 332 330 341 338 333 327 325 337 325 326 336 331 336 321 321 317 313 310 312 317 318 323 336 334 334 333 337 338 336 334 336 333 333
335 339 348 339 336 335 334 331 336 337 340 339 340 339 339 340 340 340 339 340 330 330 328 326 324 323 333 324 322 320 321 321 317 311 310 311 313 315 316 322 325 327 333 338 336 337 336 333 332
334 342 342 336 337 336 328 327 330 337 339 333 336 340 341 340 340 339 338 339 339 330 326 323 325 327 332 325 321 321 322 323 320 316 312 310 311 311 312 313 315 313 323 333 333 336 338 338 333
334 343 332 332 332 327 324 322 331 323 329 338 340 338 341 338 340 340 340 340 334 329 327 326 328 329 329 329 328 327 325 324 324 321 318 313 311 311 310 310 310 310 312 321 327 330 335 336 336
336 336 326 327 327 320 319 319 321 321 325 328 333 338 341 340 340 340 340 341 338 334 329 328 328 326 327 329 328 326 327 329 330 330 327 320 316 312 310 310 310 309 310 310 314 318 326 333 335
339 330 326 327 324 320 318 320 319 318 319 322 336 337 339 338 341 340 340 342 339 339 340 332 336 328 326 337 339 333 332 327 324 327 328 328 324 320 319 314 311 311 310 310 309 309 311 318 328
333 328 328 323 321 321 319 320 319 318 318 321 332 323 340 338 342 340 344 343 340 341 341 337 342 341 340 339 341 341 341 335 333 335 335 330 325 328 330 330 329 328 327 319 310 310 310 312 318
330 327 324 323 322 322 320 321 320 319 319 322 323 322 336 333 340 343 343 341 341 340 339 341 343 339 343 343 342 342 343 342 341 340 339 340 337 333 334 333 331 328 328 329 322 316 310 310 311
330 322 323 324 322 322 320 319 320 319 320 322 323 326 330 334 340 342 339 335 336 338 338 338 338 338 341 342 343 341 342 343 341 340 340 342 342 340 337 336 335 334 332 332 331 328 322 314 311
326 323 322 321 322 320 321 320 320 320 320 322 325 326 329 333 337 337 331 331 331 332 331 332 334 336 338 342 343 343 342 341 340 340 340 339 340 339 338 338 338 336 336 333 333 332 329 324 320
325 327 322 324 322 322 321 320 320 319 318 320 324 324 327 330 330 330 327 327 326 325 326 331 335 339 341 339 339 338 337 337 336 335 336 336 336 336 335 336 336 337 337 336 333 332 331 332 327
325 323 324 324 323 320 320 320 319 319 320 320 323 324 324 325 325 323 320 318 319 319 320 320 322 327 331 330 328 326 325 324 327 329 330 329 330 330 330 332 333 337 339 338 336 332 331 331 331
324 322 323 321 321 320 320 318 318 318 319 319 320 321 321 322 321 318 318 314 313 314 313 313 313 313 313 312 311 310 310 309 309 309 309 309 308 310 312 314 318 323 323 325 330 333 336 335 332
322 320 320 320 320 320 319 317 318 317 317 317 318 318 317 318 317 315 313 313 312 311 310 310 310 310 309 309 309 309 308 308 307 306 305 304 304 304 304 305 305 305 305 306 309 316 321 324 327
320 320 318 319 319 318 319 317 316 317 317 316 316 316 315 314 314 314 312 312 311 310 310 310 309 309 309 308 308 307 306 304 304 303 303 303 302 303 303 303 303 303 303 303 303 303 305 306 308
316 314 316 315 318 318 317 316 316 317 316 316 315 314 314 313 312 312 311 311 311 310 309 309 309 308 308 307 305 305 304 303 303 304 303 302 302 301 302 302 302 301 302 302 303 303 303 303 303
313 314 314 314 317 317 316 316 316 316 315 315 315 314 312 311 311 311 310 310 310 310 310 309 309 308 307 306 305 305 304 304 304 304 304 303 302 302 301 301 301 301 301 302 302 303 303 303 303
314 315 314 315 317 317 317 315 314 315 314 315 315 314 313 311 311 311 310 310 309 309 309 309 308 309 309 307 305 305 305 305 304 304 304 303 302 301 301 301 300 300 300 300 301 301 303 304 304
315 315 316 315 316 317 316 316 314 315 313 313 314 314 313 312 310 310 309 309 309 309 308 308 309 308 308 308 307 305 305 305 304 304 303 303 301 300 300 300 300 300 299 299 300 300 301 302 304
317 316 316 315 318 317 316 316 314 314 313 313 314 313 313 311 310 309 309 309 309 309 308 308 308 308 308 308 307 307 306 305 305 304 303 303 302 300 299 299 299 299 299 299 299 300 300 301 303
318 317 317 317 316 315 315 315 315 314 313 314 313 314 313 312 310 310 309 309 309 309 308 308 308 309 308 307 307 306 306 305 305 304 304 303 302 301 299 299 298 298 298 298 298 299 299 300 301
317 317 318 318 316 316 314 316 313 312 311 311 311 312 313 312 310 310 310 310 310 309 309 308 309 308 307 307 307 306 306 306 305 304 303 303 302 301 299 298 298 297 297 297 298 298 299 300 300
317 317 316 316 314 314 313 313 311 312 314 312 310 311 313 313 312 311 311 311 310 309 309 309 309 308 307 307 307 306 306 305 304 303 303 302 302 300 298 298 297 297 297 297 298 298 298 299 300
315 314 311 312 311 313 312 311 312 313 313 310 311 312 313 313 313 311 311 310 310 309 309 309 308 307 307 307 306 306 305 304 303 303 302 302 301 299 298 297 297 297 297 297 297 297 298 298 298
312 310 312 312 315 313 312 311 311 309 309 309 309 313 314 314 313 312 311 310 310 309 309 309 307 307 307 307 306 305 304 303 302 302 302 300 298 297 297 296 297 296 296 296 297 297 298 298 298
314 310 311 314 317 317 311 314 313 310 308 309 311 313 314 314 313 313 312 310 310 310 309 308 307 307 307 306 305 304 303 303 302 302 300 298 297 296 296 296 296 296 296 296 296 297 298 298 298
313 313 310 309 307 308 308 308 311 307 306 308 310 312 314 313 313 313 311 310 310 308 307 307 307 306 306 305 304 303 303 302 301 299 297 296 296 296 296 295 295 295 295 295 295 295 295 295 295
311 309 310 307 310 312 309 308 311 307 308 306 308 312 313 313 312 311 310 309 307 307 307 307 306 305 305 304 303 303 302 300 298 296 296 296 295 295 295 295 294 294 294 294 294 294 295 295 295
309 309 306 306 307 310 309 307 306 308 308 309 309 308 309 309 309 309 308 308 308 308 307 307 305 304 303 303 302 301 299 297 296 296 295 295 294 294 294 294 294 294 294 294 294 294 294 294 295
308 308 305 306 307 304 303 309 307 304 305 306 306 307 307 308 308 307 308 308 308 308 306 305 304 303 303 302 301 299 297 296 296 295 294 294 294 294 294 294 294 294 294 294 294 294 294 294 294

GFSSGP_850_thetae_060.txt.gz
Theta_e
333 338 347 347 333 330 333 332 328 335 339 339 337 335 336 337 331 328 337 335 326 324 323 329 328 326 336 329 330 319 320 317 312 310 312 315 318 330 336 330 331 332 337 335 335 334 334 334 335
334 340 347 337 332 332 332 329 336 337 339 338 338 338 338 339 339 338 336 329 330 330 326 328 327 332 336 327 324 320 322 321 316 311 310 311 313 314 315 320 322 325 334 337 335 336 334 332 332
334 342 341 335 332 333 328 326 334 337 337 332 338 339 340 339 340 338 338 327 329 333 330 327 327 332 333 327 323 322 323 322 319 316 312 310 311 311 311 312 312 312 324 332 333 336 337 336 332
334 341 328 330 329 325 323 326 334 327 328 338 340 338 338 338 339 339 338 331 329 328 326 326 327 329 329 330 329 328 326 327 327 323 318 315 312 310 310 310 309 309 312 320 325 330 335 335 335
336 331 324 325 322 319 318 321 323 323 327 329 335 337 337 339 339 339 340 335 333 331 330 329 327 328 328 329 326 326 328 328 328 329 328 323 318 315 312 310 310 309 309 309 311 315 324 334 334
337 327 325 323 321 319 318 321 321 319 320 332 337 336 333 336 340 340 340 341 334 336 332 331 334 328 334 337 336 335 337 325 326 328 327 325 326 326 325 316 316 316 314 310 309 309 310 316 329
331 324 326 323 319 319 318 319 318 317 319 323 334 330 331 338 340 340 340 341 338 338 335 335 341 340 339 339 341 340 339 335 338 338 339 337 328 330 331 330 328 327 327 324 314 311 310 311 316
331 322 321 320 320 321 319 319 319 318 319 324 325 331 333 339 340 340 341 342 340 340 339 339 342 340 342 343 342 341 341 342 342 340 340 340 339 338 334 334 332 330 328 329 328 325 317 311 310
329 322 322 323 321 321 319 319 319 319 320 321 323 328 332 341 342 342 342 339 337 338 339 340 341 339 337 338 343 340 341 341 339 340 340 340 339 338 338 337 337 334 335 333 333 332 328 323 317
325 323 323 321 320 319 319 320 320 319 321 322 324 328 333 340 342 342 338 335 333 334 333 335 334 336 336 338 341 341 340 339 337 336 335 335 336 336 337 334 335 335 335 335 334 333 333 332 329
324 327 322 323 322 321 320 319 319 318 317 322 324 329 330 329 335 335 333 332 331 330 331 332 335 338 340 339 337 337 337 335 335 333 332 330 331 330 331 332 335 335 335 335 334 331 332 331 331
325 322 323 322 322 321 319 319 319 319 319 319 324 328 329 328 329 329 330 333 328 325 325 328 332 334 334 333 328 324 321 319 318 317 316 317 317 319 324 324 322 324 326 327 330 333 333 331 331
323 322 322 321 320 319 319 318 318 318 319 319 323 323 325 324 323 322 323 321 319 318 316 315 314 314 314 313 311 309 309 308 308 307 306 305 304 304 305 306 307 309 312 315 316 322 325 327 329
321 320 319 320 320 320 319 317 318 317 318 320 321 321 321 320 319 317 316 316 314 313 312 311 310 310 309 309 308 308 307 305 304 303 303 303 303 303 303 303 303 303 303 303 304 304 305 306 310
319 320 317 318 318 318 319 316 316 317 317 317 318 318 318 317 315 316 314 313 311 310 310 310 309 308 308 308 307 305 304 303 303 304 304 303 303 302 302 302 302 302 302 302 302 302 303 303 303
315 314 318 315 317 317 316 315 315 316 316 315 316 315 315 315 314 312 311 311 310 310 309 309 308 308 307 306 305 304 304 304 304 304 304 304 303 302 301 301 301 301 301 301 301 301 302 302 302
312 317 315 314 316 317 316 315 315 315 315 315 314 314 313 313 312 311 311 310 310 310 309 309 308 308 307 305 305 305 305 305 304 304 304 304 303 302 301 300 300 300 300 300 300 300 300 301 301
316 314 314 314 316 317 317 314 313 315 314 315 314 313 312 312 312 311 311 310 310 310 309 308 308 308 308 308 306 305 305 305 305 305 305 304 304 303 302 300 300 300 300 300 299 299 299 299 300
312 314 315 314 315 317 315 314 314 314 313 313 313 313 312 311 311 311 311 310 309 309 309 308 308 308 308 308 308 307 306 306 305 305 305 305 304 304 303 302 300 299 299 299 299 299 299 299 299
316 316 315 315 317 316 316 315 314 313 312 313 314 313 313 311 310 310 310 310 309 309 309 308 308 308 308 308 307 307 306 306 306 306 305 304 304 304 303 302 300 299 299 298 298 298 298 298 298
317 316 316 316 316 314 314 315 314 312 313 313 313 313 313 313 311 310 310 309 309 309 308 308 308 308 309 308 307 307 306 306 306 306 305 304 303 303 303 302 299 298 298 297 297 297 297 297 298
317 316 317 317 316 316 313 314 312 311 311 311 311 311 313 313 312 311 310 310 310 309 308 308 308 308 308 308 306 306 306 306 306 305 304 304 303 303 302 301 298 298 297 297 297 297 297 297 297
316 315 315 314 313 313 312 312 310 310 313 310 310 311 312 313 313 312 311 311 310 309 308 308 308 308 308 307 306 306 306 306 305 304 303 303 303 303 302 299 297 297 297 296 296 296 296 296 297
313 312 310 311 311 312 312 310 311 311 312 308 309 312 312 313 313 313 312 311 309 309 308 308 308 308 307 306 306 306 306 305 304 303 303 303 302 301 299 297 297 296 296 296 296 296 296 296 296
311 312 314 310 314 311 312 311 311 309 308 306 305 309 313 313 313 313 312 311 310 309 309 308 308 307 306 306 306 306 305 304 303 303 302 302 300 298 297 297 296 296 295 295 295 295 295 295 296
313 311 310 313 314 315 311 313 312 308 307 308 310 312 313 313 313 313 312 311 309 309 308 308 308 307 307 306 306 305 303 303 303 302 301 298 298 297 296 295 295 295 295 295 294 294 294 294 294
312 313 309 308 305 307 308 307 310 305 305 307 309 312 311 312 312 312 311 310 309 308 308 307 307 307 306 306 304 303 303 303 302 301 299 297 296 296 295 294 294 294 294 294 294 294 294 294 294
311 308 310 306 310 309 308 308 309 307 307 305 304 306 308 309 309 309 310 309 309 308 307 307 307 306 305 303 303 303 303 302 300 298 297 296 295 294 294 293 293 293 294 294 294 294 294 294 294
308 308 305 305 305 310 309 306 303 307 306 303 303 306 307 307 307 307 307 307 307 308 307 307 306 304 303 303 303 303 302 300 298 296 295 295 294 294 293 292 292 294 294 294 294 294 294 294 294
307 308 305 307 306 303 302 307 306 303 303 304 304 306 306 307 307 307 307 307 307 306 306 305 304 303 303 303 303 301 300 298 296 295 294 294 293 292 292 293 294 294 294 294 294 294 294 294 294

GFSSGP_850_thetae_066.txt.gz
Theta_e
333 340 347 343 344 340 340 340 338 342 341 339 337 336 336 337 333 336 334 341 332 340 342 340 327 337 330 324 320 320 318 312 310 311 313 316 325 319 325 326 328 338 338 336 333 331 334 334 334
332 343 344 341 344 344 340 337 341 342 340 337 336 335 334 335 335 333 333 334 336 339 342 341 334 334 325 321 320 321 320 316 313 310 311 312 311 312 314 317 318 327 335 335 337 337 334 332 332
334 341 341 343 343 345 339 338 342 339 337 337 339 338 336 337 339 335 335 331 336 339 341 333 332 335 327 325 323 323 322 321 319 316 313 311 310 310 309 310 310 316 326 330 332 335 336 336 333
334 336 334 344 344 337 335 338 338 339 335 337 340 339 336 337 338 336 336 337 338 341 342 329 331 333 327 327 327 326 327 328 327 324 320 317 315 311 310 309 309 310 312 317 322 326 332 335 334
335 335 341 341 336 331 330 337 339 335 332 338 339 339 338 335 338 338 339 338 340 342 342 338 331 328 327 326 326 325 322 324 326 326 326 324 324 321 313 313 315 313 310 309 309 310 316 325 332
341 334 342 342 335 327 329 337 336 332 331 334 338 337 338 336 341 341 340 340 341 342 342 341 327 335 337 337 337 339 329 331 334 338 336 327 327 329 327 327 326 326 326 317 312 310 310 310 317
342 340 340 340 334 328 329 335 328 327 328 331 337 336 336 338 344 344 341 341 342 341 343 345 344 340 339 340 340 339 337 338 339 339 339 339 337 331 333 332 330 328 329 328 327 325 318 311 311
337 337 338 336 334 332 327 331 324 323 324 326 331 336 337 339 343 345 345 344 343 342 343 345 345 344 342 341 340 340 340 339 338 339 338 338 337 337 336 336 337 336 333 334 334 334 333 329 323
329 338 339 337 333 332 323 327 321 320 323 328 329 330 335 338 339 342 344 340 341 340 341 344 344 341 339 338 338 341 339 339 338 337 336 335 334 335 334 335 335 332 333 332 333 334 333 332 332
334 339 337 334 331 329 323 324 323 323 324 328 326 326 333 340 339 341 342 342 341 341 342 344 343 340 338 338 338 338 337 336 335 333 332 332 331 330 330 331 331 331 332 331 332 331 332 331 331
333 338 333 328 327 326 324 323 323 324 326 325 325 327 332 335 340 342 342 341 341 340 335 339 339 338 338 339 338 336 335 333 329 327 326 325 323 322 325 325 326 327 328 327 327 327 328 329 331
333 328 328 326 325 324 325 324 323 324 325 322 324 327 331 334 337 340 340 337 335 335 334 334 335 337 340 338 334 329 321 314 309 308 306 305 304 304 304 304 304 304 304 305 305 307 310 314 319
330 327 325 323 322 324 323 324 325 323 321 320 324 327 330 332 335 337 335 331 331 332 333 334 337 335 329 324 318 311 309 307 304 304 304 304 305 304 304 304 304 304 303 303 303 303 303 304 304
325 326 324 323 323 322 324 323 321 322 319 322 324 326 328 329 330 330 328 326 326 326 325 324 319 317 313 310 309 308 305 304 304 305 306 306 306 305 305 304 303 303 303 302 303 304 303 305 305
322 325 324 323 323 323 322 324 324 321 320 322 325 325 325 325 325 326 325 322 318 315 315 312 311 310 309 309 307 304 304 304 305 306 306 307 306 306 305 305 304 303 302 302 302 302 302 304 304
323 325 329 323 322 320 321 333 322 318 320 321 322 324 323 321 321 322 319 316 314 311 310 310 309 308 308 306 304 304 304 305 305 306 306 307 306 306 306 305 305 305 304 302 301 301 302 303 303
322 336 333 328 321 322 321 330 321 318 319 321 321 321 321 320 318 316 314 313 311 310 310 309 308 308 306 305 304 305 305 305 306 306 306 306 306 306 306 306 305 305 305 303 301 301 301 302 303
327 325 326 331 322 321 322 323 322 318 318 320 320 319 319 318 316 314 312 311 310 310 309 309 308 307 306 306 305 306 306 306 306 306 306 306 306 306 305 305 305 305 305 304 302 301 301 301 303
328 326 326 320 318 321 322 322 322 321 319 319 319 319 317 317 316 313 311 310 309 309 309 309 308 307 308 308 307 307 307 306 306 306 306 306 305 305 305 305 305 304 305 305 303 301 300 301 302
320 322 323 320 319 320 322 322 322 319 319 318 318 319 318 316 314 312 310 310 309 309 309 308 308 307 308 308 308 308 308 307 306 306 306 306 305 305 304 304 304 303 303 304 303 300 300 301 301
324 324 323 320 320 319 320 321 320 318 317 316 316 316 317 316 314 312 310 310 309 309 309 308 308 307 307 308 308 308 307 307 306 306 305 305 304 304 304 303 303 303 302 302 301 300 300 301 301
321 319 319 320 320 320 319 318 321 317 319 316 314 316 315 316 314 313 311 310 310 309 309 308 308 307 307 307 308 308 308 309 308 306 305 304 304 303 303 303 302 302 302 300 300 299 300 300 300
321 319 320 319 320 320 320 320 320 319 319 316 315 314 314 314 314 313 311 311 310 309 309 308 308 307 307 307 307 307 307 307 306 306 305 303 303 303 303 302 302 301 299 299 299 298 299 299 299
318 319 319 319 320 321 318 318 319 318 315 315 314 314 313 312 312 313 311 309 309 309 309 308 308 307 307 307 307 307 307 306 305 304 303 303 303 303 303 302 301 299 298 298 297 297 298 298 298
318 321 319 320 321 319 317 318 320 315 312 312 313 313 312 312 312 311 310 310 309 309 308 308 307 307 307 307 306 306 306 306 305 303 303 303 302 302 302 300 299 297 297 296 296 296 297 297 297
320 320 319 318 318 320 316 319 319 311 311 311 311 312 312 311 311 310 310 311 310 309 308 308 307 307 306 306 306 306 305 304 303 302 302 302 302 300 299 298 297 296 296 296 296 296 296 296 297
318 320 316 317 314 317 318 316 314 312 311 311 311 311 310 309 309 308 309 309 309 308 308 307 307 306 306 306 305 304 303 302 302 303 302 301 300 298 297 296 296 295 295 295 295 296 296 296 297
317 314 318 318 318 317 316 315 317 313 312 311 311 310 309 308 308 307 307 307 307 307 307 307 306 306 305 304 303 302 302 302 302 302 301 299 298 296 295 295 294 294 295 295 296 296 296 296 297
315 317 314 316 316 317 316 316 313 314 311 311 309 309 308 308 307 307 306 306 306 305 305 305 305 305 304 303 302 302 302 302 302 300 298 297 295 295 295 294 294 294 295 296 296 296 296 296 297
312 315 316 316 315 314 315 316 310 311 309 309 308 308 308 307 307 306 305 305 305 304 304 304 304 303 302 302 302 302 302 301 299 297 296 295 295 294 294 294 294 295 295 296 296 296 296 296 296

GFSSGP_850_thetae_072.txt.gz
Theta_e
332 344 350 354 358 353 345 341 340 340 340 336 333 332 332 332 338 349 341 340 340 344 336 333 337 323 320 319 319 317 312 310 311 311 313 314 312 314 319 319 325 335 335 336 336 333 331 331 330
333 345 350 354 355 352 345 338 343 340 337 335 336 334 333 333 335 338 340 339 339 341 345 333 334 323 319 319 320 319 317 315 312 311 311 310 310 310 311 310 312 324 331 331 334 337 337 334 331
336 345 349 355 354 350 344 341 339 337 336 336 336 335 335 336 335 337 337 338 339 341 342 340 336 326 325 323 323 322 322 321 319 317 315 313 311 310 309 309 310 314 317 322 325 328 331 335 333
339 345 345 349 350 345 341 339 337 337 335 335 336 335 338 337 335 335 335 336 339 340 336 327 327 325 326 326 325 326 327 327 326 324 322 323 319 314 312 314 313 311 309 309 310 310 313 316 320
337 342 352 349 346 342 338 337 336 336 334 334 334 336 337 338 335 334 335 338 339 342 337 326 324 324 324 324 324 322 324 326 333 332 327 326 326 323 324 326 325 326 324 320 318 316 312 310 311
338 342 348 349 345 339 337 335 335 332 332 333 334 337 337 337 336 336 337 338 340 340 339 335 329 334 335 340 337 331 334 336 337 338 338 336 333 331 331 335 333 334 333 331 331 331 331 329 324
341 348 348 343 344 341 337 335 334 332 330 332 333 338 338 338 339 338 339 339 340 340 342 339 337 339 339 338 337 337 336 338 338 338 337 337 337 337 336 336 336 335 334 332 332 332 334 332 332
340 347 348 344 342 341 335 335 330 329 332 333 332 336 337 339 340 339 339 339 340 339 341 340 342 340 339 339 338 338 338 338 338 337 335 334 334 332 336 334 334 333 331 332 332 332 333 332 332
335 345 345 342 341 338 333 334 328 326 327 328 330 337 337 341 342 340 339 339 339 338 343 342 340 339 339 338 337 337 337 335 332 331 327 327 328 329 329 328 329 330 328 328 328 327 328 329 329
336 343 343 340 337 336 334 334 327 325 325 328 331 332 341 342 342 341 339 340 339 338 342 342 339 338 338 336 337 336 334 327 324 322 320 319 321 320 318 318 321 320 318 318 314 313 317 316 317
337 339 339 338 335 334 332 333 327 326 328 329 330 330 337 340 341 341 340 338 337 338 341 337 339 338 336 335 330 324 322 320 317 312 312 312 309 308 307 306 305 306 306 306 307 307 307 307 307
338 336 336 335 331 331 331 329 328 327 330 329 328 330 334 336 339 340 339 338 339 339 339 341 340 338 335 329 325 322 316 312 310 309 308 307 307 307 308 308 308 308 307 307 307 307 307 306 307
337 336 333 331 328 329 329 329 328 327 328 327 327 330 332 334 337 338 338 338 340 340 339 338 338 334 329 324 321 316 311 310 307 305 307 308 308 308 308 308 307 307 307 307 306 306 306 306 306
330 333 332 327 328 328 329 329 327 329 328 326 325 328 331 332 334 336 337 337 337 337 336 335 331 326 321 316 313 311 309 307 305 307 308 308 308 308 308 308 307 307 307 307 307 307 307 307 306
328 332 330 329 327 327 325 330 327 328 327 325 325 327 328 330 332 335 337 336 335 335 331 328 323 318 314 312 311 309 306 305 306 307 308 308 308 308 308 308 307 307 307 307 307 307 307 306 306
331 331 335 329 327 324 325 333 327 326 325 325 326 326 327 329 331 334 334 333 333 329 323 319 315 313 312 311 308 306 306 306 307 307 307 308 308 307 307 307 307 307 307 307 306 306 306 306 305
332 336 337 332 330 328 326 329 324 323 323 324 324 325 327 327 329 330 331 330 326 321 317 315 312 312 311 309 308 307 307 308 307 307 307 307 307 307 307 307 307 307 306 306 306 305 305 305 305
335 333 336 338 337 333 331 327 326 329 322 322 323 323 325 326 326 326 328 325 321 317 314 313 311 311 310 308 308 308 308 308 308 308 307 307 307 307 306 306 306 306 306 305 305 305 305 304 304
334 335 336 329 326 333 333 329 329 329 323 322 322 322 322 324 324 323 323 321 317 314 313 312 311 310 309 308 308 308 309 309 308 308 307 306 306 306 306 306 305 305 305 305 304 304 304 304 303
333 335 337 331 322 324 328 330 330 328 323 320 320 320 321 322 322 322 319 318 315 313 312 312 311 309 309 309 309 310 310 310 310 309 309 307 306 306 306 305 305 305 304 304 304 304 303 303 302
333 332 333 331 324 327 328 324 323 321 320 319 319 319 319 319 321 320 317 316 314 313 312 312 311 310 309 309 310 310 310 310 310 309 308 309 308 307 306 305 305 305 304 304 304 303 303 302 302
332 330 330 330 326 330 321 323 322 320 320 318 318 318 319 319 320 320 317 315 314 313 312 312 311 310 310 309 310 310 309 309 310 311 310 309 308 307 306 305 305 304 304 303 303 302 302 301 301
329 325 328 329 325 322 322 321 320 319 320 317 318 317 317 318 319 319 317 315 314 313 312 312 311 311 310 310 309 309 309 310 310 310 310 309 308 306 305 305 305 304 303 303 302 301 301 300 300
323 323 323 322 322 321 320 320 320 319 316 316 317 316 316 316 318 318 316 315 314 313 312 312 311 310 310 309 309 309 309 309 309 310 310 308 307 306 305 305 304 303 303 302 301 300 299 298 298
323 323 326 327 324 324 320 320 318 315 316 317 316 315 315 316 317 315 314 314 313 312 312 312 311 310 310 309 309 309 309 309 309 309 309 307 306 305 304 303 303 303 301 301 299 299 298 298 297
322 322 323 324 325 323 320 320 316 315 316 317 316 315 315 315 315 314 313 313 312 312 311 311 311 310 309 309 309 309 309 309 308 306 305 305 304 303 303 302 302 301 300 298 298 297 297 297 297
322 320 320 320 318 318 319 316 315 314 315 316 315 314 313 313 312 312 312 312 312 311 311 311 310 310 310 309 309 308 306 305 304 304 303 303 303 302 302 301 300 299 297 297 297 296 296 296 296
320 318 320 319 319 321 320 319 316 314 314 313 313 313 312 311 311 310 309 309 308 307 307 306 306 307 306 306 305 305 305 304 304 303 302 302 302 301 300 299 298 297 297 296 296 295 296 296 297
318 319 318 318 319 319 318 316 315 314 313 312 312 312 312 311 310 309 308 308 307 307 306 306 305 305 304 304 304 304 303 303 303 302 302 301 300 300 299 297 297 296 296 295 295 295 295 296 297
316 319 319 319 319 317 316 316 314 313 313 313 312 312 311 310 309 309 308 308 308 307 307 306 305 304 304 303 303 302 302 302 302 301 301 300 299 298 297 296 295 295 295 295 295 295 296 296 297

GFSSGP_850_thetae_075.txt.gz
Theta_e
328 344 348 352 348 343 339 338 335 336 336 333 331 331 331 334 342 347 343 342 341 341 331 333 332 319 319 319 317 314 311 311 311 311 311 310 312 315 315 317 324 333 333 336 338 336 333 331 329
331 347 348 351 348 349 338 335 337 335 334 335 332 333 333 335 338 341 340 340 340 341 332 331 322 319 318 319 319 317 316 314 313 312 311 310 309 309 309 310 315 323 326 327 330 334 334 332 330
342 345 346 348 351 348 340 337 334 334 334 335 334 335 336 335 338 340 339 339 341 341 341 336 328 323 322 321 321 321 321 320 319 318 318 315 312 311 310 310 310 310 312 314 315 315 317 317 325
338 343 344 345 348 344 339 334 334 334 334 334 335 337 338 336 337 337 338 338 341 341 335 333 326 324 324 324 324 324 325 325 324 323 323 324 318 316 319 321 322 319 314 313 312 311 310 310 311
335 338 347 345 346 340 336 335 335 332 333 333 335 336 336 335 334 335 336 339 339 339 332 322 322 322 323 323 321 323 327 336 336 334 330 328 328 328 331 333 334 331 329 330 330 330 328 324 320
334 342 344 345 343 338 334 336 335 332 333 334 336 336 336 334 333 335 338 339 340 339 332 325 329 333 339 335 330 335 336 337 338 337 337 338 337 335 336 334 335 334 333 332 332 333 332 332 332
334 340 345 343 341 340 335 335 332 329 332 330 337 336 336 335 335 337 338 340 339 335 338 335 337 338 337 338 337 336 337 337 337 337 336 335 336 335 336 335 334 333 332 332 332 332 332 331 331
337 340 345 341 341 338 334 332 329 329 332 332 336 335 336 337 337 338 339 339 339 338 341 337 333 333 337 337 338 336 336 336 336 334 333 331 330 331 334 331 331 330 328 329 329 327 330 329 329
335 338 341 340 340 337 334 329 327 328 330 330 335 337 336 338 339 338 339 339 339 341 341 340 337 335 335 336 336 335 336 333 329 327 325 323 327 327 326 325 325 325 325 323 321 323 323 324 325
334 336 337 337 335 335 332 329 326 325 326 330 336 337 338 339 340 339 339 338 339 341 342 340 338 336 336 335 336 336 333 330 327 323 321 320 317 314 311 307 307 307 306 306 306 306 306 306 306
335 334 335 337 335 334 333 328 326 323 323 329 332 338 340 341 341 340 339 339 339 340 342 341 340 339 334 335 335 328 325 325 323 319 319 316 309 307 306 307 307 307 308 308 308 308 307 307 307
335 335 336 334 335 331 331 329 326 325 327 328 329 334 342 342 341 341 339 339 338 341 341 340 340 336 335 333 328 325 323 319 315 312 310 308 307 308 308 308 308 308 308 307 307 307 307 306 306
334 334 335 329 329 331 329 326 326 326 327 327 328 331 337 339 341 341 339 338 338 340 340 340 339 338 336 332 326 323 319 315 310 306 306 307 308 309 309 308 308 308 307 307 307 307 307 307 307
332 333 333 327 327 326 326 326 328 327 326 325 329 330 333 333 338 339 339 339 339 340 339 338 337 336 333 328 325 320 316 310 306 306 308 309 309 308 308 308 308 308 308 308 307 306 306 306 305
327 329 328 328 327 327 326 330 327 327 326 325 325 330 331 332 334 337 337 339 339 338 337 336 332 329 327 323 317 312 310 306 306 307 308 308 308 308 308 308 308 308 308 307 307 307 306 306 305
328 329 329 329 327 323 327 332 324 324 325 324 325 326 328 329 331 335 336 335 336 336 335 332 328 324 318 314 312 309 306 306 306 307 308 308 308 308 308 308 308 307 307 307 307 306 306 305 304
329 330 333 326 328 327 328 327 326 331 329 322 323 325 327 328 330 334 336 334 333 333 332 328 320 315 313 312 309 306 306 306 306 306 307 307 307 307 307 307 307 307 307 307 306 306 305 305 304
329 331 332 332 333 330 329 331 330 330 332 328 323 323 326 328 329 331 331 332 330 328 325 321 314 312 311 311 308 308 307 308 307 307 307 307 307 307 307 307 307 307 306 306 305 305 305 304 303
329 329 331 331 334 334 335 333 329 326 327 324 322 321 321 326 327 328 330 328 323 319 318 315 312 311 311 309 308 308 307 307 308 307 307 307 307 307 307 306 306 306 306 305 305 304 304 304 303
332 332 333 327 323 323 328 327 326 327 327 322 321 320 320 319 325 325 327 325 321 317 314 313 312 311 310 309 308 309 309 310 310 309 309 309 308 307 306 306 306 305 305 305 304 304 303 303 302
332 331 330 331 326 322 325 324 323 323 320 319 319 319 319 319 322 324 323 321 318 314 313 312 312 310 309 309 309 310 310 310 310 309 310 309 309 310 309 308 306 306 305 305 304 304 303 302 302
332 329 329 323 323 326 323 323 317 318 316 315 317 318 318 319 319 321 320 318 316 314 312 312 311 310 310 309 309 310 310 310 310 309 311 311 310 310 309 307 306 305 305 304 304 303 302 302 301
330 326 326 324 323 319 320 317 314 315 315 316 315 316 316 317 318 319 318 317 315 313 312 312 311 311 310 310 310 309 309 309 309 310 310 310 310 309 308 306 305 305 305 304 303 303 302 301 300
322 321 321 318 317 318 317 318 315 315 314 314 314 316 316 317 318 318 317 315 314 313 312 312 311 311 310 310 310 309 309 309 308 309 310 310 309 308 306 305 305 304 304 303 303 302 301 299 298
320 320 321 322 318 317 315 317 315 313 313 312 312 315 315 315 316 316 315 314 314 313 313 312 312 311 310 310 309 309 309 309 309 309 309 309 309 306 305 305 305 304 303 302 301 300 298 298 297
321 318 320 324 322 321 318 316 314 313 314 315 315 315 315 314 314 314 313 313 312 312 312 311 311 311 310 310 309 309 309 309 309 309 308 306 306 305 304 303 303 302 301 300 299 297 297 296 296
320 319 318 316 316 314 316 313 312 313 313 312 313 313 314 313 313 313 313 313 312 311 311 311 311 310 310 309 309 309 309 308 306 304 304 303 303 303 302 302 301 300 299 298 297 296 296 295 295
318 317 315 314 316 318 316 313 313 312 312 310 310 311 312 311 311 311 311 311 311 311 310 308 308 307 307 306 306 305 305 305 304 304 303 302 302 301 301 300 299 298 297 297 296 295 295 295 295
314 316 316 314 315 315 314 313 310 310 311 310 309 311 311 310 310 309 308 308 307 307 307 306 306 305 305 304 304 303 303 303 302 302 302 302 301 301 300 300 298 297 296 295 295 295 295 295 295
314 316 314 313 315 312 311 312 308 309 310 310 310 311 310 309 308 308 308 307 307 306 306 305 305 305 304 304 303 303 302 302 302 301 301 301 300 300 297 296 296 295 294 294 294 294 295 296 296

GFSSGP_850_thetae_078.txt.gz
Theta_e
327 342 347 351 344 340 338 337 333 335 332 330 329 329 331 336 343 342 341 342 342 331 329 326 329 322 318 317 313 311 310 311 311 310 310 311 313 314 314 320 329 331 333 337 336 335 331 328 332
334 347 349 350 344 347 336 334 336 334 331 331 332 333 333 335 341 342 343 343 338 336 328 333 319 318 318 318 317 315 314 313 313 312 311 310 309 309 309 313 319 321 322 324 325 324 324 328 330
342 344 345 345 349 348 338 335 333 332 332 333 333 336 335 335 339 339 339 339 341 336 333 331 322 320 319 319 319 320 320 319 319 320 318 314 313 313 312 310 309 309 310 310 310 310 311 316 326
338 343 344 345 346 342 339 333 333 332 333 334 336 336 336 336 336 337 339 338 340 340 337 334 326 323 323 323 324 325 324 323 323 324 324 320 319 322 324 326 325 323 323 322 319 317 314 311 313
333 338 344 344 343 340 334 333 333 331 332 334 335 336 334 338 338 336 338 339 340 338 325 324 322 322 322 321 323 325 334 335 334 333 332 331 331 334 335 336 333 332 332 332 332 331 330 329 323
332 340 341 344 343 341 333 334 333 331 332 334 336 335 334 335 334 336 336 339 338 336 326 322 326 326 326 324 330 335 337 337 337 337 337 337 336 336 335 335 334 333 332 331 332 332 332 331 331
333 337 342 341 341 338 335 334 331 329 330 333 336 334 334 334 333 335 336 339 339 335 334 331 336 336 336 336 335 336 336 336 336 336 335 334 335 335 335 334 332 331 330 331 331 331 331 331 329
333 337 342 341 341 338 336 333 334 332 329 335 336 335 333 333 335 335 338 340 338 335 337 334 334 332 333 334 335 335 335 335 334 331 331 329 329 330 331 329 328 327 326 327 326 327 328 327 328
336 336 340 340 341 338 333 326 326 331 330 330 336 336 336 335 335 337 339 339 338 338 340 337 333 333 335 334 334 334 333 331 329 328 326 321 325 325 323 323 323 322 319 316 314 315 319 320 323
332 333 336 335 335 334 332 327 325 326 330 335 337 336 336 336 337 338 339 339 339 339 340 340 335 334 334 335 333 333 332 330 328 326 323 319 316 311 307 306 306 306 306 306 307 307 307 307 307
332 333 334 334 333 334 331 326 325 324 324 332 334 336 336 337 337 338 339 338 337 338 340 341 337 336 336 334 333 331 329 326 325 322 319 318 309 307 307 307 307 307 307 307 307 307 307 307 307
335 334 335 333 330 330 330 328 323 324 324 327 329 331 337 339 339 338 338 339 339 339 340 341 339 338 334 332 332 330 329 323 318 315 312 310 307 307 308 308 307 307 307 307 307 307 307 307 307
331 334 335 333 328 326 328 325 324 326 327 328 333 337 338 339 340 339 338 338 339 340 341 341 340 336 334 333 332 329 327 319 313 311 308 306 307 308 308 308 307 308 308 308 307 306 306 306 305
332 333 335 331 327 326 325 327 326 325 326 328 334 338 339 340 340 340 340 338 339 341 341 339 339 337 334 333 329 328 323 315 310 306 307 308 308 308 308 308 308 308 308 307 307 307 306 306 305
328 331 327 327 327 327 327 326 326 323 325 327 334 341 341 340 341 341 340 339 338 341 340 339 338 336 332 329 325 323 317 310 306 306 308 308 308 308 308 308 308 308 307 307 307 307 306 306 305
328 326 328 328 325 323 329 329 327 327 323 325 330 331 333 332 336 337 338 338 340 339 339 337 335 332 329 323 317 313 310 307 306 307 308 308 308 308 308 308 308 307 307 307 307 307 306 306 305
328 329 329 326 326 327 329 329 326 331 326 323 322 326 329 331 331 332 336 340 339 338 336 333 331 326 321 316 312 310 307 306 306 306 307 307 307 307 307 307 307 307 307 307 307 306 306 306 305
328 329 329 326 327 328 328 327 329 330 331 329 326 323 325 329 329 334 336 336 335 335 334 330 323 320 317 313 311 308 306 306 306 306 307 307 307 306 307 307 307 307 307 306 306 306 306 305 304
327 329 330 330 331 330 326 331 330 330 328 328 328 321 321 327 331 334 334 333 333 331 329 326 323 319 316 312 311 308 307 307 307 307 307 307 307 307 307 306 306 306 306 306 305 305 305 305 303
329 329 330 324 333 330 332 333 332 329 326 327 324 320 319 322 327 331 332 331 330 329 325 321 317 314 313 311 310 308 308 307 308 309 309 309 309 308 308 307 307 307 306 305 305 305 304 303 303
331 331 328 327 326 323 324 325 323 324 323 320 319 319 318 319 322 328 328 327 325 324 320 316 314 313 311 310 309 308 309 309 309 309 309 309 309 309 309 310 309 308 306 305 305 305 304 303 302
333 328 330 329 327 331 324 328 316 318 315 315 316 317 317 318 319 325 323 321 321 319 315 314 313 312 311 310 309 309 309 310 310 310 309 309 310 310 310 309 308 307 306 305 305 304 303 303 302
330 326 329 328 325 320 320 318 315 314 316 315 314 315 316 317 319 322 318 319 317 315 314 313 312 311 311 310 310 309 309 309 310 309 309 309 310 310 309 308 307 305 305 305 304 303 303 302 301
323 321 321 320 318 322 319 319 315 314 313 313 313 315 315 317 318 320 317 316 315 313 312 312 311 311 310 310 309 309 309 309 309 309 308 308 309 309 308 307 306 305 304 304 303 302 302 301 300
322 324 322 321 318 320 314 316 317 313 311 312 312 314 314 317 318 318 316 315 314 313 312 311 311 311 310 310 309 309 309 309 309 308 309 309 309 309 307 306 305 304 303 302 302 301 300 299 297
323 325 320 321 319 318 314 317 314 312 312 314 314 314 312 314 315 315 314 313 313 312 312 311 311 311 310 310 310 309 309 309 309 309 308 307 306 305 304 304 303 302 302 301 300 300 298 297 296
319 321 316 314 314 315 314 312 311 311 310 311 312 313 312 312 312 313 313 313 312 312 312 311 311 311 311 310 310 309 309 308 307 306 305 304 303 303 303 302 302 301 301 300 299 298 297 296 295
318 318 317 313 315 316 313 312 313 312 311 309 309 311 310 311 312 312 312 312 311 311 311 311 310 309 308 307 306 305 304 304 304 303 303 302 302 302 301 301 301 300 299 298 296 296 295 295 294
316 319 315 315 313 314 313 313 308 311 310 309 309 311 310 310 310 310 310 309 308 307 307 307 306 306 305 305 304 303 303 303 302 301 301 301 301 301 300 300 298 296 296 295 295 294 294 294 294
314 315 312 314 315 310 309 311 308 308 310 310 310 310 310 310 309 308 308 307 307 307 306 306 305 305 304 304 304 303 303 302 301 301 301 300 300 299 297 296 296 295 294 294 293 293 294 294 294

GFSSGP_850_thetae_081.txt.gz
Theta_e
327 338 345 349 344 336 337 336 332 333 330 329 329 330 331 337 340 338 340 340 339 331 332 337 331 332 318 313 310 311 311 311 310 310 311 313 315 313 317 326 330 330 337 337 334 330 329 330 332
336 346 347 350 342 345 336 333 334 333 329 331 332 333 331 337 341 340 341 342 337 328 330 330 323 319 318 315 314 313 312 312 312 311 310 309 309 309 311 316 318 319 321 321 319 318 327 330 332
342 344 345 343 345 347 336 334 332 330 331 332 335 335 333 335 337 336 340 340 335 327 331 323 318 318 318 317 317 317 318 318 319 317 315 314 313 313 311 309 309 310 309 309 309 310 316 327 332
337 343 342 344 347 343 339 333 331 329 331 333 336 334 335 337 332 335 337 338 337 337 333 329 323 321 320 321 322 323 323 322 324 323 320 320 323 327 329 324 323 323 323 322 320 316 312 314 324
333 340 343 343 343 340 334 333 331 330 331 334 335 335 334 337 337 335 334 339 339 334 330 329 322 322 322 323 324 327 332 332 332 333 333 333 337 336 337 334 331 331 332 332 331 330 329 324 316
332 338 342 344 342 340 332 333 332 330 331 334 335 333 335 338 338 337 335 339 338 334 322 321 322 322 321 324 334 338 338 337 336 337 337 336 336 335 335 334 333 332 331 331 331 331 331 331 329
331 337 341 340 340 338 334 333 329 329 331 334 335 332 333 336 337 334 336 339 338 329 323 328 330 331 328 335 336 335 335 336 336 335 335 334 334 334 334 333 331 329 329 330 330 330 330 329 329
331 334 342 340 341 338 334 333 333 331 330 334 335 332 333 335 336 335 338 339 337 333 330 335 336 333 333 333 334 334 333 332 331 327 329 328 329 330 330 329 327 326 325 326 326 327 328 327 327
335 336 340 340 340 338 333 328 328 331 331 335 336 335 335 333 335 336 339 339 336 334 333 335 333 334 333 334 333 332 330 330 328 326 324 321 325 324 324 323 323 322 317 313 312 315 317 320 323
331 333 336 335 336 334 332 327 325 329 330 332 335 336 334 333 335 336 339 339 337 336 336 335 333 335 335 334 332 331 330 329 327 324 321 318 315 312 308 309 307 306 306 307 307 307 307 307 307
330 333 332 334 333 334 331 324 325 326 327 332 335 336 333 334 335 335 338 339 338 337 337 338 335 335 335 334 333 330 329 328 323 321 318 317 309 306 306 306 307 307 307 307 307 307 307 307 307
333 331 333 333 328 329 329 326 322 329 327 330 331 333 334 334 334 335 338 339 338 338 338 339 336 336 336 334 333 330 328 327 319 317 314 311 307 307 307 307 307 307 307 307 307 306 306 305 305
330 333 335 332 328 327 326 325 323 324 325 326 330 334 335 335 335 336 337 338 339 339 339 340 338 337 335 334 331 329 327 325 316 313 311 308 307 308 307 307 307 308 307 307 307 307 306 305 304
329 331 334 333 327 327 326 326 325 324 326 327 332 334 335 336 336 337 338 338 339 339 339 339 339 338 334 333 330 327 325 320 313 310 307 306 308 308 307 308 308 308 307 307 307 307 307 306 306
330 332 328 327 327 327 327 326 324 323 326 332 335 335 335 337 338 337 337 337 338 338 339 339 338 337 335 333 328 325 322 317 311 306 306 308 308 308 308 307 308 307 307 307 307 307 307 307 307
327 326 330 326 325 324 328 329 324 323 325 331 335 336 337 338 339 339 339 339 339 338 339 338 336 336 335 330 325 320 315 312 308 306 307 308 308 308 307 307 307 307 307 307 307 307 307 306 306
326 328 328 326 325 326 327 329 324 326 323 325 331 338 340 340 340 340 340 339 338 338 339 337 337 336 332 326 318 313 311 309 306 307 307 307 307 307 307 307 307 307 307 307 306 306 306 306 306
327 329 326 325 326 327 328 329 327 330 329 322 324 328 331 333 331 334 337 337 338 339 338 337 336 333 327 319 313 311 308 306 306 306 306 307 307 307 306 307 306 306 306 306 306 306 306 305 305
326 327 328 327 326 327 328 329 327 329 330 330 325 323 322 326 329 330 331 334 339 339 338 335 333 327 320 315 313 310 309 307 306 306 306 307 307 307 307 307 307 307 306 307 307 306 306 305 304
326 329 328 324 331 327 327 327 328 328 328 328 329 326 324 320 325 330 335 338 339 337 334 332 327 321 316 313 311 310 308 307 307 307 308 308 309 309 309 309 309 309 308 308 307 306 305 305 304
328 328 326 329 327 323 328 327 326 324 326 323 321 322 320 320 324 333 337 337 335 334 331 327 321 317 313 311 311 309 308 308 308 309 309 309 309 309 309 309 309 309 309 308 307 305 305 304 303
331 328 327 327 327 331 324 331 319 317 318 315 315 317 318 318 320 328 333 335 334 331 325 320 316 313 312 311 310 309 309 309 309 309 310 309 309 309 309 309 309 309 308 307 305 305 304 303 303
329 327 328 327 325 325 321 323 320 314 315 314 313 315 316 317 318 320 328 333 332 325 318 315 313 312 311 311 310 310 309 309 309 309 310 309 309 309 310 310 309 308 307 305 304 304 303 302 302
323 321 321 320 321 324 322 324 322 314 314 313 313 314 315 316 317 318 322 328 323 317 314 313 312 311 311 310 309 309 309 309 309 309 309 308 308 308 309 309 308 307 305 304 303 303 302 301 300
322 323 323 325 327 326 316 320 322 312 311 312 311 313 314 316 316 318 319 319 316 314 312 312 311 311 310 309 309 309 309 309 309 309 308 308 308 309 308 307 306 304 304 303 302 301 300 300 299
322 324 321 324 319 319 315 317 315 310 310 312 312 312 313 314 315 316 314 314 313 312 312 311 311 310 310 309 309 309 309 309 309 308 308 308 307 306 304 304 303 302 302 301 301 300 299 298 298
322 323 321 315 312 315 314 312 311 310 310 310 310 311 311 312 313 314 312 312 312 312 311 311 310 310 310 310 309 309 309 308 307 307 306 304 304 303 303 302 302 301 301 300 300 299 298 297 296
317 321 319 316 316 316 312 313 313 312 310 309 308 308 310 311 312 312 312 312 312 311 311 311 310 310 308 307 305 305 304 303 303 303 302 302 302 301 301 301 300 300 299 298 297 296 296 295 295
316 316 313 312 311 313 314 313 308 310 309 308 308 309 310 311 311 311 311 311 311 310 310 308 307 306 306 305 304 304 303 303 303 302 302 301 301 300 300 299 298 296 296 296 296 295 294 294 293
314 315 314 316 315 308 309 311 307 305 308 310 309 310 310 311 311 311 310 309 308 307 307 306 306 306 305 304 303 303 303 303 302 301 300 300 299 299 298 296 296 296 296 295 294 293 293 292 292

GFSSGP_850_thetae_084.txt.gz
Theta_e
329 336 344 347 343 334 336 335 331 331 329 328 328 331 332 336 339 336 337 338 337 337 335 335 329 331 316 311 311 312 312 311 311 310 312 316 315 314 319 325 327 336 337 336 333 328 328 331 334
336 343 344 348 341 344 339 332 333 330 329 331 331 332 331 337 340 338 338 339 333 329 329 333 327 323 316 313 311 311 311 311 311 310 309 309 309 310 314 317 318 320 320 318 318 326 328 329 331
341 344 345 341 340 343 338 331 331 330 330 331 334 333 331 334 337 334 338 335 332 326 327 326 318 317 316 315 315 316 316 317 317 316 314 313 312 310 309 310 310 309 309 309 310 315 325 328 329
336 341 342 343 346 343 336 333 330 327 329 332 335 332 334 336 331 335 334 331 327 326 331 321 318 318 318 318 319 321 321 322 322 320 320 323 329 331 323 319 320 321 322 320 316 312 313 319 327
332 340 341 342 342 340 335 332 329 328 330 334 333 333 333 335 335 331 333 336 333 330 330 328 321 320 320 322 323 324 329 331 332 333 333 337 337 337 335 329 330 331 331 330 329 329 325 317 316
332 337 342 344 341 338 334 333 330 329 330 333 334 333 335 337 336 332 335 337 336 328 328 323 322 321 321 323 333 335 335 335 337 337 337 337 335 335 335 333 332 331 331 331 331 331 331 330 325
328 336 340 339 339 338 335 332 329 328 330 334 333 331 333 338 337 333 337 338 337 327 321 322 322 321 324 335 337 335 334 337 335 335 335 334 334 334 333 332 330 329 329 330 330 330 330 328 329
329 334 340 338 340 339 333 331 332 330 330 332 334 331 332 335 337 335 338 339 337 325 324 328 330 327 334 337 335 336 336 336 330 327 328 329 329 330 330 329 328 326 324 325 326 326 327 327 327
332 336 339 341 340 338 332 330 330 330 331 334 335 334 334 334 337 336 339 340 336 328 328 334 334 333 333 334 335 334 335 329 327 324 323 322 323 324 324 324 323 321 316 314 314 316 317 318 320
332 333 336 335 336 335 332 328 328 329 331 331 335 334 335 334 335 336 339 339 336 332 332 335 334 334 334 334 333 331 329 328 326 322 320 318 316 313 312 312 308 306 307 307 307 307 307 307 307
328 332 331 335 334 332 332 326 327 327 328 332 333 335 334 334 334 336 337 338 337 334 334 335 334 334 334 334 332 331 329 328 324 319 317 315 309 306 306 306 307 307 307 307 307 306 306 306 306
330 330 332 333 330 329 329 325 322 328 330 331 332 334 334 334 333 335 336 337 338 336 335 336 335 335 335 334 333 330 328 328 321 316 314 311 307 307 307 307 307 307 307 306 306 306 306 305 305
330 331 332 333 329 328 326 325 323 326 325 326 330 334 334 334 334 334 335 337 338 337 336 337 337 335 335 335 333 329 327 326 318 314 312 309 306 308 307 307 307 307 307 307 307 306 306 306 306
326 330 334 333 328 329 326 325 323 323 325 325 330 334 333 334 334 335 336 337 339 338 338 338 338 336 336 333 332 328 327 325 317 312 310 307 307 308 307 307 307 307 307 307 307 307 307 307 307
326 330 329 330 327 328 326 326 324 324 324 328 333 333 333 334 334 335 335 336 337 338 339 338 339 337 336 333 331 329 325 321 315 310 307 306 308 307 307 307 307 307 307 307 307 307 307 307 307
328 328 331 328 325 325 327 330 324 324 325 333 334 333 333 334 334 336 336 336 337 338 339 338 337 337 335 334 329 326 322 316 311 307 306 307 308 307 307 307 307 307 307 307 307 307 307 307 307
324 328 328 327 324 325 327 328 323 324 325 328 333 335 334 334 335 336 336 337 337 337 338 338 337 335 333 333 327 322 316 312 309 306 307 308 308 307 307 307 307 307 307 307 307 306 307 306 306
326 327 325 326 325 326 328 328 326 327 324 325 328 334 336 336 336 337 337 338 339 339 338 337 336 333 334 329 323 317 311 309 306 306 307 307 307 307 307 306 306 306 306 306 306 307 306 306 306
325 326 326 324 324 327 327 328 327 328 330 328 322 328 334 337 338 338 338 339 339 338 338 337 334 332 333 327 321 314 311 308 306 306 306 306 306 306 306 306 307 308 308 307 307 308 307 306 305
325 328 328 325 327 325 326 328 327 326 328 330 326 323 323 324 328 332 331 333 335 336 337 336 333 333 331 324 317 312 309 307 306 306 307 307 307 307 308 308 308 308 309 308 308 308 307 306 305
328 328 327 328 325 322 327 327 326 325 326 328 326 327 328 327 321 324 328 329 331 335 336 334 332 332 325 317 312 310 308 307 307 307 307 309 309 309 309 309 309 309 309 309 308 307 306 305 304
327 326 326 328 328 331 324 331 324 321 320 316 317 318 319 319 319 323 327 330 334 337 335 333 331 324 316 312 311 310 309 309 309 309 309 309 309 309 309 308 309 309 309 308 307 306 305 304 303
326 327 326 326 324 325 322 326 323 313 316 314 312 315 316 317 318 320 328 334 336 337 334 330 324 316 312 311 310 309 309 309 309 309 309 309 309 309 309 309 309 309 308 307 306 305 304 303 302
321 322 322 319 320 327 326 326 326 316 315 313 312 314 315 316 317 317 321 330 334 332 328 322 317 312 311 310 310 309 308 308 308 309 309 309 309 308 308 308 309 308 308 306 305 304 303 302 301
322 323 324 327 326 329 316 322 327 315 311 312 311 313 314 315 316 317 318 322 329 326 320 315 312 311 310 309 309 308 308 308 308 309 309 308 308 308 308 308 307 306 305 303 303 302 301 300 300
323 323 324 329 325 325 316 323 321 311 309 310 312 312 313 315 315 316 318 320 325 320 315 312 311 310 310 310 309 308 308 308 308 308 308 308 308 307 305 304 303 303 302 302 301 300 300 300 299
321 324 318 313 311 316 315 312 311 310 310 309 308 310 312 314 314 315 315 319 319 315 312 311 311 310 309 309 309 309 309 308 308 306 304 303 303 302 302 302 302 301 301 300 300 299 297 296 296
319 318 327 321 319 316 311 313 314 312 311 308 307 308 310 311 312 312 312 313 312 311 311 310 310 310 310 309 309 307 305 304 303 303 302 302 301 301 301 300 300 300 299 297 296 296 296 296 295
315 316 314 320 317 318 314 313 308 310 309 308 307 309 310 311 311 311 311 311 311 311 310 310 309 308 306 305 305 304 303 303 302 302 302 301 300 300 299 299 299 297 296 296 296 296 295 294 293
314 315 313 317 314 308 310 313 306 305 306 309 309 310 310 310 310 310 310 310 310 309 308 307 306 306 305 304 303 302 302 302 302 301 300 299 299 299 299 297 296 296 296 296 295 294 293 292 292

GFSSGP_850_thetae_087.txt.gz
Theta_e
329 333 345 348 349 343 344 341 333 334 332 328 328 332 334 335 339 338 335 335 335 337 333 333 329 321 315 311 312 314 312 313 314 312 316 320 317 318 324 327 332 335 337 333 328 328 323 331 332
336 340 342 347 348 348 346 335 336 333 330 330 332 333 332 338 338 337 337 334 336 337 329 334 329 329 314 311 310 310 310 310 309 309 310 309 310 313 317 318 319 320 319 315 317 323 325 327 329
340 345 346 349 346 349 347 334 336 331 330 330 334 331 330 336 338 336 335 333 335 330 330 331 327 318 315 314 314 314 315 316 315 313 312 311 310 310 311 311 310 309 309 309 311 318 322 324 327
335 340 342 349 350 346 342 335 332 329 329 330 334 333 334 334 333 332 331 330 329 325 329 320 317 317 316 316 317 319 320 321 320 319 320 324 327 323 317 317 319 320 320 318 315 313 313 318 325
334 339 346 347 346 343 339 335 330 330 331 334 331 333 334 333 333 330 327 326 324 328 327 321 318 318 318 319 321 322 327 329 329 329 337 337 338 336 329 328 329 330 330 329 329 328 327 319 319
332 337 346 348 344 340 338 334 331 330 331 333 333 333 336 335 332 330 332 330 329 328 327 324 320 320 321 322 329 332 334 336 338 338 338 336 335 335 334 332 331 331 331 331 331 330 330 329 324
331 341 343 343 343 340 338 332 330 330 332 334 333 334 334 336 333 333 335 335 332 327 324 322 321 321 323 334 335 334 334 336 335 336 335 335 334 334 333 331 330 329 329 329 329 329 328 327 328
327 339 341 341 343 342 335 330 331 330 332 332 333 334 335 336 334 335 337 337 333 325 322 323 322 323 333 337 336 337 336 334 335 327 327 328 329 330 330 329 328 325 324 325 326 326 326 326 326
329 338 340 341 342 341 331 333 330 330 331 333 334 333 333 335 334 336 338 338 334 325 324 326 325 329 336 337 336 335 334 330 327 324 323 323 323 324 325 324 323 321 317 316 315 315 315 314 315
334 337 337 337 338 338 333 331 328 329 331 332 334 333 334 335 335 337 338 338 333 326 328 332 330 334 337 339 335 334 330 328 326 321 318 318 317 316 316 316 310 306 307 307 307 307 307 307 307
330 334 333 335 335 332 333 329 328 329 332 332 333 334 334 335 335 336 337 336 332 330 331 334 333 335 336 333 331 330 329 328 325 319 317 314 309 307 306 306 307 307 307 307 307 306 306 305 305
328 329 331 332 335 330 332 327 324 328 332 329 332 334 334 334 334 334 336 337 335 332 333 335 333 334 334 332 331 331 328 327 323 317 314 311 307 306 307 307 307 307 306 306 306 306 306 306 306
328 329 330 332 331 328 327 325 325 325 330 325 329 334 334 334 335 334 335 336 336 334 333 335 335 333 334 334 333 331 327 326 321 315 312 309 306 307 307 307 307 307 307 307 307 307 307 307 307
323 327 329 332 328 329 328 325 323 322 327 326 329 333 334 334 334 334 335 336 337 336 335 335 336 334 335 335 333 331 326 324 319 313 311 308 307 307 307 307 307 307 307 307 307 307 307 307 307
323 327 330 332 330 329 326 327 326 324 323 326 329 333 334 334 334 333 333 334 336 337 337 336 337 336 335 335 333 331 326 324 318 312 310 306 307 307 307 307 307 307 307 307 307 307 307 307 307
326 328 331 330 327 326 329 338 326 324 325 331 331 331 333 334 334 334 334 334 336 337 337 337 337 338 336 334 333 330 324 322 316 311 308 307 307 307 307 307 307 307 307 307 307 306 306 307 307
324 326 330 330 326 326 329 332 325 324 326 331 333 332 332 332 333 334 334 335 335 333 337 338 338 337 334 333 333 327 324 319 313 309 306 307 307 307 307 307 307 307 306 306 306 306 307 308 308
324 328 327 331 326 327 328 329 326 326 325 327 331 333 333 333 333 333 333 335 335 336 338 338 338 336 333 332 331 326 321 315 310 307 306 307 307 307 307 307 306 306 306 307 306 307 308 308 308
323 326 328 326 325 328 330 330 328 328 328 327 325 330 332 334 333 334 334 335 335 336 337 337 337 336 333 332 330 324 318 312 309 306 307 307 307 307 306 306 306 307 308 309 309 308 308 308 308
315 322 327 328 325 327 328 330 329 328 329 328 326 324 326 330 334 336 336 336 336 337 336 337 336 333 331 332 328 320 313 310 307 306 306 306 306 306 306 307 308 308 308 309 309 308 308 307 307
317 320 326 328 325 324 327 330 329 327 326 327 328 327 323 325 326 327 335 337 335 337 336 336 335 333 331 330 323 315 310 308 307 306 306 307 307 307 308 308 308 308 308 308 308 308 307 306 306
321 323 327 328 330 332 324 333 328 326 326 324 325 325 327 327 328 328 323 327 330 331 335 335 332 331 330 324 318 312 310 309 308 308 307 307 308 308 308 308 308 308 308 308 307 307 307 306 305
323 326 327 327 328 328 324 332 330 315 320 321 318 316 321 322 320 320 321 324 328 331 334 335 332 330 323 318 314 310 309 309 308 308 308 308 309 309 309 309 308 308 308 308 308 307 306 305 303
321 323 323 321 326 332 328 330 331 323 320 315 313 315 315 316 317 318 321 326 331 333 337 334 330 324 319 314 311 310 309 308 308 308 308 309 309 309 309 308 308 308 308 308 307 306 304 303 302
323 326 330 331 331 330 318 327 329 317 312 313 314 313 314 315 315 316 317 322 331 334 335 331 326 320 314 312 310 309 308 308 307 308 308 308 309 308 308 308 308 308 307 305 304 303 302 301 301
324 326 328 329 331 330 318 326 326 312 310 310 311 312 313 314 314 315 316 318 327 330 330 326 320 315 312 310 309 308 308 307 307 308 308 308 308 308 307 305 304 303 303 302 302 301 301 300 300
323 326 321 315 312 320 320 316 313 311 311 309 309 310 311 313 314 314 316 318 323 323 320 316 313 311 310 309 308 308 308 308 308 307 305 303 303 302 302 301 301 301 301 301 300 299 298 296 296
321 321 327 325 322 319 314 314 323 314 313 310 309 309 310 311 312 313 315 317 317 315 313 311 310 310 309 309 309 308 307 305 304 303 303 302 302 301 301 300 300 300 299 298 297 296 296 296 296
317 318 318 322 320 322 320 319 311 312 312 312 310 309 310 310 310 310 311 311 311 310 310 310 310 310 309 307 306 305 304 303 302 302 302 301 301 299 299 299 299 298 297 296 296 296 296 295 294
314 315 320 325 318 312 312 321 308 307 307 310 310 309 309 309 309 309 309 310 310 310 310 309 308 306 305 305 304 303 302 301 301 301 300 299 299 299 299 298 297 296 296 296 296 295 295 294 293

GFSSGP_850_thetae_090.txt.gz
Theta_e
328 332 346 352 351 347 342 343 341 338 336 333 332 335 336 337 338 343 343 342 343 342 340 333 331 318 316 318 320 317 314 317 317 320 325 326 324 327 335 331 334 333 334 331 324 322 327 331 332
335 336 345 350 348 344 340 340 342 340 335 333 334 335 336 339 342 343 342 341 342 342 339 342 328 320 314 311 312 311 310 310 310 311 312 312 311 313 316 317 319 320 317 314 315 319 323 326 329
339 344 349 346 345 345 342 343 342 335 333 333 334 333 331 338 342 341 342 341 342 341 340 339 328 322 313 311 310 311 312 312 312 311 310 311 311 311 312 311 310 309 310 311 314 318 320 324 327
340 344 343 347 344 344 344 343 338 334 333 333 335 334 334 337 340 340 341 341 340 338 339 329 326 316 314 314 315 317 318 318 316 317 318 320 320 318 316 316 318 320 321 319 317 315 315 322 327
338 342 344 346 343 342 343 343 337 336 334 335 334 333 336 340 341 341 341 340 338 338 338 323 317 316 316 317 320 321 325 324 325 332 338 339 337 334 332 332 328 329 329 330 330 330 326 320 327
336 338 345 345 343 342 341 341 337 336 335 336 333 333 337 340 341 341 340 339 337 339 338 333 318 318 319 321 324 330 335 337 338 338 338 337 337 335 333 332 331 331 331 331 330 330 329 328 325
335 341 343 343 344 343 341 339 338 338 336 336 335 335 338 341 340 340 340 338 337 338 337 335 333 321 322 329 333 334 337 336 336 336 336 335 334 333 332 332 331 330 329 329 329 328 327 326 327
331 338 342 342 343 343 340 338 337 338 337 335 335 336 339 340 340 340 341 338 337 336 337 336 336 336 338 336 335 336 335 334 333 329 329 330 331 332 330 329 327 325 324 325 325 325 325 324 323
332 337 342 341 342 341 338 338 334 334 335 335 335 336 336 341 340 341 341 339 336 337 339 337 337 338 340 338 336 335 334 333 328 324 323 326 328 327 326 325 323 321 318 318 316 313 311 310 309
331 336 338 337 338 340 339 337 335 334 335 335 336 335 338 341 340 342 341 339 337 337 338 337 337 338 341 340 338 338 336 334 329 321 319 321 323 323 321 318 311 306 306 307 307 307 307 307 306
326 332 333 335 336 338 338 336 334 335 337 334 334 338 341 342 341 341 341 339 338 337 338 338 338 339 342 340 340 334 335 328 326 319 317 316 310 309 309 306 306 307 307 307 306 306 305 305 305
325 325 327 332 335 337 337 336 335 334 336 334 333 338 342 342 341 340 340 340 338 337 338 339 339 340 341 340 339 336 333 327 324 318 315 311 307 306 306 307 307 307 306 306 306 306 307 307 307
322 322 324 328 331 335 334 335 336 333 334 330 328 337 341 342 341 340 340 340 338 338 338 340 334 340 341 337 337 335 331 327 323 316 313 309 306 307 307 307 307 306 307 306 307 307 307 307 308
319 322 321 324 331 333 332 334 328 332 330 330 332 336 341 341 341 340 340 341 340 338 338 340 333 333 340 337 334 333 329 326 322 315 312 308 307 307 307 307 307 307 307 307 307 307 307 307 307
318 318 321 326 323 332 332 335 332 332 326 331 332 335 339 341 342 341 341 341 340 339 338 339 335 334 338 334 334 333 329 325 320 314 311 308 307 307 307 307 307 307 307 307 307 307 307 307 307
317 321 318 320 327 327 332 336 335 330 328 330 332 334 336 340 342 341 341 341 341 340 338 336 336 336 335 335 334 332 327 324 319 313 310 307 307 307 307 307 307 307 307 307 307 307 307 308 308
316 316 321 319 327 329 332 332 334 329 329 331 332 333 334 336 340 340 340 340 341 341 341 340 335 336 336 335 332 333 326 323 318 312 309 306 307 307 307 307 307 307 307 306 306 306 307 308 309
314 315 317 322 323 331 333 334 331 329 329 333 334 334 334 335 335 338 337 338 337 331 339 339 335 336 336 333 333 332 326 323 316 311 307 306 307 307 307 307 307 306 306 307 308 307 308 309 309
315 314 316 320 323 329 331 332 331 329 328 330 334 335 334 334 332 332 333 330 330 333 334 338 338 335 335 333 332 331 326 321 314 310 306 307 307 307 307 307 306 306 307 308 308 309 309 309 308
316 316 318 321 323 328 328 333 333 330 329 329 329 331 332 333 334 333 333 334 332 332 336 337 337 335 334 332 332 329 325 318 312 309 306 307 307 307 306 306 306 307 308 308 308 309 308 308 308
318 318 317 321 327 329 327 328 332 331 329 329 329 329 328 329 331 333 334 335 336 336 336 336 336 334 333 332 331 327 319 313 310 307 306 306 306 306 307 307 307 308 308 308 308 308 308 308 308
318 318 317 323 328 330 330 326 329 332 332 330 330 330 329 326 326 327 333 335 336 337 336 335 335 334 332 332 329 321 314 311 309 307 306 306 307 307 308 308 308 308 308 308 307 307 307 307 307
319 318 317 321 327 329 330 329 330 330 333 333 330 331 329 328 325 325 326 327 329 333 334 334 335 334 332 330 324 318 311 310 308 308 307 307 308 308 309 308 308 308 308 307 307 307 307 306 306
320 322 323 326 329 332 327 330 328 330 330 330 327 326 324 322 320 321 323 323 323 327 331 334 336 333 330 324 320 315 310 309 308 308 308 308 308 309 309 309 309 308 309 308 308 308 306 305 304
324 322 326 330 329 332 327 330 328 328 322 321 320 320 320 317 316 317 319 322 326 329 331 335 334 330 325 320 317 312 310 309 308 308 308 308 308 308 309 309 308 308 308 307 306 305 304 303 302
321 322 327 336 327 328 323 328 326 321 317 315 314 318 316 315 315 315 316 320 327 331 335 335 330 325 321 317 312 310 309 309 308 307 307 308 308 308 308 308 306 305 303 303 302 302 301 301 300
325 325 322 324 319 327 326 325 322 316 316 315 315 315 314 313 313 313 314 317 319 328 333 329 325 321 316 312 310 310 308 308 307 308 308 307 305 303 302 302 301 301 301 301 300 300 299 298 298
322 322 325 324 328 327 323 321 326 321 319 316 315 315 312 311 311 311 312 313 315 321 323 321 318 314 311 310 309 308 308 309 307 305 304 303 302 302 301 300 300 299 299 299 298 298 297 297 297
322 323 325 325 325 328 325 322 316 317 315 317 316 314 312 311 311 311 311 311 313 313 312 311 310 310 309 309 309 308 306 305 304 303 302 302 301 300 299 299 299 298 298 297 297 297 296 296 296
313 318 324 329 326 320 322 324 313 314 313 316 314 312 311 310 309 309 310 310 310 309 309 309 309 309 309 307 305 305 304 303 302 301 301 300 299 299 299 298 298 297 297 296 296 296 296 296 296

GFSSGP_850_thetae_093.txt.gz
Theta_e
329 336 352 354 353 346 342 342 340 341 338 334 334 335 336 336 341 352 346 340 340 341 342 329 322 321 327 330 324 319 319 325 326 330 333 330 328 332 336 329 331 334 333 327 321 324 327 329 330
339 343 348 350 346 343 343 339 341 342 338 335 335 335 335 341 343 346 344 342 341 341 341 339 329 319 317 316 315 314 313 314 313 313 317 317 314 316 320 320 319 318 314 313 318 323 326 327 330
341 343 348 346 343 342 342 341 341 341 337 336 336 334 332 340 343 343 343 341 341 339 340 341 326 320 313 311 311 310 310 310 310 310 310 311 313 313 313 311 310 310 311 313 315 319 324 327 331
339 345 345 347 343 342 341 340 341 339 336 336 335 333 334 338 340 340 340 341 341 339 341 335 328 317 312 311 312 314 316 315 315 316 316 314 317 316 318 323 320 324 323 322 321 317 320 327 329
337 343 346 342 340 340 341 341 343 341 338 336 335 333 336 338 339 340 340 340 339 338 340 327 322 315 314 315 318 319 321 321 323 336 339 337 335 335 332 328 329 330 330 330 330 329 324 325 329
337 339 346 343 342 341 341 341 343 341 338 337 335 332 337 340 340 340 339 339 337 339 337 323 316 316 317 320 323 328 333 337 338 338 339 338 336 333 333 332 331 331 331 330 329 328 328 327 326
337 342 343 342 342 342 341 340 342 341 340 338 334 333 340 339 339 339 339 337 338 338 337 333 325 318 320 324 331 336 337 336 336 337 336 335 334 333 332 331 330 329 328 328 327 326 326 326 326
334 340 343 343 342 342 341 340 340 340 341 338 335 335 340 339 339 339 339 337 337 336 335 334 334 331 330 333 334 336 335 334 332 331 331 330 331 331 329 328 327 325 324 325 324 324 323 322 319
332 338 341 342 342 341 339 341 340 339 340 337 335 336 337 340 339 339 339 337 337 335 336 336 335 338 340 340 336 335 334 331 329 324 324 327 330 328 326 324 322 320 318 316 312 309 308 308 308
330 333 335 336 338 339 339 340 339 337 339 338 336 337 340 340 339 340 340 337 336 336 338 336 336 337 339 339 336 339 334 334 333 326 325 326 326 326 319 317 310 306 307 307 307 306 306 308 308
324 330 328 330 334 336 338 340 339 337 340 338 337 337 341 341 340 341 340 338 336 337 338 336 336 337 339 337 339 337 337 332 327 323 322 323 320 319 319 306 307 307 308 309 308 306 307 309 309
322 322 324 325 328 335 337 338 339 338 338 338 337 336 342 341 341 341 340 338 336 337 337 337 337 337 338 338 339 338 334 327 322 320 318 316 314 311 310 311 308 310 310 310 310 309 309 309 309
318 319 321 322 325 329 334 337 337 337 337 335 334 336 342 342 341 341 340 338 337 337 337 338 338 339 339 339 337 337 333 326 321 316 313 312 310 310 310 310 310 310 310 310 310 310 309 309 309
317 318 320 319 321 326 328 330 335 336 336 336 334 334 340 342 341 341 340 339 337 337 338 339 339 340 340 339 339 337 333 326 321 316 313 311 311 311 310 310 310 310 310 310 309 309 309 309 310
316 318 318 318 322 322 326 331 332 334 334 335 335 335 338 341 342 341 340 340 338 337 338 340 341 341 340 338 337 336 333 327 323 317 312 309 308 310 310 310 310 309 309 309 309 309 310 310 310
317 316 318 320 317 321 322 329 330 331 334 333 334 335 336 340 341 341 341 340 339 337 338 341 342 340 341 340 336 334 332 327 323 317 312 309 307 309 310 310 310 308 307 308 310 310 310 311 311
317 317 317 317 320 318 325 325 327 327 333 333 334 334 337 340 341 342 341 341 340 339 339 341 342 336 340 337 334 333 332 324 328 318 312 308 307 308 308 310 310 307 308 309 309 310 309 311 311
318 317 317 316 317 320 322 327 327 325 333 333 334 334 333 336 340 336 331 341 340 340 341 340 339 337 337 336 334 330 331 327 321 316 311 307 307 308 310 310 309 309 308 310 309 310 310 309 310
317 317 317 316 316 318 324 327 329 327 333 333 334 334 333 334 337 340 341 341 341 341 338 338 338 338 337 336 332 331 332 324 320 316 310 308 307 307 307 310 311 309 309 311 309 309 309 311 311
317 316 316 316 316 318 321 325 327 328 332 332 334 335 333 333 335 338 340 341 340 331 330 336 338 335 336 333 333 331 330 323 321 314 310 308 309 308 308 310 309 309 306 308 309 309 309 311 310
318 316 316 316 316 318 324 324 326 327 332 331 332 334 333 333 334 335 337 338 333 333 338 339 335 335 335 333 331 326 318 320 316 312 309 307 308 308 307 308 309 310 310 310 311 310 309 309 310
318 317 317 316 317 322 324 329 325 327 332 332 332 331 331 331 332 334 335 335 335 337 340 337 336 336 333 332 329 322 322 317 313 310 308 307 306 307 307 308 310 310 311 311 310 310 309 309 309
319 318 317 317 317 322 328 328 323 325 329 332 333 332 330 329 329 330 333 335 337 339 340 340 339 334 332 330 327 327 317 314 312 311 309 310 308 308 309 309 310 310 310 310 309 309 309 308 308
321 319 319 320 322 326 326 331 324 326 326 328 331 332 332 331 329 327 327 330 334 337 340 338 337 333 328 324 321 318 314 313 312 312 311 311 311 309 308 308 309 309 309 309 309 308 308 308 307
322 321 325 329 331 332 327 329 330 330 328 327 329 331 332 329 326 323 326 327 327 330 333 334 332 330 324 320 317 316 313 312 312 312 312 312 312 311 310 309 309 309 308 308 307 306 306 306 305
323 322 327 331 329 331 329 332 328 324 322 320 320 324 324 321 321 321 323 324 325 327 329 331 330 321 318 316 317 316 312 311 311 312 311 312 312 311 310 308 308 307 305 303 303 302 303 303 302
323 325 322 321 323 328 327 326 323 321 321 321 321 319 319 318 318 318 321 322 325 327 327 325 319 316 315 318 317 312 310 310 310 309 308 309 309 308 306 303 302 302 302 301 300 301 301 300 300
321 322 325 325 336 333 326 325 323 322 322 320 320 319 317 315 315 316 318 320 323 320 318 316 314 318 319 317 310 310 310 309 308 308 308 306 305 303 302 302 301 300 300 300 300 299 299 299 298
323 324 323 326 325 333 327 319 317 318 320 320 319 317 315 315 315 315 315 315 314 314 314 315 316 315 313 310 310 309 308 308 306 305 304 304 303 302 301 300 299 300 299 299 298 298 298 298 298
318 317 322 327 329 327 327 320 318 317 319 319 317 315 314 314 314 314 313 313 312 311 310 310 309 309 309 308 307 307 306 305 304 304 303 302 302 301 299 300 299 298 298 298 298 298 297 297 297

GFSSGP_850_thetae_096.txt.gz
Theta_e
331 336 354 353 355 354 346 344 341 341 338 334 333 334 335 341 347 357 345 341 345 341 326 323 328 335 334 326 328 319 325 329 329 332 332 330 330 335 334 327 327 328 324 316 320 322 330 329 325
336 341 349 350 355 347 345 341 343 341 338 334 334 334 333 345 347 346 341 340 343 342 329 327 322 323 323 319 317 315 315 317 315 317 320 319 314 318 319 317 315 312 311 315 319 321 330 330 330
337 342 348 351 347 347 342 341 340 340 337 336 335 334 332 343 346 343 341 340 341 342 339 329 326 320 316 313 312 311 310 310 310 310 310 311 313 313 311 310 312 314 315 315 317 322 328 330 327
339 344 345 350 348 343 340 339 342 340 337 337 335 333 336 341 342 343 341 340 340 339 341 332 325 319 312 311 310 312 313 313 313 314 313 313 320 327 321 324 324 326 328 328 324 321 328 330 327
337 343 348 346 341 339 338 338 342 341 337 337 336 333 336 339 341 340 340 341 339 342 342 336 326 314 312 313 315 317 319 319 324 334 335 336 336 332 329 330 331 331 330 330 328 327 325 326 327
335 340 348 348 344 339 338 338 338 343 339 338 336 337 338 340 340 340 341 340 338 340 337 326 318 314 315 317 321 325 330 336 338 339 339 336 334 332 332 332 331 330 329 328 327 326 326 327 327
337 341 345 344 343 342 340 340 342 342 341 338 336 337 341 340 340 340 340 338 339 340 332 319 315 316 318 323 331 335 338 337 336 337 337 334 331 332 331 331 329 327 326 325 325 324 324 324 323
332 339 342 343 344 343 339 341 335 343 341 339 336 340 340 339 340 339 339 337 339 337 335 320 317 318 322 331 335 336 335 335 333 331 329 327 329 328 327 327 325 323 323 323 322 320 317 313 312
332 338 340 341 342 341 339 339 339 339 339 339 336 338 339 339 339 339 338 337 337 336 334 333 323 326 332 333 338 334 333 330 326 323 323 324 323 323 321 320 320 318 315 311 308 307 308 308 306
329 335 336 334 335 337 337 338 340 337 338 339 336 339 339 339 339 339 338 337 336 335 335 335 336 340 337 335 335 333 330 329 326 321 328 329 328 322 315 314 307 306 307 306 306 307 308 308 308
324 329 328 328 328 329 332 336 338 339 340 339 338 340 340 339 339 340 338 337 336 336 336 336 337 340 337 339 333 334 336 333 327 323 324 325 326 319 309 306 307 308 308 307 307 308 309 309 309
320 321 322 324 324 325 327 333 337 337 334 338 338 339 341 339 340 340 339 337 336 337 337 336 337 338 338 339 335 335 334 330 324 321 322 322 318 316 309 309 308 309 309 309 308 309 309 309 309
317 318 318 319 320 322 324 328 333 337 337 337 337 337 342 340 340 341 340 338 336 337 337 336 336 338 338 339 338 336 332 324 321 318 316 314 311 310 310 309 309 310 310 309 309 309 309 309 309
317 317 317 318 320 320 322 326 328 331 335 336 336 336 342 341 341 341 340 338 336 337 337 337 337 337 336 339 335 336 333 325 322 316 313 311 310 310 310 310 309 309 310 310 309 309 309 309 310
317 317 317 317 318 321 321 322 326 327 328 335 335 335 337 342 341 341 341 338 337 337 337 338 338 339 337 339 337 336 331 327 326 320 312 311 310 310 310 310 309 309 309 309 309 309 310 310 311
318 317 317 317 318 317 319 321 322 326 328 330 335 335 335 340 342 341 341 339 337 337 338 339 338 340 339 337 337 335 334 330 328 325 319 313 308 310 310 310 310 309 309 308 309 309 310 311 310
319 318 317 318 317 318 317 318 323 322 326 328 333 335 335 337 341 341 341 340 338 337 338 339 340 340 340 339 337 336 334 331 327 324 320 311 307 308 309 309 309 308 307 308 308 308 308 309 310
320 319 318 318 318 317 317 317 320 323 323 326 331 334 334 336 341 341 341 340 340 338 338 340 341 339 336 337 336 334 333 330 326 325 317 311 307 308 308 310 310 308 307 308 307 309 309 309 309
321 320 319 317 317 317 316 317 319 322 325 326 329 333 334 337 340 342 341 339 335 336 339 339 340 337 337 337 335 333 331 328 327 324 316 311 307 307 309 309 309 309 309 308 308 309 309 309 311
321 321 319 316 316 316 315 315 317 324 327 327 334 334 334 334 338 341 341 338 333 333 340 340 338 337 334 336 335 327 330 331 328 322 315 310 308 307 307 308 309 308 307 306 307 308 309 309 310
320 320 319 317 316 316 316 315 316 320 325 330 333 333 335 333 334 339 338 337 340 342 341 338 333 333 334 335 334 332 328 326 322 319 313 310 308 307 308 308 307 308 307 308 310 311 310 309 308
322 320 318 318 319 316 315 317 318 322 323 329 332 333 334 334 333 338 341 341 342 341 338 333 334 335 334 335 334 330 327 325 322 319 313 309 308 308 307 307 307 309 310 311 310 310 310 309 309
322 320 320 321 318 316 317 320 322 323 324 330 329 332 333 333 333 336 340 340 340 337 335 338 337 335 334 333 332 327 324 321 317 313 310 308 307 307 307 308 309 310 310 310 310 310 309 309 308
321 321 321 321 321 321 318 325 327 325 324 330 330 331 332 332 331 333 335 336 335 335 337 339 339 336 335 332 325 323 320 314 313 311 310 309 310 309 309 310 310 310 310 310 309 309 309 308 308
322 322 322 323 325 322 325 324 323 323 325 325 328 329 331 329 328 329 330 335 337 339 340 340 339 336 332 325 324 322 315 313 312 311 311 311 311 311 310 309 309 309 309 309 308 308 307 305 304
324 322 323 323 330 329 324 328 328 326 323 324 326 330 332 331 328 327 327 329 333 336 337 337 335 333 330 324 320 317 314 312 312 312 312 312 312 312 311 310 309 308 308 307 304 302 302 301 301
322 325 320 321 322 328 324 325 325 324 322 321 322 321 321 321 321 323 325 326 326 327 329 332 331 330 325 319 316 315 313 312 312 312 312 312 312 311 311 309 307 304 303 302 301 300 299 299 299
322 322 325 323 329 327 324 317 318 320 320 320 318 318 318 318 318 321 323 324 327 328 329 329 326 319 316 314 314 313 311 311 311 310 309 309 309 308 305 303 302 302 301 300 299 299 299 299 298
322 321 324 324 326 331 323 318 316 318 319 318 316 316 316 316 317 319 322 324 324 323 321 319 317 316 314 311 311 311 311 310 309 308 307 306 305 304 303 302 301 299 299 299 298 298 298 298 298
319 319 322 326 326 325 325 318 315 318 317 316 316 316 315 315 315 316 316 315 315 316 315 314 311 310 310 311 310 309 308 307 306 305 304 304 303 302 301 299 299 298 298 298 298 298 298 297 297

GFSSGP_850_thetae_099.txt.gz
Theta_e
331 349 351 349 346 347 346 343 338 337 335 332 334 335 341 344 349 343 344 344 346 344 327 323 340 335 333 333 326 327 334 335 329 333 331 328 325 325 321 319 320 317 313 318 322 332 329 322 322
333 343 344 350 348 346 342 341 343 336 333 333 333 333 337 346 347 343 346 346 344 335 323 336 339 337 325 324 319 317 319 322 321 326 322 317 312 314 314 312 310 311 315 318 326 331 330 326 326
335 341 346 344 346 347 343 336 336 335 335 334 334 332 340 346 341 342 344 343 338 329 325 330 328 324 320 316 314 312 314 312 311 312 311 311 312 311 311 314 316 317 317 318 328 329 328 327 328
341 343 343 346 348 343 340 338 337 338 336 335 334 335 339 343 340 340 340 339 341 337 327 326 325 321 314 312 310 310 310 311 311 312 312 313 316 324 332 324 327 329 328 325 328 329 328 327 328
337 340 344 345 345 341 335 335 340 342 339 337 332 334 340 343 342 341 340 341 341 337 332 327 323 316 311 311 313 315 315 317 320 322 334 335 331 331 330 331 331 330 329 327 326 325 325 325 328
333 337 345 348 342 340 336 336 341 341 338 339 335 337 340 342 341 338 341 340 338 339 341 330 322 313 313 315 318 321 323 334 338 337 337 333 331 331 331 331 330 328 326 325 324 324 325 326 327
332 336 342 343 343 341 339 338 336 339 341 342 338 337 340 340 338 340 340 339 340 341 338 329 315 314 316 320 328 335 337 337 338 339 336 332 329 330 330 329 327 324 324 323 323 323 321 319 320
333 333 338 338 342 342 339 340 341 341 342 335 338 339 339 339 339 341 340 338 338 339 329 320 315 316 320 331 335 336 335 335 334 334 329 325 325 324 325 325 323 322 322 321 319 315 310 310 310
330 332 336 337 339 340 337 336 339 336 337 334 339 337 340 339 340 340 338 339 339 336 321 316 316 319 329 333 335 333 333 328 325 322 321 320 320 319 319 319 318 316 312 309 308 308 307 306 307
326 331 333 333 333 334 330 328 339 337 335 337 336 338 340 339 339 338 337 338 337 336 328 318 319 326 332 333 333 331 328 325 320 325 324 321 319 314 315 310 307 306 307 307 307 307 308 308 308
321 326 326 326 326 325 325 324 334 339 339 339 338 339 340 339 339 337 337 338 337 335 334 330 328 332 331 331 331 330 330 325 323 328 326 325 324 316 308 306 307 307 307 307 308 308 309 309 309
315 318 323 325 324 323 323 323 327 336 337 331 332 339 339 339 339 337 337 337 336 334 335 336 336 337 333 334 332 332 331 330 322 324 324 325 320 312 306 307 308 308 308 308 308 308 309 309 309
315 315 317 317 316 317 319 320 323 334 334 332 337 339 339 339 339 338 337 337 335 335 336 336 337 337 336 335 334 333 332 328 321 321 322 321 312 309 308 308 309 309 309 309 309 309 309 309 309
315 315 316 316 316 316 319 320 319 323 330 336 337 340 339 339 335 339 337 336 335 336 336 336 338 337 338 335 335 333 331 327 322 319 316 312 309 310 309 308 309 309 309 309 309 309 309 310 310
317 315 314 315 316 316 317 318 320 320 326 333 336 337 340 339 336 339 338 337 335 337 336 336 338 337 339 338 336 334 334 331 325 318 313 311 309 310 309 309 308 309 309 309 309 309 309 310 310
317 316 315 314 315 316 316 316 317 319 320 324 329 336 338 340 340 340 340 337 336 338 336 336 336 338 339 338 335 334 334 332 327 320 314 311 309 309 309 309 309 309 308 308 308 308 309 309 309
315 316 315 315 315 315 314 315 315 317 321 321 325 331 335 340 340 340 340 338 336 337 337 337 337 338 336 337 336 335 335 331 326 323 321 311 309 309 309 309 309 308 308 307 308 307 308 308 309
321 319 318 317 316 316 314 313 314 317 321 321 321 330 335 335 338 341 341 338 336 337 337 338 337 337 338 338 336 336 335 331 329 326 323 313 309 308 309 309 309 308 307 307 307 307 308 309 309
320 320 320 319 318 315 314 313 313 314 316 320 321 326 333 335 335 341 341 339 337 337 337 337 337 335 337 336 336 336 335 333 331 326 323 314 310 307 308 308 308 308 307 307 307 308 309 309 309
319 320 318 317 316 314 313 313 313 312 315 318 321 323 325 333 335 340 340 339 337 337 334 336 338 336 337 337 334 334 333 331 329 326 322 316 310 307 307 308 309 308 308 308 307 307 308 309 309
320 320 320 319 317 316 313 313 312 313 314 316 324 326 332 334 341 340 340 340 338 334 337 339 338 337 336 335 334 334 329 329 329 325 321 318 311 307 307 308 308 308 308 307 307 308 309 309 309
322 320 321 320 319 318 314 314 312 312 314 316 324 328 333 333 336 337 340 340 336 337 338 339 334 330 336 332 333 334 331 330 330 328 321 317 311 308 307 307 308 308 308 309 310 310 310 309 309
322 321 320 321 320 318 317 314 312 314 318 319 320 330 332 333 331 328 334 340 338 335 335 334 334 339 333 334 334 333 332 331 328 322 318 313 309 308 308 308 308 308 309 310 310 310 310 310 309
321 322 321 319 320 319 317 317 316 322 322 321 322 329 332 332 332 333 339 339 337 337 339 339 338 335 334 332 333 331 329 327 322 318 314 310 309 308 308 308 309 309 310 310 310 309 309 309 309
323 321 321 318 321 322 322 321 318 322 323 323 323 325 331 332 334 337 338 339 338 337 337 336 336 335 333 333 332 327 325 319 317 313 311 309 309 309 308 310 310 310 310 309 309 309 309 308 306
322 321 322 320 325 326 319 322 325 321 322 323 325 326 328 328 329 333 335 336 336 336 336 336 335 334 334 332 326 322 318 317 314 311 311 310 310 311 311 311 310 309 309 308 308 306 303 302 301
321 326 318 318 319 324 322 322 323 322 323 321 322 320 321 325 327 328 330 335 336 338 336 336 335 333 329 325 321 319 315 313 312 312 312 312 312 312 312 311 311 309 308 305 303 302 300 300 299
321 321 325 321 328 321 319 317 319 324 323 319 318 321 322 322 324 324 325 326 327 329 331 333 332 330 326 322 319 313 312 312 312 312 312 312 312 312 311 311 309 304 302 302 300 299 299 299 298
318 319 324 324 323 328 322 317 317 316 316 315 313 316 320 319 322 324 325 326 326 329 328 328 327 325 319 317 316 314 312 312 312 311 311 311 310 309 307 304 303 301 300 299 298 298 298 297 297
316 316 322 324 326 324 323 318 312 314 313 314 314 315 316 317 319 322 325 326 325 323 323 320 318 316 314 313 311 311 311 310 310 308 308 306 305 304 303 301 300 299 298 298 297 297 297 297 297

GFSSGP_850_thetae_102.txt.gz
Theta_e
331 347 350 349 340 342 344 341 336 338 335 331 334 335 338 345 343 333 345 341 341 343 324 339 342 340 336 332 336 336 337 336 337 336 331 326 322 320 316 317 314 313 317 334 329 323 323 329 330
331 343 345 348 343 342 337 340 342 339 337 332 337 340 341 346 346 344 343 343 345 342 331 339 340 336 334 331 328 332 334 332 328 327 326 317 313 313 312 311 312 316 321 334 330 326 327 330 331
332 340 345 342 342 342 338 336 336 337 334 332 332 338 343 345 343 341 343 346 345 340 335 339 338 333 327 323 317 318 320 319 318 317 312 311 312 311 312 315 316 317 329 332 330 327 327 330 330
334 342 343 345 346 342 336 333 337 339 338 336 333 334 342 340 336 340 344 345 339 334 337 340 339 326 320 316 313 314 312 311 311 311 312 313 321 321 322 325 328 325 331 331 330 327 328 332 332
336 341 342 345 345 342 338 336 334 340 341 337 334 335 342 340 338 338 341 340 333 328 338 339 331 321 314 311 310 310 311 312 313 315 323 336 335 329 330 330 330 328 326 326 325 327 326 332 333
332 336 343 346 342 339 336 337 336 341 339 338 338 337 340 342 340 339 340 339 337 327 328 330 323 315 311 311 314 315 318 321 331 335 333 330 330 330 331 330 328 326 324 324 324 325 326 331 331
329 334 339 341 342 341 339 338 335 337 341 340 338 337 340 341 340 338 338 340 337 329 328 325 319 311 312 315 319 323 334 338 337 337 334 328 328 329 329 327 325 323 323 322 322 322 323 326 328
329 330 336 336 341 341 338 340 340 341 342 335 338 339 339 340 339 338 341 339 338 340 339 327 314 313 316 323 334 337 338 338 339 337 331 323 324 325 325 323 322 322 321 320 316 313 312 313 312
329 330 333 335 338 338 335 332 339 338 336 337 337 337 337 340 339 340 339 339 341 340 337 325 314 316 324 336 336 334 334 336 334 327 320 320 319 320 320 319 319 318 315 310 308 307 306 307 306
323 328 331 331 331 332 327 325 329 336 335 336 336 337 336 339 339 340 340 340 340 337 330 317 315 320 333 337 334 332 328 324 321 317 317 316 315 315 316 314 309 307 307 308 307 307 307 307 308
317 325 326 326 326 327 324 323 324 336 337 336 337 337 335 339 337 339 340 339 339 334 319 315 317 327 332 335 331 329 324 321 318 320 320 318 316 311 307 306 307 307 307 308 308 308 309 309 309
314 315 315 318 320 324 323 320 328 335 335 336 336 338 334 333 338 337 338 338 337 332 318 316 320 330 331 330 329 326 322 318 319 320 320 320 318 308 306 307 307 307 307 308 309 309 308 309 309
313 314 315 315 315 316 316 317 319 330 332 333 337 339 338 337 339 336 337 338 337 334 328 319 328 330 331 331 329 328 328 323 319 319 319 319 316 308 307 308 308 308 308 308 308 308 309 309 309
314 315 315 315 315 315 316 317 319 322 325 333 334 339 339 338 338 332 335 338 337 334 335 332 333 334 335 332 331 330 329 327 320 318 319 320 312 308 308 308 308 308 309 308 308 308 309 309 310
316 315 314 315 315 314 315 315 316 319 321 331 334 337 339 339 338 335 333 337 336 335 335 336 336 335 337 333 333 332 331 330 323 319 318 315 310 309 308 308 309 309 309 308 308 309 309 309 310
316 315 315 314 314 315 315 313 314 316 318 329 334 337 338 337 337 338 336 336 336 335 335 336 337 336 338 335 334 334 333 332 326 319 315 311 310 310 309 309 308 309 308 308 308 308 308 309 310
315 315 315 315 316 315 314 314 313 315 315 317 319 333 338 338 338 338 338 336 335 335 336 335 337 337 339 337 336 334 333 332 328 322 316 315 310 310 309 309 308 308 308 308 308 308 308 308 309
319 319 318 318 316 316 315 313 312 314 314 315 317 320 330 336 338 338 335 338 336 336 336 336 337 337 338 338 336 334 333 331 330 327 323 318 312 309 309 309 309 308 308 308 307 307 307 308 308
318 318 318 318 318 316 316 315 312 313 313 313 314 316 320 328 334 339 338 339 336 337 336 336 337 337 337 337 335 334 334 334 333 331 325 320 312 309 309 309 309 309 308 307 307 307 307 308 308
319 319 319 317 316 317 316 315 312 311 312 313 314 315 318 321 330 337 339 339 337 336 336 336 336 335 337 337 336 336 335 334 332 330 325 317 312 309 308 309 308 308 308 307 307 307 307 308 308
320 320 319 320 319 316 314 316 313 311 312 313 314 315 318 323 330 334 338 339 336 337 337 336 337 334 337 336 335 335 335 334 331 330 322 317 313 309 307 308 308 308 308 308 307 306 306 308 309
321 320 321 322 322 321 314 318 314 311 310 311 318 321 324 325 332 335 338 337 336 336 337 337 337 337 337 334 336 334 334 333 331 329 326 317 314 309 307 308 308 308 308 308 307 308 309 309 309
321 321 322 321 321 319 319 317 313 313 316 319 317 322 323 334 336 338 337 337 336 332 338 337 338 336 336 335 333 334 333 332 330 329 326 317 312 309 308 308 308 308 308 307 309 310 310 309 309
320 322 320 319 319 320 320 316 314 320 320 320 321 322 324 330 338 339 339 337 332 334 337 337 334 336 336 332 333 333 332 328 329 327 323 317 312 310 309 308 308 308 308 308 309 310 310 310 309
321 321 321 317 322 323 319 320 315 320 320 320 321 323 326 329 330 333 334 334 334 337 336 336 336 332 331 333 332 332 331 329 329 326 323 314 311 309 309 309 309 308 309 309 309 309 309 309 309
321 322 323 321 324 322 320 322 323 317 319 321 320 323 327 332 333 333 333 335 336 336 336 336 335 329 330 334 331 329 331 325 322 322 317 312 310 309 309 308 309 310 310 310 309 309 308 307 305
321 323 318 319 319 319 322 322 319 322 321 321 321 321 323 329 331 333 335 336 334 334 334 335 334 334 333 332 330 330 323 319 316 313 312 310 310 310 310 310 310 310 310 309 308 306 303 302 300
320 318 324 322 324 318 320 318 319 325 322 321 322 323 321 324 325 326 328 331 333 335 334 335 334 331 330 326 323 320 317 315 313 312 311 311 311 311 311 311 311 311 308 305 303 302 300 299 298
313 316 323 320 323 325 319 317 315 315 316 315 318 322 321 320 324 324 325 326 327 329 330 331 328 326 322 320 317 315 313 312 312 312 312 312 311 311 311 310 308 304 303 302 300 299 298 298 297
311 314 320 321 323 323 321 318 311 312 312 313 313 314 315 318 324 326 326 327 327 325 325 325 324 323 320 318 315 312 312 312 312 311 311 310 309 308 306 303 302 301 300 299 298 297 297 296 296

GFSSGP_850_thetae_105.txt.gz
Theta_e
332 332 348 346 340 340 340 338 333 335 336 330 331 332 330 336 333 330 344 339 333 337 321 334 339 341 336 336 336 336 336 335 337 337 339 330 324 316 314 314 313 324 335 325 329 328 330 330 331
331 339 343 346 339 337 335 338 341 336 336 336 336 338 339 345 344 342 342 338 338 334 330 340 341 340 337 335 337 338 336 338 337 340 327 318 314 313 312 311 316 332 335 327 326 329 329 332 331
331 340 343 341 340 338 333 333 335 336 335 332 333 339 342 345 343 341 340 338 341 333 336 340 341 340 340 335 337 336 336 332 325 324 317 312 312 310 312 315 322 335 333 328 325 326 328 330 332
330 340 342 345 343 340 333 331 336 336 335 336 334 334 341 341 341 341 339 342 344 333 336 339 339 340 337 334 327 325 324 321 318 313 311 313 313 317 320 319 332 332 330 330 327 329 330 331 331
333 341 340 344 345 341 337 336 337 337 338 337 334 338 341 340 340 341 342 343 343 335 338 338 337 329 324 318 313 314 312 311 311 313 319 339 324 326 333 334 329 334 332 328 327 328 331 331 330
333 336 343 345 343 339 336 336 336 339 338 338 337 338 341 340 341 341 343 343 338 337 339 340 337 322 317 312 310 310 311 312 316 333 339 336 330 330 330 329 326 325 324 325 325 327 330 330 329
328 332 337 340 341 340 338 338 335 337 339 339 337 337 339 341 341 341 341 336 332 338 339 339 331 318 312 310 312 314 317 327 335 333 330 329 329 330 329 327 324 323 323 324 325 326 327 327 327
326 329 334 335 339 340 336 336 339 341 342 337 338 338 338 341 341 342 339 336 329 330 333 332 323 313 311 314 318 326 338 339 338 334 330 326 327 328 326 323 322 321 321 320 320 320 318 315 311
328 330 331 334 337 337 331 329 336 332 338 337 337 338 340 341 341 341 340 338 331 328 328 326 320 312 315 321 334 339 338 338 338 336 324 322 322 323 322 321 320 319 316 311 310 309 308 307 306
322 327 329 329 330 331 328 325 323 330 334 336 336 337 337 340 339 340 341 339 337 335 334 329 316 313 320 336 337 336 337 338 337 327 318 317 318 318 318 318 316 311 308 307 306 306 307 307 306
316 322 325 323 322 322 324 322 321 332 335 335 336 336 337 340 339 339 340 339 338 340 337 329 314 316 331 337 335 334 334 328 322 317 315 313 312 314 314 311 307 307 307 307 308 308 308 308 308
313 314 314 314 316 317 320 317 319 328 325 319 331 335 337 339 339 339 340 339 339 339 336 325 315 322 336 336 334 329 324 321 318 319 316 316 312 308 306 306 307 307 308 308 308 309 309 309 309
311 312 315 315 315 315 315 315 316 317 318 320 332 336 337 338 339 339 337 339 339 338 329 319 317 326 335 333 330 326 322 318 319 320 319 319 312 306 307 307 307 307 308 308 308 308 309 309 309
314 314 315 315 315 314 314 314 316 319 319 324 333 337 337 339 338 338 339 339 335 337 331 317 317 327 332 330 328 324 320 320 319 319 318 319 313 307 307 308 308 308 308 308 308 309 309 309 309
316 315 314 314 314 313 314 313 314 315 316 318 331 336 338 335 338 336 337 332 330 337 333 318 318 330 331 330 328 327 324 324 320 319 319 318 312 308 308 308 308 308 308 308 308 308 309 309 309
315 313 315 315 314 316 314 314 313 316 315 315 322 334 338 338 336 336 337 330 329 337 334 328 322 331 332 331 330 329 329 328 325 320 317 316 311 309 308 308 308 309 308 308 308 308 309 309 309
314 317 316 316 315 315 315 314 313 317 314 314 314 315 331 338 338 338 334 331 332 334 335 334 331 333 333 334 332 331 331 332 328 324 318 314 310 310 309 309 309 309 308 308 308 308 309 309 309
318 318 317 317 317 316 316 314 312 315 313 313 313 314 316 335 337 337 335 331 334 334 335 335 336 336 335 335 333 333 332 329 325 325 320 314 312 310 309 309 308 309 308 308 308 308 308 308 308
317 318 318 317 316 317 316 315 313 313 313 311 313 314 314 316 327 337 337 336 335 334 335 334 335 336 336 336 334 334 331 327 324 322 322 325 314 311 309 309 309 308 308 308 307 307 307 307 308
319 319 319 317 316 317 316 316 313 311 311 314 313 313 314 314 316 332 337 337 337 335 335 335 335 335 335 338 335 336 330 324 324 322 326 323 317 312 309 309 309 309 309 308 307 307 307 307 308
320 319 319 319 319 317 315 316 314 312 311 312 312 314 320 319 316 320 336 337 337 336 335 334 336 335 336 337 337 336 327 325 328 326 318 321 318 314 309 309 309 309 308 308 307 307 307 307 308
320 319 321 322 323 325 318 322 317 314 311 311 319 320 322 323 321 324 330 337 336 335 334 334 335 335 336 337 337 336 332 330 332 330 329 327 312 312 309 309 309 309 309 308 308 307 306 307 309
319 319 321 320 320 321 319 321 314 312 319 320 319 321 323 323 327 323 331 335 337 335 335 335 335 335 336 337 336 334 332 333 333 331 328 324 314 312 309 308 309 309 308 309 308 308 309 309 309
318 321 318 316 316 319 320 321 314 320 321 320 320 320 324 324 335 333 332 335 337 336 334 332 335 336 335 335 334 334 331 333 327 327 327 328 323 311 309 308 309 309 309 309 308 309 310 310 309
319 320 320 314 316 322 318 320 315 316 318 320 319 322 327 328 336 336 336 335 336 332 329 330 336 333 333 334 333 327 332 331 325 324 326 328 325 316 309 309 308 309 309 309 309 309 309 309 309
320 319 324 319 320 320 319 322 322 319 319 322 321 322 325 330 330 335 336 335 335 335 335 333 330 331 334 332 333 330 325 321 325 328 328 323 322 313 310 309 309 310 309 309 309 309 309 309 308
318 319 317 318 319 317 320 321 319 320 321 322 322 320 323 326 328 331 332 333 333 335 336 337 334 334 333 329 330 325 323 325 328 324 322 319 314 310 310 310 310 309 309 309 309 309 308 306 302
319 315 321 319 323 322 318 316 319 317 320 318 323 319 321 324 326 328 330 333 333 335 334 333 333 332 332 332 330 328 326 322 318 316 315 313 311 310 310 310 309 310 310 310 309 306 303 301 300
310 311 320 318 322 324 319 317 313 313 314 314 317 317 319 321 324 327 329 329 329 334 333 329 328 327 328 324 322 319 317 316 314 313 312 311 311 310 310 310 310 310 309 306 303 301 300 298 297
310 311 316 317 316 321 321 316 310 309 311 313 313 318 319 322 324 326 327 328 328 327 325 324 324 323 322 320 316 315 313 312 312 312 311 311 311 310 310 309 307 304 302 301 299 298 297 297 296

GFSSGP_850_thetae_108.txt.gz
Theta_e
331 330 344 346 333 337 337 335 331 334 335 333 331 328 328 333 332 328 341 339 334 334 320 329 333 333 334 337 336 337 337 337 336 337 338 333 323 313 314 313 331 335 324 330 329 332 330 330 325
329 331 344 344 335 334 331 335 337 335 335 333 332 335 338 343 343 343 342 334 333 334 319 335 338 341 333 335 335 335 336 337 337 339 328 319 313 312 311 315 335 336 330 330 327 333 331 330 326
330 337 342 340 337 335 332 328 332 334 336 335 332 339 342 343 342 342 340 333 335 329 323 339 340 338 336 334 336 337 336 338 339 330 321 312 312 310 313 323 337 336 329 327 327 332 330 331 328
330 339 341 343 342 339 331 329 331 335 336 337 334 334 340 341 341 341 338 338 336 325 338 339 340 339 336 335 336 337 337 333 323 320 312 312 311 315 318 334 334 334 331 326 329 331 330 329 326
332 340 339 342 342 341 337 336 337 336 336 337 336 335 341 341 341 341 338 340 334 338 340 340 339 338 337 334 330 340 332 321 315 311 322 322 329 334 326 334 333 332 332 327 329 329 328 328 327
332 336 341 342 340 339 336 336 335 338 339 338 337 339 339 340 340 341 340 341 336 338 339 340 339 335 336 329 319 316 314 311 312 319 337 336 335 335 335 334 333 327 326 326 326 328 328 327 324
329 331 336 339 339 340 338 338 335 336 337 339 338 336 338 341 342 341 342 343 338 337 340 338 337 329 322 316 312 311 311 313 332 337 336 336 332 332 329 326 324 323 323 324 324 325 326 323 314
326 327 333 333 337 338 335 334 339 338 338 338 337 337 337 340 341 343 342 340 337 337 339 339 337 323 315 311 311 313 316 327 334 336 335 335 330 328 326 324 322 321 321 323 323 321 317 311 306
328 327 328 333 335 335 329 327 331 326 329 336 337 338 337 340 342 342 339 336 335 339 339 339 334 319 311 312 317 324 338 339 336 335 328 325 325 325 323 321 320 320 319 317 314 311 307 306 305
321 325 327 328 329 329 327 325 323 322 323 330 335 337 337 341 342 340 337 336 335 337 338 337 330 315 313 317 331 338 339 339 338 335 323 321 321 321 321 320 319 316 311 309 307 306 306 306 306
316 320 322 319 318 318 320 319 319 325 328 323 330 335 336 340 342 340 338 337 335 330 329 330 324 313 316 328 338 339 338 339 338 333 318 316 318 318 318 317 315 309 307 306 307 307 307 308 308
312 313 313 314 315 314 316 315 318 320 319 317 318 326 335 338 340 340 339 339 336 336 336 335 324 314 322 337 337 337 337 337 333 319 315 314 314 315 315 310 307 307 307 308 308 308 308 309 309
311 311 313 315 315 314 314 314 314 316 316 316 317 322 333 336 338 339 340 340 338 338 338 337 328 315 328 337 336 333 333 328 320 317 316 316 310 308 307 307 307 307 308 308 308 308 309 309 309
313 313 314 315 316 314 313 313 314 316 317 316 317 321 336 336 338 339 339 340 339 339 337 336 329 315 328 337 335 332 326 322 318 319 319 315 308 306 307 307 307 308 308 308 308 308 309 309 308
316 315 313 314 314 314 313 313 312 314 315 315 318 330 337 336 338 339 338 339 339 338 337 336 325 316 324 336 333 330 324 319 320 320 319 317 309 306 307 307 307 308 308 308 308 308 309 308 308
315 313 316 316 314 316 314 316 314 316 315 316 314 314 334 337 337 337 339 338 339 339 337 335 327 316 320 333 331 329 323 321 320 319 318 316 310 307 308 308 308 308 308 308 308 308 308 308 308
314 318 317 316 314 315 314 315 313 318 317 314 315 314 315 334 337 337 337 337 339 335 333 334 332 316 320 330 330 329 325 326 322 320 318 316 311 309 308 308 308 308 308 308 308 308 308 308 308
318 317 317 316 316 316 315 315 313 316 315 313 315 314 313 314 320 332 336 336 338 334 333 336 330 318 322 330 331 330 329 328 324 322 319 315 311 310 309 308 309 309 308 308 308 308 308 308 308
316 317 317 317 316 316 316 315 314 315 314 312 313 314 315 314 314 319 332 336 336 334 333 336 335 320 325 331 332 331 331 329 326 322 320 315 313 310 309 309 309 309 308 308 308 308 308 308 308
318 318 318 317 317 316 317 317 316 314 313 314 314 313 312 313 314 314 326 336 337 333 333 334 335 327 331 334 334 334 332 331 327 322 318 314 311 310 310 309 309 309 308 308 308 307 307 307 308
318 318 318 319 319 318 319 317 314 313 311 311 316 317 320 318 320 316 318 330 336 335 332 333 335 334 330 332 333 333 333 334 329 320 317 312 311 310 310 309 309 309 308 308 308 307 307 307 307
318 317 319 321 319 321 319 319 316 314 312 316 317 320 321 322 321 321 317 320 329 335 336 334 334 332 329 331 334 335 335 335 328 320 315 315 313 310 310 310 310 309 309 309 308 307 308 307 307
317 316 319 318 319 316 319 318 312 314 318 318 317 319 321 323 322 321 319 319 321 331 336 336 334 334 333 333 333 335 337 334 332 319 320 326 323 322 310 310 309 310 309 309 308 308 308 307 309
317 319 315 313 313 318 321 317 314 319 319 318 319 319 322 326 326 326 323 328 331 335 335 335 334 334 335 335 334 334 334 327 323 321 325 326 323 322 319 310 309 309 309 309 309 309 308 309 310
318 317 317 315 314 315 319 321 319 319 320 322 321 322 323 328 333 333 332 333 334 335 335 334 334 334 334 334 334 333 325 325 323 323 324 327 326 324 316 309 309 309 310 309 309 309 309 309 309
319 317 318 323 321 319 317 320 321 317 317 320 321 320 323 325 328 331 334 334 334 336 335 334 333 334 333 333 331 329 328 324 321 322 324 324 325 325 315 309 309 309 309 309 309 309 309 309 309
316 317 317 318 313 318 312 318 319 316 315 317 320 319 320 322 325 329 331 334 334 335 335 335 333 332 331 329 329 327 324 327 322 323 324 326 324 321 318 310 309 309 310 309 309 309 309 309 308
317 315 318 315 316 320 317 314 317 316 316 317 319 316 317 322 326 328 330 331 334 335 333 334 329 332 329 326 322 322 324 324 325 325 322 320 317 313 310 309 310 310 310 309 309 309 308 306 303
309 309 315 316 318 318 321 316 313 313 314 317 317 316 315 319 323 324 328 331 331 332 332 329 328 329 329 328 326 326 323 321 317 316 315 314 312 311 310 310 310 309 309 309 308 306 303 301 299
310 309 313 315 316 317 317 319 310 309 311 313 313 315 314 317 322 325 326 327 327 326 326 326 326 324 321 321 318 317 317 315 314 313 312 311 311 310 309 309 309 308 307 305 302 300 299 298 297

GFSSGP_850_thetae_111.txt.gz
Theta_e
330 331 341 345 339 341 339 335 331 336 337 333 333 328 331 332 335 335 337 336 335 323 338 337 338 338 335 338 338 337 337 337 338 338 336 332 320 313 313 333 333 324 329 332 333 330 327 319 319
328 331 344 342 341 337 335 336 336 336 335 334 333 335 338 342 342 342 341 337 334 325 341 339 339 335 334 335 337 337 337 337 337 339 334 320 312 312 313 335 337 331 329 327 335 329 329 326 318
327 334 342 345 342 338 335 330 332 334 335 336 332 339 341 344 342 342 339 335 331 324 330 338 337 332 336 336 337 336 337 337 338 336 324 313 311 311 317 338 338 332 328 331 331 330 328 326 325
330 339 340 345 344 340 333 331 332 336 336 337 334 335 340 341 341 341 336 335 333 324 325 335 342 339 337 336 335 337 336 339 335 327 317 311 311 315 334 337 336 333 326 331 330 329 326 322 321
332 338 342 342 342 341 338 337 337 338 336 338 337 336 341 341 342 341 335 334 335 324 339 340 340 337 337 334 335 338 338 336 325 319 311 312 315 327 335 335 335 333 330 331 330 326 325 323 315
334 337 340 340 339 340 337 337 336 337 338 338 338 339 339 339 341 340 335 337 330 327 338 339 340 337 337 336 336 338 334 325 315 312 316 333 332 333 335 335 335 334 326 330 327 324 323 319 312
331 337 336 338 340 339 338 338 337 337 336 340 337 337 338 340 341 341 339 337 329 339 339 340 341 338 337 333 326 317 317 312 313 332 334 334 336 335 334 334 329 327 325 327 323 323 320 312 308
327 333 335 336 335 337 334 334 338 334 336 334 336 339 339 339 341 340 341 338 336 338 339 340 339 335 335 327 316 312 311 314 334 336 334 334 334 334 329 325 323 322 323 324 322 318 312 307 305
328 330 331 332 334 332 330 329 328 325 326 322 333 337 337 339 340 342 343 337 338 338 339 338 338 334 324 315 311 312 314 332 338 337 334 332 332 328 325 322 321 321 321 319 314 310 306 305 305
323 328 327 328 330 329 326 322 322 321 321 324 329 331 336 338 340 343 343 339 338 337 339 339 338 328 316 312 313 318 334 337 336 335 330 322 325 324 322 320 320 319 318 313 308 306 305 306 307
317 321 322 322 318 317 318 317 318 319 323 323 321 328 335 339 342 342 340 338 336 336 338 338 336 327 313 314 320 337 340 338 335 335 325 320 320 320 320 319 318 313 310 307 306 306 307 308 308
313 312 314 314 314 314 315 314 315 317 318 316 316 318 327 338 341 340 339 337 338 338 338 335 332 323 313 318 335 339 340 338 338 336 322 317 318 319 318 317 313 308 306 307 307 307 308 308 309
312 312 312 314 315 315 314 314 314 314 314 315 317 319 323 330 336 340 340 337 336 333 331 331 329 321 314 321 337 339 338 339 338 332 317 315 315 316 317 313 308 307 307 308 308 308 308 309 309
313 313 314 315 315 314 314 314 313 314 314 315 315 316 317 321 333 339 339 338 337 335 331 331 332 324 314 326 337 337 337 337 335 320 314 314 312 312 310 307 307 307 308 308 308 309 308 308 308
315 316 315 316 315 316 312 317 314 313 314 316 317 315 321 332 336 337 338 340 338 337 336 336 333 321 315 321 336 335 333 333 325 318 318 314 308 307 307 307 307 308 308 308 308 308 308 308 308
316 315 320 319 316 316 315 319 317 317 315 317 317 315 314 331 335 336 337 338 339 338 337 337 336 322 317 317 332 335 333 327 321 320 319 315 307 306 307 307 307 308 308 308 308 309 308 308 308
316 321 319 318 316 316 316 319 317 318 316 315 317 315 315 314 333 336 337 338 339 338 338 338 336 324 318 322 330 333 331 326 320 321 321 317 308 307 307 307 307 308 308 308 308 308 308 308 308
321 320 319 319 318 317 318 318 318 317 316 315 315 316 316 313 314 328 336 337 338 339 338 337 336 327 317 329 330 331 330 327 321 322 321 319 310 307 308 308 308 308 308 308 308 308 308 308 308
317 318 320 319 318 318 319 319 318 317 316 315 315 315 313 314 314 313 327 336 337 338 338 338 337 329 318 328 329 332 330 328 323 324 323 321 312 308 308 308 308 308 308 308 308 308 308 308 308
319 319 319 318 318 318 319 319 317 315 314 312 313 315 315 315 313 313 315 332 336 337 337 335 332 331 319 318 326 332 331 330 326 325 325 325 317 310 309 309 309 309 309 308 308 308 308 308 308
317 318 318 319 319 318 318 318 317 316 315 315 317 317 320 320 318 315 319 318 332 336 336 335 333 332 330 330 324 331 332 333 331 327 325 326 321 312 309 309 309 309 309 308 308 308 308 307 307
318 316 318 320 319 320 318 320 316 318 319 317 319 319 319 321 320 317 318 317 319 328 336 335 332 334 334 330 332 332 332 332 332 331 327 324 319 314 310 309 309 309 309 308 308 308 308 307 307
317 317 319 318 319 318 318 318 317 318 318 315 317 320 321 322 323 319 318 319 315 325 327 336 332 333 334 333 330 328 330 333 333 332 326 322 319 316 311 310 310 310 309 309 309 308 308 307 308
317 318 315 314 315 320 318 319 318 320 317 317 319 319 321 324 326 324 322 321 320 325 333 335 333 333 334 331 329 330 329 332 327 324 317 316 321 319 319 317 311 309 309 309 309 309 308 308 308
319 319 323 322 321 321 317 319 318 316 316 317 321 319 320 325 328 332 330 328 329 331 333 334 333 332 333 332 331 333 329 323 321 321 321 322 323 320 320 318 309 309 309 309 310 309 309 309 309
319 318 321 322 322 321 316 321 319 315 315 317 320 318 318 321 325 328 331 333 332 333 333 333 332 332 332 332 332 329 325 321 320 320 320 321 325 323 322 319 311 309 309 310 310 309 309 309 309
315 319 317 317 315 320 318 318 317 315 314 316 319 317 316 317 320 324 329 329 332 332 332 331 330 332 331 323 324 324 321 320 321 322 323 322 323 323 323 320 309 309 309 310 309 309 309 309 309
315 315 320 317 320 321 319 317 315 315 315 317 318 316 314 316 320 323 326 328 331 330 330 329 331 331 323 321 323 322 321 322 324 323 323 323 322 323 320 317 312 311 309 309 309 309 309 309 308
311 311 314 318 319 322 321 320 313 313 316 316 315 314 312 317 319 323 324 327 329 330 325 328 329 327 324 326 322 322 322 323 324 321 320 317 315 313 312 311 309 309 309 309 309 308 307 306 303
309 310 312 317 316 319 320 318 311 311 313 313 311 311 312 317 321 325 326 326 326 327 327 328 327 326 326 323 322 321 319 316 314 314 313 312 311 310 309 309 309 308 308 307 307 305 302 300 298

GFSSGP_850_thetae_114.txt.gz
Theta_e
329 331 341 348 344 338 335 331 331 332 339 336 337 334 335 335 337 342 334 339 341 330 345 346 342 340 340 339 339 339 339 339 339 339 337 328 316 318 328 330 323 332 337 332 328 323 318 318 316
329 331 344 344 340 339 335 334 333 334 334 337 335 337 336 337 344 343 342 336 342 334 345 347 339 340 339 339 339 338 338 338 339 337 334 323 312 313 334 334 332 328 331 335 329 326 323 316 317
327 335 342 340 340 338 335 334 333 334 335 336 337 339 341 344 346 346 345 339 337 340 347 344 340 338 338 339 338 338 338 337 340 336 327 313 312 313 336 339 333 328 333 331 329 325 323 323 319
335 338 340 343 340 338 335 333 333 334 334 336 338 339 343 343 346 346 340 340 340 346 347 343 340 337 338 337 337 337 338 338 337 336 323 311 311 317 338 339 334 329 334 330 328 324 321 320 321
336 336 334 339 336 336 338 336 336 337 335 336 338 338 342 344 343 343 342 338 343 343 343 342 337 336 337 338 337 337 338 339 335 326 314 311 313 333 337 337 334 332 332 331 327 324 322 314 315
329 332 330 329 330 334 337 337 338 338 337 337 339 339 342 342 344 344 343 340 341 341 341 343 341 339 338 336 337 339 337 338 331 318 311 313 327 335 336 336 334 333 332 330 325 323 320 312 310
327 329 324 325 327 330 333 335 336 337 337 339 340 340 342 344 341 344 343 340 339 341 344 348 342 339 337 336 337 338 336 333 318 313 318 328 332 335 336 336 335 329 330 327 323 321 314 310 308
326 329 326 327 327 328 328 332 338 336 335 333 339 340 342 343 342 343 343 340 337 341 342 346 344 343 341 339 336 335 320 316 316 329 335 337 336 333 335 335 328 324 327 321 321 316 309 305 306
329 325 324 325 326 326 328 331 331 330 331 328 331 336 339 343 341 345 343 341 341 342 343 345 344 344 344 340 336 323 314 315 334 335 335 335 335 335 331 333 323 323 323 319 315 309 306 305 305
323 324 321 323 323 324 324 326 326 326 329 329 329 333 338 343 342 344 340 341 343 343 343 345 344 340 339 336 334 330 330 335 339 337 336 334 334 333 330 327 322 324 319 314 308 306 305 314 315
319 319 318 319 320 321 321 321 320 322 324 324 327 326 338 341 342 343 340 338 341 343 343 343 341 339 335 331 331 331 333 338 339 338 335 333 331 328 326 326 325 327 315 309 306 306 317 320 320
317 316 317 317 316 316 316 315 315 315 316 318 320 319 325 337 341 342 342 342 341 341 342 340 341 338 332 329 331 335 337 339 339 336 335 330 329 326 324 323 323 324 319 307 307 308 309 316 319
317 318 317 317 317 318 318 319 319 317 316 315 315 318 323 331 335 342 344 343 341 340 340 341 340 337 331 329 333 337 338 338 338 337 333 327 325 324 323 321 319 316 307 307 307 309 310 313 316
318 319 319 319 319 319 319 319 316 317 316 316 316 316 318 321 330 337 343 343 341 340 339 339 340 336 330 330 335 337 339 337 337 335 329 322 323 321 320 318 313 308 308 308 309 310 310 310 311
319 320 320 320 319 320 316 319 319 317 317 317 317 318 317 323 324 330 338 341 341 340 339 339 338 336 330 331 337 338 337 338 338 336 321 315 317 318 316 313 309 308 308 309 310 310 309 309 309
320 320 323 321 320 319 318 321 320 319 318 319 319 318 318 316 328 333 337 340 341 340 340 339 337 336 332 333 338 338 339 338 336 330 317 316 312 313 310 309 309 308 308 308 308 308 309 310 310
322 323 322 322 320 320 320 322 321 320 320 320 319 319 318 318 317 333 338 340 341 339 338 337 336 336 333 331 339 339 335 334 331 323 318 318 309 307 307 308 307 308 308 308 309 309 310 310 310
321 322 321 322 321 320 321 322 321 320 319 320 320 319 318 318 317 319 336 339 340 341 339 338 336 335 333 330 333 336 337 334 327 324 322 320 310 306 307 307 308 308 308 308 309 309 310 311 311
320 321 321 321 320 321 321 321 320 319 317 316 318 319 318 317 316 313 322 336 339 339 341 338 337 336 334 324 337 336 336 334 328 323 322 322 314 307 307 307 308 308 308 308 309 311 309 309 311
319 320 321 321 321 321 320 320 318 320 320 319 320 320 320 320 319 319 318 330 338 338 338 338 338 337 334 321 326 336 337 333 331 324 323 323 319 309 308 308 308 308 308 308 309 308 310 310 308
318 319 320 322 321 321 320 320 320 320 319 318 319 321 321 321 321 321 321 325 333 337 336 337 338 337 335 328 318 327 335 331 331 328 324 325 324 310 308 308 309 308 308 308 308 308 308 308 308
319 318 320 322 321 322 319 323 319 319 320 319 319 319 322 323 323 322 323 321 330 332 335 336 336 335 333 331 319 326 328 330 330 331 327 326 326 318 310 309 309 309 309 309 308 308 308 308 308
318 320 322 321 321 322 321 322 320 319 318 318 318 319 321 323 325 324 323 323 325 333 334 335 335 333 333 328 323 324 328 331 332 330 331 328 327 326 318 312 309 309 309 308 309 309 308 308 308
318 322 320 319 321 324 321 320 320 319 317 316 317 319 319 323 327 329 329 325 325 333 336 335 335 333 333 329 326 328 330 329 329 329 331 331 326 324 320 315 310 310 313 309 309 308 308 308 308
319 323 330 326 328 325 320 321 319 317 316 317 321 318 318 320 323 330 332 331 332 334 335 335 332 333 333 331 329 330 328 325 325 324 324 320 320 321 321 318 317 318 314 310 308 308 309 309 308
319 322 327 331 325 327 322 326 321 315 317 321 320 318 316 317 319 326 330 333 332 332 331 332 332 332 332 332 332 327 323 322 323 320 321 319 321 320 319 318 317 315 311 308 308 309 309 309 309
317 320 321 323 321 324 323 318 318 317 319 319 319 316 314 315 317 325 330 330 331 331 330 330 331 331 330 330 328 322 321 321 321 321 322 320 322 322 320 318 317 311 309 309 309 309 309 309 309
317 317 321 324 327 324 318 317 320 321 319 318 319 316 313 313 315 323 327 329 329 330 329 328 328 324 323 325 322 322 322 321 321 322 321 323 323 322 320 319 316 309 309 310 310 310 309 309 309
315 316 317 321 322 323 320 318 315 317 317 317 316 316 312 312 316 320 325 328 327 330 329 325 322 323 324 323 324 323 321 323 323 323 322 322 321 320 319 317 315 313 311 311 309 309 308 308 308
313 314 314 318 319 322 321 318 315 315 315 314 314 314 312 314 316 320 324 327 328 327 327 327 326 325 324 324 322 322 323 319 317 317 315 313 312 312 312 311 311 308 308 308 308 307 306 305 303

GFSSGP_850_thetae_117.txt.gz
Theta_e
330 337 346 350 347 340 338 336 332 332 335 336 338 337 337 336 341 350 343 344 340 335 344 340 343 341 340 340 340 341 339 339 339 338 335 323 324 324 328 323 339 339 332 327 323 317 317 315 321
339 339 345 343 344 339 338 335 333 331 334 335 337 338 339 338 343 347 345 342 338 341 346 348 342 340 339 340 340 340 339 339 339 338 335 323 316 327 332 329 332 332 334 329 325 322 316 316 317
326 339 342 342 341 339 335 334 335 333 333 334 337 339 341 345 347 347 347 343 335 345 347 350 342 340 339 339 340 338 339 339 338 337 331 314 312 329 338 334 331 334 331 329 323 321 322 318 320
331 335 338 340 340 337 336 335 333 334 333 334 336 338 342 345 347 348 347 344 337 345 346 348 340 340 339 339 339 337 338 339 338 336 324 312 312 333 341 337 332 332 329 329 323 320 320 321 320
330 330 333 332 335 334 333 335 335 336 334 335 336 338 341 347 348 348 345 339 341 346 347 345 341 339 338 339 338 338 338 338 337 336 321 311 313 335 340 336 333 335 331 329 322 321 316 316 318
328 326 329 328 328 330 331 334 333 335 335 335 337 337 344 347 347 346 342 340 346 345 347 347 340 338 338 337 338 338 339 338 335 327 313 311 325 338 338 336 334 335 332 327 322 319 313 311 312
328 328 327 326 325 325 326 331 331 333 333 336 339 339 345 346 347 345 341 341 344 342 342 344 344 338 338 338 338 338 339 337 334 318 312 318 335 336 337 335 334 334 331 324 321 317 311 309 309
328 327 328 327 325 326 326 327 332 334 334 335 337 338 340 347 345 345 343 341 341 341 341 343 346 344 341 338 338 339 339 334 323 314 318 330 335 335 336 336 332 331 328 322 320 313 307 306 307
325 327 325 324 324 325 325 328 328 330 331 331 332 336 339 345 345 344 343 341 339 340 343 345 346 344 343 342 338 338 336 322 319 326 337 335 335 335 334 335 328 330 325 320 314 308 305 305 307
324 325 324 323 324 323 323 324 326 328 328 328 328 331 337 344 346 345 343 341 338 340 341 344 345 344 342 341 339 337 334 327 334 336 336 339 336 334 335 331 326 327 320 315 308 305 312 315 318
319 322 320 318 318 319 320 321 321 321 323 323 327 329 334 339 343 345 343 342 340 343 342 343 345 343 340 338 338 332 331 333 337 338 335 334 334 332 331 326 329 323 316 309 305 313 322 322 323
319 319 318 319 319 319 318 317 318 317 317 318 319 322 326 329 339 342 344 343 341 334 334 341 343 343 337 336 333 330 331 336 339 338 335 334 332 328 328 327 329 327 319 315 315 319 322 322 323
321 321 320 320 320 320 320 320 320 319 318 317 316 316 317 321 333 338 340 343 341 342 342 343 339 339 336 333 331 331 335 336 339 338 335 333 329 326 325 325 325 323 315 312 314 317 319 320 321
321 320 321 321 320 320 321 321 320 320 318 317 317 316 316 320 325 331 338 342 342 340 341 340 340 339 335 332 331 336 339 338 337 336 335 330 327 325 324 323 319 317 311 312 313 313 314 315 316
320 322 323 321 321 321 320 320 321 320 319 319 318 317 317 317 319 322 330 338 341 341 339 341 340 336 335 331 332 337 338 338 337 336 334 327 325 323 322 320 315 312 311 312 312 312 313 313 313
323 323 325 323 322 321 320 324 322 321 320 320 320 320 319 319 318 321 324 331 338 340 341 340 340 336 335 331 334 335 337 338 337 336 329 324 322 321 319 316 312 311 311 312 312 312 313 313 313
324 324 324 324 322 322 322 323 323 322 322 322 322 321 320 319 319 318 326 329 336 340 340 340 339 336 336 332 335 334 336 337 336 333 326 322 320 318 315 313 312 311 311 312 312 312 312 312 312
321 323 323 324 322 321 322 323 322 320 320 320 320 321 321 320 319 318 324 333 336 340 339 338 339 336 335 333 334 334 335 336 335 330 324 321 317 314 312 312 312 311 311 312 312 313 312 312 312
320 321 322 323 322 322 322 322 320 320 320 320 321 322 321 320 319 318 317 332 338 337 334 329 338 337 335 334 332 334 335 335 334 328 325 319 316 311 312 312 311 311 311 312 312 313 313 313 312
319 321 322 322 322 322 321 322 321 321 321 320 320 320 322 322 321 320 318 322 332 339 338 336 338 336 336 335 332 333 334 334 332 328 326 319 317 312 307 308 309 309 312 313 313 313 313 313 313
320 320 320 322 322 322 321 322 321 320 320 319 319 320 320 322 322 321 321 322 328 337 337 338 339 338 337 336 333 332 335 334 333 329 327 323 322 315 307 307 308 308 312 313 313 312 313 313 312
320 320 323 324 323 323 321 325 322 321 321 320 319 320 322 322 323 323 322 323 326 333 335 334 337 338 338 337 334 325 332 335 335 332 329 323 324 321 313 308 308 308 311 312 312 311 309 311 311
319 320 323 323 324 324 322 323 322 320 320 319 319 320 319 320 324 327 323 323 323 330 334 337 331 335 337 336 333 327 331 332 332 331 330 330 325 324 318 309 308 309 309 309 309 309 309 309 309
319 321 324 324 324 326 321 323 322 321 319 318 321 319 318 319 321 328 326 324 324 330 335 334 327 324 335 336 333 324 323 325 327 331 331 330 327 326 325 322 315 310 309 309 309 309 308 309 309
320 324 332 328 328 324 322 323 324 321 319 321 321 317 317 317 321 327 328 327 328 334 334 333 334 329 334 325 328 330 329 328 329 328 327 327 327 324 323 317 315 314 310 311 310 310 310 308 308
321 322 327 330 325 326 323 325 324 320 320 321 320 316 316 316 321 329 330 331 331 331 330 331 333 333 332 331 330 329 329 324 324 324 323 321 319 320 321 320 318 316 313 313 311 311 309 308 308
319 320 321 325 326 328 324 320 323 321 321 319 319 316 315 315 318 326 329 329 329 330 330 329 330 330 330 330 326 326 323 322 321 321 321 319 320 320 320 319 319 315 314 314 312 310 308 308 308
317 318 323 325 332 326 320 317 318 320 320 320 320 316 313 315 317 323 325 327 327 328 329 329 327 326 325 323 322 322 322 322 321 322 321 321 322 322 320 319 317 316 316 313 310 308 308 309 309
318 318 318 322 322 325 322 320 317 318 319 319 319 314 313 315 317 319 323 325 326 326 326 327 326 325 322 322 321 322 320 322 322 322 321 321 322 321 320 318 317 317 315 310 309 309 310 310 310
315 315 316 318 319 321 322 321 317 317 318 318 316 315 313 313 315 318 323 324 323 322 324 324 323 323 322 323 323 321 321 322 321 319 317 315 316 317 317 316 316 314 312 311 310 310 309 307 306

GFSSGP_850_thetae_123.txt.gz
Theta_e
323 333 341 343 339 342 341 337 335 331 332 335 336 337 336 344 348 344 342 344 342 337 333 336 332 343 342 344 342 340 337 337 337 332 322 317 322 337 341 337 330 324 320 316 315 320 330 336 335
323 338 340 344 343 342 339 336 336 331 331 334 335 335 336 348 344 341 345 344 342 336 331 339 340 342 338 340 338 337 338 338 335 330 323 316 322 335 339 332 331 325 319 318 315 316 325 331 332
322 339 340 339 340 342 339 334 331 332 333 333 333 336 343 347 345 340 344 342 341 333 327 341 342 342 337 337 338 337 340 337 337 333 320 315 331 329 333 330 327 326 319 318 319 317 320 330 331
328 332 337 338 339 336 335 333 331 331 333 333 332 338 345 347 347 346 345 341 338 327 333 343 340 340 338 338 340 338 340 337 336 331 315 318 336 336 338 334 327 328 320 317 319 319 320 325 332
327 330 332 332 331 328 327 328 329 331 332 332 334 334 346 348 348 347 342 340 341 340 337 345 341 341 340 341 340 338 339 337 335 327 314 320 339 339 337 335 331 328 321 317 314 321 324 332 332
326 328 325 328 328 326 323 325 325 331 329 331 334 335 345 346 346 342 338 338 346 346 342 342 342 339 339 339 339 338 339 337 335 330 313 316 337 340 337 337 333 328 320 316 312 315 323 332 331
327 326 327 326 324 323 324 324 325 330 331 330 327 333 332 343 343 344 336 341 348 346 347 342 341 339 338 338 338 338 338 337 334 324 312 324 334 339 336 337 334 328 318 315 310 310 324 331 330
325 325 326 323 323 323 322 321 323 326 331 333 333 339 339 339 340 342 340 344 346 346 345 344 339 339 338 339 337 339 337 336 332 317 317 330 336 338 335 336 333 326 317 313 308 308 318 330 328
324 322 324 324 321 321 318 318 320 320 320 325 327 329 335 334 331 335 338 341 344 344 344 344 340 339 338 338 338 339 337 336 331 314 328 332 336 336 335 334 331 321 316 309 306 309 319 325 326
321 321 323 319 317 317 318 317 317 316 316 318 320 331 336 335 333 330 327 338 337 343 344 341 339 338 338 338 338 338 338 331 324 320 329 334 335 335 334 330 326 317 312 306 307 321 325 325 325
318 318 318 318 319 320 319 319 319 318 316 318 318 317 327 335 334 331 332 327 331 340 343 342 336 336 338 338 338 338 336 324 315 325 330 334 333 332 330 329 324 316 308 308 321 325 326 325 326
318 319 319 319 320 320 319 320 319 320 320 320 319 318 317 317 329 336 335 336 334 328 333 341 341 341 340 336 336 336 334 321 317 334 336 334 332 332 332 330 320 313 311 318 318 320 325 324 324
319 319 320 320 320 320 320 320 320 320 320 320 319 319 318 317 316 316 335 338 338 336 339 340 340 341 340 339 339 335 330 317 327 337 334 333 334 333 330 322 317 309 311 316 319 323 323 323 323
320 320 320 321 321 321 320 319 319 320 320 320 318 318 318 317 316 316 317 336 338 338 339 334 335 341 339 339 335 331 329 325 334 337 336 334 333 328 324 325 323 315 310 314 321 321 320 320 320
321 319 319 320 321 320 320 320 320 320 321 320 320 321 321 321 319 316 317 332 337 335 338 335 338 338 334 338 332 330 330 330 335 336 334 333 332 326 325 327 325 321 311 316 320 318 320 318 317
322 320 320 320 321 320 320 320 320 320 320 320 320 320 320 321 321 320 317 317 320 336 335 334 333 336 336 336 333 330 331 330 333 337 333 332 331 326 325 325 324 321 311 314 316 316 320 317 316
315 316 316 318 320 320 320 320 319 320 320 318 319 319 320 320 321 321 321 318 318 330 336 334 337 335 336 335 331 332 332 332 333 336 333 333 328 325 325 323 321 314 312 313 313 313 313 313 313
316 316 316 316 320 320 321 319 318 319 319 319 319 319 319 320 320 321 320 317 318 322 333 336 333 335 335 335 332 331 331 334 334 336 333 330 327 324 324 322 318 311 312 312 312 312 312 312 312
315 316 316 318 320 320 321 319 319 318 319 318 318 318 318 318 319 320 322 320 320 325 336 336 335 336 332 336 334 332 331 332 334 336 334 330 325 322 321 319 315 311 312 312 312 312 312 312 312
316 317 317 320 321 320 319 320 319 318 318 319 318 318 320 319 318 319 322 323 317 324 334 334 334 333 335 332 334 333 332 332 334 334 333 326 324 321 320 316 313 311 311 312 312 312 312 312 311
316 318 318 322 322 320 320 320 320 318 319 319 319 320 320 318 318 318 320 323 322 322 327 333 332 332 331 331 328 333 332 331 333 331 326 325 323 318 316 313 312 311 311 311 312 312 312 312 311
316 317 318 320 322 321 318 319 320 318 318 317 319 320 318 317 317 318 319 323 323 324 327 330 327 331 332 330 328 328 331 330 333 330 326 324 320 316 313 312 312 311 311 312 312 313 313 312 312
316 316 317 319 322 321 319 317 320 317 319 317 319 318 317 317 317 318 318 322 326 324 327 330 330 330 328 328 328 331 330 330 332 328 327 325 320 316 314 312 312 311 311 312 311 312 311 312 313
316 319 322 322 321 323 318 319 318 320 318 318 319 317 316 318 320 320 321 323 325 325 330 329 328 331 327 327 325 327 329 330 328 329 330 325 324 320 315 312 312 311 312 312 312 311 313 313 310
314 316 313 318 317 320 321 319 319 319 319 319 319 317 317 318 322 322 324 325 326 327 331 330 329 330 324 325 324 324 321 324 325 328 328 328 327 328 319 317 311 311 312 313 312 312 313 313 310
315 318 313 310 318 318 321 319 321 318 320 319 317 316 317 319 323 322 326 326 329 330 329 330 328 327 325 324 323 321 320 323 324 325 327 326 325 324 324 321 314 311 309 311 311 313 312 309 310
316 315 318 318 321 319 320 320 320 317 318 316 315 317 316 318 319 322 328 329 330 327 331 326 326 326 325 323 323 322 321 323 326 325 324 322 321 321 320 318 317 314 312 310 311 310 309 311 310
316 316 318 318 313 319 318 315 314 318 318 317 314 315 316 318 320 322 325 327 328 328 329 329 329 327 326 325 325 324 323 322 321 321 321 320 321 320 320 319 318 315 314 312 313 312 311 310 310
316 316 315 314 317 318 319 315 313 317 317 316 314 314 315 316 318 320 322 324 325 326 327 326 324 323 323 322 322 321 321 320 321 321 321 321 322 320 319 318 317 316 314 312 310 310 311 309 308
313 313 310 312 315 314 314 316 316 315 315 317 315 314 316 318 318 319 321 323 323 323 323 323 322 321 321 320 321 321 321 321 321 320 320 320 319 317 316 315 313 312 311 311 310 309 309 309 309

GFSSGP_850_thetae_126.txt.gz
Theta_e
320 336 340 344 335 338 341 338 335 335 331 334 335 336 339 342 346 341 344 338 336 329 329 331 344 342 341 344 343 340 337 336 332 321 316 321 337 339 334 326 320 318 316 320 336 332 332 334 335
318 339 340 344 337 338 335 336 336 331 331 332 333 336 338 347 341 340 340 343 339 336 336 331 343 341 343 344 344 336 334 339 332 322 316 326 340 339 332 329 321 318 316 316 329 331 331 332 336
327 339 340 337 337 337 337 333 331 332 330 331 331 338 345 346 344 336 339 341 340 337 337 329 341 340 344 343 342 337 337 334 332 324 315 326 336 337 327 327 322 317 318 316 320 329 330 330 333
332 334 336 337 340 336 335 332 331 327 327 331 332 334 345 346 341 341 345 342 340 336 336 337 341 343 342 342 338 337 337 335 333 324 315 329 333 331 329 326 324 318 317 318 318 324 329 332 332
328 330 329 332 331 327 325 326 325 325 327 331 334 336 345 345 345 345 343 342 340 337 336 344 344 342 339 337 337 339 338 335 332 319 317 337 338 339 333 328 325 318 315 318 319 325 331 331 330
326 325 324 328 328 324 322 321 320 330 330 330 331 332 342 344 343 341 340 339 338 334 339 345 343 341 338 337 338 339 339 335 329 319 319 338 339 338 336 331 326 317 314 315 323 328 330 329 329
324 323 326 325 325 322 322 319 323 323 330 331 329 330 330 335 341 339 337 342 344 335 341 345 342 341 339 340 339 338 339 335 332 318 316 336 340 338 337 333 327 317 313 312 323 327 327 329 330
324 322 326 322 322 322 319 317 319 317 328 324 331 337 334 333 331 340 336 342 346 344 339 343 342 341 340 340 339 339 338 336 332 316 316 331 337 338 337 334 327 316 312 310 324 328 328 329 329
323 320 322 323 316 316 318 317 317 318 318 320 325 331 334 334 334 335 332 336 341 345 344 341 341 340 340 339 339 339 337 335 328 313 327 332 338 337 335 333 325 315 310 308 321 328 328 327 326
321 319 321 319 316 317 318 318 319 318 317 318 318 318 325 333 332 331 335 333 334 342 333 329 340 338 339 339 339 340 337 334 325 326 329 333 336 336 334 332 321 314 307 307 317 325 324 321 321
318 316 316 317 318 320 319 319 320 318 318 319 319 319 319 319 323 332 331 330 328 328 327 328 331 338 337 339 339 340 337 334 320 325 330 335 336 335 332 324 318 311 306 315 324 325 324 324 324
316 317 317 319 320 320 319 320 319 319 319 320 320 319 318 318 317 322 330 331 332 331 328 326 339 338 335 336 337 338 338 328 319 327 331 333 334 332 328 326 316 308 310 322 325 325 325 324 324
318 318 320 320 319 319 320 319 319 319 320 319 320 318 317 318 317 318 324 331 334 333 331 329 333 334 336 336 335 337 336 327 316 329 331 333 330 330 331 327 315 310 316 323 325 324 324 324 323
319 319 319 320 321 320 319 319 319 320 320 320 320 320 321 321 321 320 316 316 333 333 332 332 329 326 338 337 336 335 334 326 318 331 335 332 333 333 330 320 312 312 316 319 324 323 323 323 323
320 319 318 320 320 319 320 319 319 319 319 319 319 320 320 320 321 320 321 318 331 333 335 336 336 333 333 337 337 336 330 319 329 335 334 334 333 330 322 320 311 309 314 322 322 322 322 322 320
320 316 316 316 320 320 319 319 318 319 319 319 319 319 319 319 319 320 321 319 318 330 332 335 333 328 329 331 331 330 330 322 336 336 335 334 331 328 324 322 319 313 316 321 318 318 319 319 318
313 315 315 315 319 319 318 319 317 319 319 318 318 318 318 318 318 319 321 320 319 319 328 331 334 328 331 334 335 334 330 331 334 336 335 333 329 328 325 324 323 320 314 319 317 316 317 316 316
315 315 314 314 317 319 319 319 318 318 319 318 318 318 318 318 319 318 319 322 319 320 327 333 333 332 334 335 331 333 332 331 332 333 333 329 328 326 325 324 323 320 312 316 314 316 314 315 314
315 315 315 317 318 320 319 319 318 318 318 318 318 319 319 319 319 318 318 322 318 325 325 330 331 332 334 334 334 333 332 333 332 334 335 331 327 326 324 324 322 317 312 313 313 313 312 312 312
315 317 316 317 319 320 318 320 319 318 318 318 319 320 320 319 317 317 318 321 322 326 330 329 330 331 333 333 333 333 333 333 333 335 328 327 329 324 324 323 321 313 312 312 312 312 312 312 312
314 316 317 318 320 318 318 319 319 317 318 318 318 319 317 317 317 317 318 319 325 326 328 329 330 331 330 331 332 333 332 332 332 334 334 333 323 323 322 321 319 312 311 312 312 312 312 312 312
315 315 316 317 320 321 316 318 318 317 316 316 318 318 317 317 318 318 318 320 324 327 325 324 329 329 330 330 331 332 331 325 329 328 325 325 326 321 321 319 315 312 311 311 312 312 312 312 311
314 315 315 317 320 320 317 317 314 316 318 316 319 318 317 318 320 320 318 320 325 323 327 329 329 330 331 332 331 329 327 324 326 328 328 328 326 318 317 314 312 311 311 311 311 312 312 312 312
315 317 314 319 318 322 318 318 315 318 317 318 319 317 318 319 319 323 319 321 324 325 328 330 330 331 330 328 327 328 329 327 326 329 329 322 322 317 318 313 312 312 311 311 312 312 313 312 311
314 312 311 314 316 320 319 317 317 317 318 319 318 317 318 319 320 323 325 325 326 329 330 330 329 329 326 326 326 330 329 328 329 328 326 325 326 325 315 312 312 312 311 312 312 313 312 310 312
315 314 310 306 314 314 318 318 317 318 318 316 317 317 318 321 321 324 327 328 329 330 330 330 331 330 325 325 325 322 326 326 325 323 321 322 326 324 319 318 314 312 312 313 313 313 311 312 310
315 315 315 314 316 316 317 318 317 317 318 315 317 317 318 319 322 325 328 328 329 328 328 329 328 327 325 323 322 322 321 324 324 325 326 324 324 323 323 319 317 312 312 313 313 312 313 312 312
314 315 317 314 314 318 316 314 313 317 317 316 317 316 317 320 320 323 326 327 327 328 327 326 326 326 325 324 323 321 321 322 323 323 324 322 321 321 320 319 317 314 311 311 312 311 311 311 312
315 315 314 313 315 316 318 315 309 316 317 315 315 317 317 320 321 323 324 325 326 327 326 325 325 324 323 323 323 323 322 322 322 322 321 321 321 321 319 318 317 315 314 313 312 311 311 311 310
311 311 309 311 315 311 312 314 316 314 315 315 314 315 318 319 320 322 323 323 324 323 323 323 322 322 321 320 320 320 320 320 321 321 320 320 320 319 318 317 316 315 313 312 312 312 311 309 308

GFSSGP_850_thetae_129.txt.gz
Theta_e
321 337 341 343 331 334 337 336 334 334 331 331 329 333 336 339 342 337 344 342 332 323 325 338 344 344 343 337 344 344 336 333 321 316 334 337 339 331 323 319 316 316 334 336 334 333 335 335 334
319 337 339 342 330 330 326 333 336 331 330 327 329 340 337 345 344 342 343 338 335 323 328 341 342 343 341 341 342 342 334 333 323 315 326 339 337 331 325 319 317 315 332 331 331 331 334 336 335
324 339 339 334 333 332 331 331 329 327 325 326 329 343 345 345 343 342 342 341 337 324 329 344 341 341 340 344 343 338 333 333 325 315 329 339 337 330 327 319 317 316 322 330 330 329 332 334 335
336 336 334 336 338 335 332 328 324 323 323 329 332 336 345 343 340 341 344 342 339 329 330 344 344 342 343 344 343 335 335 332 326 315 334 337 335 327 326 320 317 317 318 330 331 330 330 331 334
330 330 325 330 330 328 323 323 319 320 325 329 331 335 344 342 344 344 344 343 340 338 335 341 343 342 343 344 342 338 337 333 328 315 327 334 332 327 326 323 317 316 318 331 331 329 331 330 329
325 324 324 325 325 324 320 317 318 317 328 330 328 330 343 340 341 341 341 341 341 338 338 337 342 342 344 343 338 337 336 334 329 316 335 337 338 331 328 324 316 315 319 328 329 330 329 326 325
323 320 322 322 324 322 320 318 318 316 325 321 331 331 332 339 339 340 340 340 339 339 339 336 343 342 342 341 337 339 336 334 326 318 337 339 339 336 329 324 316 313 321 328 327 328 330 330 328
325 320 324 321 318 319 317 318 317 318 318 321 328 331 330 335 340 338 338 338 340 341 337 338 343 342 342 340 338 339 338 334 323 316 335 339 339 337 332 325 316 312 322 330 324 328 330 329 326
323 319 321 322 316 315 317 317 317 318 317 318 318 318 333 335 334 334 336 338 343 342 338 340 342 342 342 339 340 339 339 335 328 315 332 337 339 338 334 327 316 311 319 329 324 324 326 327 325
320 316 317 318 316 315 318 318 319 318 318 317 319 318 320 331 326 331 334 334 332 335 332 338 338 340 334 340 340 339 338 335 329 314 327 335 337 337 334 327 315 309 318 328 323 325 324 320 318
317 315 315 317 317 318 318 318 319 318 317 318 319 319 319 319 322 323 324 332 335 336 336 332 331 332 326 331 338 338 338 335 325 315 329 334 337 336 334 325 314 307 320 328 325 320 321 321 313
316 316 316 318 319 319 318 319 319 318 318 318 318 318 317 318 319 322 328 331 330 330 331 329 331 328 325 333 337 336 337 335 323 327 330 333 336 335 330 322 312 306 320 325 323 322 323 323 317
317 318 319 319 319 319 319 319 318 319 319 319 319 320 320 320 320 320 316 317 332 330 330 330 329 324 331 337 337 336 337 335 327 326 330 332 335 333 327 320 309 309 320 324 324 322 323 323 321
318 319 319 319 319 319 319 318 319 319 318 319 320 319 319 319 319 320 321 318 315 326 330 330 331 328 330 336 336 335 335 334 325 322 326 332 334 330 328 319 307 317 324 324 324 323 323 323 321
319 319 316 318 319 319 319 319 318 318 318 319 318 318 318 318 318 319 320 321 318 321 333 331 331 330 327 328 334 335 334 333 321 323 328 332 331 332 331 319 312 322 324 324 324 324 323 323 320
317 313 314 314 318 319 319 318 317 318 318 318 318 318 318 318 318 318 318 321 319 320 330 332 332 330 328 325 326 327 335 333 321 324 332 332 333 331 321 316 313 317 318 324 323 322 323 322 319
311 314 315 314 315 318 318 318 317 318 318 318 318 319 319 319 319 318 318 319 320 321 327 332 332 331 327 328 327 326 332 330 324 327 335 334 334 327 323 316 310 314 320 323 322 321 321 319 318
314 314 314 313 315 318 318 317 317 318 318 317 318 319 319 318 319 319 318 318 321 324 320 329 329 331 329 327 328 328 327 330 326 329 333 334 332 327 325 322 318 311 320 320 318 318 319 317 316
314 314 314 314 316 320 318 317 317 318 317 317 317 319 318 317 316 317 317 319 324 328 323 326 329 331 332 332 329 330 332 331 329 333 333 334 330 327 325 324 323 319 317 317 316 316 316 315 315
314 315 315 315 317 320 318 318 318 317 317 317 318 319 318 317 316 318 317 319 326 327 323 326 327 331 331 332 332 332 333 331 331 333 334 334 331 327 327 324 323 320 313 316 314 314 314 314 313
313 314 315 316 317 317 318 316 318 316 317 316 318 318 317 317 318 319 318 320 326 328 327 329 328 330 331 331 332 332 333 332 332 333 333 329 329 327 325 324 322 319 312 313 313 312 312 312 312
314 313 315 316 317 319 315 319 315 316 315 314 318 318 317 318 318 318 318 320 325 326 328 327 328 328 330 331 332 332 332 333 332 331 331 328 324 324 324 319 321 319 312 312 312 312 312 312 312
313 314 315 315 317 319 318 316 313 314 317 316 317 318 318 318 319 320 318 320 325 326 326 328 329 330 330 331 332 332 332 331 326 326 326 327 329 325 321 317 317 315 312 311 312 312 312 312 312
314 317 314 316 317 321 318 317 315 317 316 317 319 318 318 318 319 323 321 324 323 326 327 329 330 331 331 331 331 331 331 330 325 327 326 325 318 319 314 312 313 312 311 311 311 312 312 312 311
313 313 312 317 313 318 317 316 315 316 318 317 318 318 318 318 319 323 323 324 326 329 329 330 330 329 327 326 326 328 328 326 325 325 324 326 327 327 324 317 311 311 311 311 311 312 312 312 312
314 313 308 304 309 311 316 315 315 318 317 318 318 318 319 320 319 321 324 325 326 326 327 327 328 326 324 326 328 329 328 328 327 326 326 324 324 325 325 318 315 311 311 311 312 312 312 312 311
314 315 313 313 312 313 315 315 316 318 317 316 317 317 318 319 320 324 325 324 325 327 326 325 325 326 325 324 323 323 324 326 325 324 323 322 323 324 324 319 315 312 313 312 312 313 312 312 312
313 313 316 311 313 315 313 313 313 312 316 316 317 317 317 322 323 324 325 325 325 326 325 325 325 324 323 323 323 322 324 325 323 324 324 325 323 324 322 319 317 317 313 313 312 312 312 312 312
314 315 311 312 313 314 314 312 308 312 315 316 316 317 317 319 322 323 324 325 326 326 326 325 325 323 323 323 322 321 322 322 322 323 322 321 321 319 318 318 317 315 312 312 312 312 311 312 312
312 312 309 310 312 310 310 313 313 313 315 317 316 316 317 319 320 321 322 323 323 324 324 323 323 323 323 322 322 322 322 321 321 320 320 320 320 319 318 317 316 316 316 314 313 313 313 312 311